[[{"header":{"parameterUnit":"m.s-1","parameterCategory":1,"la1":31.0,"la2":29.5877,"lo1":-88.7671,"lo2":-86.6584,"dy":0.0162,"dx":0.0185,"nx":115,"ny":88,"refTime":"2026-04-17T12:00:00:Z","depth":0,"parameterNumber":2,"parameterNumberName":"U-component_of_WINDS"},"data":[0.0,0.0,0.0,0.0,0.0,0.0,0.0,0.0,0.0,0.0,0.0,0.0,0.0,0.0,0.0,0.0,0.0,0.0,0.0,0.0,0.0,0.0,0.0,0.0,0.0,0.0,0.0,0.0,0.0,0.0,0.0,0.0,0.0,0.0,0.0,0.0,0.0,0.0,0.0,0.0,0.0,0.0,0.0,0.0,0.0,0.0,0.0,0.0,0.0,0.0,0.0,0.0,0.0,0.0,0.0,0.0,0.0,0.0,0.0,0.0,0.0,0.0,0.0,0.0,0.0,0.0,0.0,0.0,0.0,0.0,0.0,0.0,0.0,0.0,0.0,0.0,0.0,0.0,0.0,0.0,0.0,0.0,0.0,0.0,0.0,0.0,0.0,0.0,0.0,0.0,0.0,0.0,0.0,0.0,0.0,0.0,0.0,0.0,0.0,0.0,0.0,0.0,0.0,0.0,0.0,0.0,0.0,0.0,0.0,0.0,0.0,0.0,0.0,0.0,0.0,0.0,0.0,0.0,0.0,0.0,0.0,0.0,0.0,0.0,0.0,0.0,0.0,0.0,0.0,0.0,0.0,0.0,0.0,0.0,0.0,0.0,0.0,0.0,0.0,0.0,0.0,0.0,0.0,0.0,0.0,0.0,0.0,0.0,0.0,0.0,0.0,0.0,0.0,0.0,0.0,0.0,0.0,0.0,0.0,0.0,0.0,0.0,0.0,0.0,0.0,0.0,0.0,0.0,0.0,0.0,0.0,0.0,0.0,0.0,0.0,0.0,0.0,0.0,0.0,0.0,0.0,0.0,0.0,0.0,0.0,0.0,0.0,0.0,0.0,0.0,0.0,0.0,0.0,0.0,0.0,0.0,0.0,0.0,0.0,0.0,0.0,0.0,0.0,0.0,0.0,0.0,0.0,0.0,0.0,0.0,0.0,0.0,0.0,0.0,0.0,0.0,0.0,0.0,0.0,0.0,0.0,0.0,0.0,0.0,0.0,0.0,0.0,0.0,0.0,0.0,0.0,0.0,0.0,0.0,0.0,0.0,0.0,0.0,0.0,0.0,0.0,0.0,0.0,0.0,0.0,0.0,0.0,0.0,0.0,0.0,0.0,0.0,0.0,0.0,0.0,0.0,0.0,0.0,0.0,0.0,0.0,0.0,0.0,0.0,0.0,0.0,0.0,0.0,0.0,0.0,0.0,0.0,0.0,0.0,0.0,0.0,0.0,0.0,0.0,0.0,0.0,0.0,0.0,0.0,0.0,0.0,0.0,0.0,0.0,0.0,0.0,0.0,0.0,0.0,0.0,0.0,0.0,0.0,0.0,0.0,0.0,0.0,0.0,0.0,0.0,0.0,0.0,0.0,0.0,0.0,0.0,0.0,0.0,0.0,0.0,0.0,0.0,0.0,0.0,0.0,0.0,0.0,0.0,0.0,0.0,0.0,0.0,0.0,0.0,0.0,0.0,0.0,0.0,0.0,0.0,0.0,0.0,0.0,0.0,0.0,0.0,0.0,0.0,0.0,0.0,0.0,0.0,0.0,0.0,0.0,0.0,0.0,0.0,0.0,0.0,0.0,0.0,0.0,0.0,0.0,0.0,0.0,0.0,0.0,0.0,0.0,0.0,0.0,0.0,0.0,0.0,0.0,0.0,0.0,0.0,0.0,0.0,0.0,0.0,0.0,0.0,0.0,0.0,0.0,0.0,0.0,0.0,0.0,0.0,0.0,0.0,0.0,0.0,0.0,0.0,0.0,0.0,0.0,0.0,0.0,0.0,0.0,0.0,0.0,0.0,0.0,0.0,0.0,0.0,0.0,0.0,0.0,0.0,0.0,0.0,0.0,0.0,0.0,0.0,0.0,0.0,0.0,0.0,0.0,0.0,0.0,0.0,0.0,0.0,0.0,0.0,0.0,0.0,0.0,0.0,0.0,0.0,0.0,0.0,0.0,0.0,0.0,0.0,0.0,0.0,0.0,0.0,0.0,0.0,0.0,0.0,0.0,0.0,0.0,0.0,0.0,0.0,0.0,0.0,0.0,0.0,0.0,0.0,0.0,0.0,0.0,0.0,0.0,0.0,0.0,0.0,0.0,0.0,0.0,0.0,0.0,0.0,0.0,0.0,0.0,0.0,0.0,0.0,0.0,0.0,0.0,0.0,0.0,0.0,0.0,0.0,0.0,0.0,0.0,0.0,0.0,0.0,0.0,0.0,0.0,0.0,0.0,0.0,0.0,0.0,0.0,0.0,0.0,0.0,0.0,0.0,0.0,0.0,0.0,0.0,0.0,0.0,0.0,0.0,0.0,0.0,0.0,0.0,0.0,0.0,0.0,0.0,0.0,0.0,0.0,0.0,0.0,0.0,0.0,0.0,0.0,0.0,0.0,0.0,0.0,0.0,0.0,0.0,0.0,0.0,0.0,0.0,0.0,0.0,0.0,0.0,0.0,0.0,0.0,0.0,0.0,0.0,0.0,0.0,0.0,0.0,0.0,0.0,0.0,0.0,0.0,0.0,0.0,0.0,0.0,0.0,0.0,0.0,0.0,0.0,0.0,0.0,0.0,0.0,0.0,0.0,0.0,0.0,0.0,0.0,0.0,0.0,0.0,0.0,0.0,0.0,0.0,0.0,0.0,0.0,0.0,0.0,0.0,0.0,0.0,0.0,0.0,0.0,0.0,0.0,0.0,0.0,0.0,0.0,0.0,0.0,0.0,0.0,0.0,0.0,0.0,0.0,0.0,0.0,0.0,0.0,0.0,0.0,0.0,0.0,0.0,0.0,0.0,0.0,0.0,0.0,0.0,0.0,0.0,0.0,0.0,0.0,0.0,0.0,0.0,0.0,0.0,0.0,0.0,0.0,0.0,0.0,0.0,0.0,0.0,0.0,0.0,0.0,0.0,0.0,0.0,0.0,0.0,0.0,0.0,0.0,0.0,0.0,0.0,0.0,0.0,0.0,0.0,0.0,0.0,0.0,0.0,0.0,0.0,0.0,0.0,0.0,0.0,0.0,0.0,0.0,0.0,0.0,0.0,0.0,0.0,0.0,0.0,0.0,0.0,0.0,0.0,0.0,0.0,0.0,0.0,0.0,0.0,0.0,0.0,0.0,0.0,0.0,0.0,0.0,0.0,0.0,0.0,0.0,0.0,0.0,0.0,0.0,0.0,0.0,0.0,0.0,0.0,0.0,0.0,0.0,0.0,0.0,0.0,0.0,0.0,0.0,0.0,0.0,0.0,0.0,0.0,0.0,0.0,0.0,0.0,0.0,0.0,0.0,0.0,0.0,0.0,0.0,0.0,0.0,0.0,0.0,0.0,0.0,0.0,0.0,0.0,0.0,0.0,0.0,0.0,0.0,0.0,0.0,0.0,0.0,0.0,0.0,0.0,0.0,0.0,0.0,0.0,0.0,0.0,0.0,0.0,0.0,0.0,0.0,0.0,0.0,0.0,0.0,0.0,0.0,0.0,0.0,0.0,0.0,0.0,0.0,0.0,0.0,0.0,0.0,0.0,0.0,0.0,0.0,0.0,0.0,0.0,0.0,0.0,0.0,0.0,0.0,0.0,0.0,0.0,0.0,0.0,0.0,0.0,0.0,0.0,0.0,0.0,0.0,0.0,0.0,0.0,0.0,0.0,0.0,0.0,0.0,0.0,0.0,0.0,0.0,0.0,0.0,0.0,0.0,0.0,0.0,0.0,0.0,0.0,0.0,0.0,0.0,0.0,0.0,0.0,0.0,0.0,0.0,0.0,0.0,0.0,0.0,0.0,0.0,0.0,0.0,0.0,0.0,0.0,0.0,0.0,0.0,0.0,0.0,0.0,0.0,0.0,0.0,0.0,0.0,0.0,0.0,0.0,0.0,0.0,0.0,0.0,0.0,0.0,0.0,0.0,0.0,0.0,0.0,0.0,0.0,0.0,0.0,0.0,0.0,0.0,0.0,0.0,0.0,0.0,0.0,0.0,0.0,0.0,0.0,0.0,0.0,0.0,0.0,0.0,0.0,0.0,0.0,0.0,0.0,0.0,0.0,0.0,0.0,0.0,0.0,0.0,0.0,0.0,0.0,0.0,0.0,0.0,0.0,0.0,0.0,0.0,0.0,0.0,0.0,0.0,0.0,0.0,0.0,0.0,0.0,0.0,0.0,0.0,0.0,0.0,0.0,0.0,0.0,0.0,0.0,0.0,0.0,0.0,0.0,0.0,0.0,0.0,0.0,0.0,0.0,0.0,0.0,0.0,0.0,0.0,0.0,0.0,0.0,0.0,0.0,0.0,0.0,0.0,2.3703,0.0,0.0,0.0,0.0,0.0,0.0,0.0,0.0,0.0,0.0,0.0,0.0,0.0,0.0,0.0,0.0,0.0,0.0,0.0,0.0,0.0,0.0,0.0,0.0,0.0,0.0,0.0,0.0,0.0,0.0,0.0,0.0,0.0,0.0,0.0,0.0,0.0,0.0,0.0,0.0,0.0,0.0,0.0,0.0,0.0,0.0,0.0,0.0,0.0,0.0,0.0,0.0,0.0,0.0,0.0,0.0,0.0,0.0,0.0,0.0,0.0,0.0,0.0,0.0,0.0,0.0,0.0,0.0,0.0,0.0,0.0,0.0,0.0,0.0,0.0,0.0,0.0,0.0,0.0,0.0,0.0,0.0,0.0,0.0,0.0,0.0,0.0,0.0,0.0,0.0,0.0,0.0,0.0,0.0,0.0,0.0,0.0,0.0,0.0,0.0,0.0,0.0,0.0,0.0,0.0,0.0,0.0,0.0,0.0,0.0,2.5534,2.5557,2.488,2.4377,2.4137,0.0,0.0,0.0,0.0,0.0,0.0,0.0,0.0,0.0,0.0,0.0,0.0,0.0,0.0,0.0,0.0,0.0,0.0,0.0,0.0,0.0,0.0,0.0,0.0,0.0,0.0,0.0,0.0,0.0,0.0,0.0,0.0,0.0,0.0,0.0,0.0,0.0,0.0,0.0,0.0,0.0,0.0,0.0,0.0,0.0,0.0,0.0,0.0,0.0,0.0,0.0,0.0,0.0,0.0,0.0,0.0,0.0,0.0,0.0,0.0,0.0,0.0,0.0,0.0,0.0,0.0,0.0,0.0,0.0,0.0,0.0,0.0,0.0,0.0,0.0,0.0,0.0,0.0,0.0,0.0,0.0,0.0,0.0,0.0,0.0,0.0,0.0,0.0,0.0,0.0,0.0,0.0,0.0,0.0,0.0,0.0,0.0,0.0,0.0,0.0,0.0,0.0,0.0,0.0,0.0,0.0,0.0,0.0,0.0,0.0,0.0,0.0,2.5251,2.4705,2.4486,0.0,0.0,0.0,0.0,0.0,0.0,0.0,0.0,0.0,0.0,0.0,0.0,0.0,0.0,0.0,0.0,0.0,0.0,0.0,0.0,0.0,0.0,0.0,0.0,0.0,0.0,0.0,0.0,0.0,0.0,0.0,0.0,0.0,0.0,0.0,0.0,0.0,0.0,0.0,0.0,0.0,0.0,0.0,0.0,0.0,0.0,0.0,0.0,0.0,0.0,0.0,0.0,0.0,0.0,0.0,0.0,0.0,0.0,0.0,0.0,0.0,0.0,0.0,0.0,0.0,0.0,0.0,0.0,0.0,0.0,0.0,0.0,0.0,0.0,0.0,0.0,0.0,0.0,0.0,0.0,0.0,0.0,0.0,0.0,0.0,0.0,0.0,0.0,0.0,0.0,0.0,0.0,0.0,0.0,0.0,0.0,0.0,0.0,0.0,0.0,0.0,0.0,0.0,0.0,0.0,0.0,0.0,0.0,0.0,0.0,2.5622,2.6496,2.6037,0.0,2.455,0.0,0.0,0.0,0.0,0.0,0.0,0.0,0.0,0.0,0.0,0.0,0.0,0.0,0.0,0.0,0.0,0.0,0.0,0.0,0.0,0.0,0.0,0.0,0.0,0.0,0.0,0.0,0.0,0.0,0.0,0.0,0.0,0.0,0.0,0.0,0.0,0.0,0.0,0.0,0.0,0.0,0.0,0.0,0.0,0.0,0.0,0.0,0.0,0.0,0.0,0.0,0.0,0.0,0.0,0.0,0.0,0.0,0.0,0.0,0.0,0.0,0.0,0.0,0.0,0.0,0.0,0.0,0.0,0.0,0.0,0.0,0.0,0.0,0.0,0.0,0.0,0.0,0.0,0.0,0.0,0.0,0.0,0.0,0.0,0.0,0.0,0.0,0.0,0.0,0.0,0.0,0.0,0.0,0.0,0.0,0.0,0.0,0.0,0.0,0.0,0.0,0.0,0.0,0.0,0.0,0.0,0.0,0.0,0.0,0.0,0.0,2.5774,2.5011,2.427,0.0,0.0,0.0,0.0,0.0,0.0,0.0,0.0,0.0,0.0,0.0,0.0,0.0,0.0,0.0,0.0,0.0,0.0,0.0,0.0,0.0,0.0,0.0,0.0,0.0,0.0,0.0,0.0,0.0,0.0,0.0,0.0,0.0,0.0,0.0,0.0,0.0,0.0,0.0,0.0,0.0,0.0,0.0,0.0,0.0,0.0,0.0,0.0,0.0,0.0,0.0,0.0,0.0,0.0,0.0,0.0,0.0,0.0,0.0,0.0,0.0,0.0,0.0,0.0,0.0,0.0,0.0,0.0,0.0,0.0,0.0,0.0,0.0,0.0,0.0,0.0,0.0,0.0,0.0,0.0,0.0,0.0,0.0,0.0,0.0,0.0,0.0,0.0,0.0,0.0,0.0,0.0,0.0,0.0,0.0,0.0,0.0,0.0,0.0,0.0,0.0,0.0,0.0,0.0,0.0,0.0,0.0,0.0,0.0,0.0,2.5206,0.0,2.5337,2.4574,2.3831,2.3201,0.0,0.0,0.0,0.0,0.0,0.0,0.0,0.0,0.0,0.0,0.0,0.0,0.0,0.0,0.0,0.0,0.0,0.0,0.0,0.0,0.0,0.0,0.0,0.0,0.0,0.0,0.0,0.0,0.0,0.0,0.0,0.0,0.0,0.0,0.0,0.0,0.0,0.0,0.0,0.0,0.0,0.0,0.0,0.0,0.0,0.0,0.0,0.0,0.0,0.0,0.0,0.0,0.0,0.0,0.0,0.0,0.0,0.0,0.0,0.0,0.0,0.0,0.0,0.0,0.0,0.0,0.0,0.0,0.0,0.0,0.0,0.0,0.0,0.0,0.0,0.0,0.0,0.0,0.0,0.0,0.0,0.0,0.0,0.0,0.0,0.0,0.0,0.0,0.0,0.0,0.0,0.0,0.0,0.0,0.0,0.0,0.0,0.0,0.0,0.0,0.0,0.0,0.0,0.0,0.0,0.0,0.0,0.0,0.0,2.5207,2.4945,2.584,2.536,2.4661,0.0,0.0,0.0,0.0,0.0,0.0,0.0,0.0,0.0,0.0,0.0,0.0,0.0,0.0,0.0,0.0,0.0,0.0,0.0,0.0,0.0,0.0,0.0,0.0,0.0,0.0,0.0,0.0,0.0,0.0,0.0,0.0,0.0,0.0,0.0,0.0,0.0,0.0,0.0,0.0,0.0,0.0,0.0,0.0,0.0,0.0,0.0,0.0,0.0,0.0,0.0,0.0,0.0,0.0,0.0,0.0,0.0,0.0,0.0,0.0,0.0,0.0,0.0,0.0,0.0,0.0,0.0,0.0,0.0,0.0,0.0,0.0,0.0,0.0,0.0,0.0,0.0,0.0,0.0,0.0,0.0,0.0,0.0,0.0,0.0,0.0,0.0,0.0,0.0,0.0,0.0,0.0,0.0,0.0,0.0,0.0,0.0,0.0,0.0,0.0,0.0,0.0,0.0,0.0,0.0,0.0,0.0,0.0,0.0,2.4707,2.4248,2.4677,2.5963,2.4305,2.3363,0.0,0.0,0.0,0.0,0.0,0.0,0.0,0.0,0.0,0.0,0.0,0.0,0.0,0.0,0.0,0.0,0.0,0.0,0.0,0.0,0.0,0.0,0.0,0.0,0.0,0.0,0.0,0.0,0.0,0.0,0.0,0.0,0.0,0.0,0.0,0.0,0.0,0.0,0.0,0.0,0.0,0.0,0.0,0.0,0.0,0.0,0.0,0.0,0.0,0.0,0.0,0.0,0.0,0.0,0.0,0.0,0.0,0.0,0.0,0.0,0.0,0.0,0.0,0.0,0.0,0.0,0.0,0.0,0.0,0.0,0.0,0.0,0.0,0.0,0.0,0.0,0.0,0.0,0.0,0.0,0.0,0.0,0.0,0.0,0.0,0.0,0.0,0.0,0.0,0.0,0.0,0.0,0.0,0.0,0.0,0.0,0.0,0.0,0.0,0.0,0.0,0.0,0.0,0.0,0.0,0.0,0.0,0.0,0.0,2.3943,0.0,2.483,0.0,2.3952,2.2926,0.0,0.0,0.0,0.0,0.0,0.0,0.0,0.0,0.0,0.0,0.0,0.0,0.0,0.0,0.0,0.0,0.0,0.0,0.0,0.0,0.0,0.0,0.0,0.0,0.0,0.0,0.0,0.0,0.0,0.0,0.0,0.0,0.0,0.0,0.0,0.0,0.0,0.0,0.0,0.0,0.0,0.0,0.0,0.0,0.0,0.0,0.0,0.0,0.0,0.0,0.0,0.0,0.0,0.0,0.0,0.0,0.0,0.0,0.0,0.0,0.0,0.0,0.0,0.0,0.0,0.0,0.0,0.0,0.0,0.0,0.0,0.0,0.0,0.0,0.0,0.0,0.0,0.0,0.0,0.0,0.0,0.0,0.0,0.0,0.0,0.0,0.0,0.0,0.0,0.0,0.0,0.0,0.0,0.0,0.0,0.0,0.0,0.0,0.0,0.0,0.0,0.0,0.0,0.0,0.0,0.0,0.0,0.0,2.3984,2.4484,2.536,2.5424,2.4572,2.4463,2.3566,0.0,0.0,0.0,0.0,0.0,0.0,0.0,0.0,0.0,0.0,0.0,0.0,0.0,0.0,0.0,0.0,0.0,0.0,0.0,0.0,0.0,0.0,0.0,0.0,0.0,0.0,0.0,0.0,0.0,0.0,0.0,0.0,0.0,0.0,0.0,0.0,0.0,0.0,0.0,0.0,0.0,0.0,0.0,0.0,0.0,0.0,0.0,0.0,0.0,0.0,0.0,0.0,0.0,0.0,0.0,0.0,0.0,0.0,0.0,0.0,0.0,0.0,0.0,0.0,0.0,0.0,0.0,0.0,0.0,0.0,0.0,0.0,0.0,0.0,0.0,0.0,0.0,0.0,0.0,0.0,0.0,0.0,0.0,0.0,0.0,0.0,0.0,0.0,0.0,0.0,0.0,0.0,0.0,0.0,0.0,0.0,0.0,0.0,0.0,0.0,0.0,0.0,0.0,0.0,0.0,0.0,0.0,0.0,0.0,2.3987,2.4902,2.5508,2.561,2.4237,2.3558,0.0,0.0,0.0,0.0,0.0,0.0,0.0,0.0,0.0,0.0,0.0,0.0,0.0,0.0,0.0,0.0,0.0,0.0,0.0,0.0,0.0,0.0,0.0,0.0,0.0,0.0,0.0,0.0,0.0,0.0,0.0,0.0,0.0,0.0,0.0,0.0,0.0,0.0,0.0,0.0,0.0,0.0,0.0,0.0,0.0,0.0,0.0,0.0,0.0,0.0,0.0,0.0,0.0,0.0,0.0,0.0,0.0,0.0,0.0,0.0,0.0,0.0,0.0,0.0,0.0,0.0,0.0,0.0,0.0,0.0,0.0,0.0,0.0,0.0,0.0,0.0,0.0,0.0,0.0,0.0,0.0,0.0,0.0,0.0,0.0,0.0,0.0,0.0,0.0,0.0,0.0,0.0,0.0,0.0,0.0,0.0,0.0,0.0,0.0,0.0,0.0,0.0,0.0,0.0,0.0,0.0,0.0,0.0,0.0,2.5341,2.5907,2.6427,2.6793,2.5022,2.4105,2.4109,0.0,0.0,0.0,0.0,0.0,0.0,0.0,0.0,0.0,0.0,0.0,0.0,0.0,0.0,0.0,0.0,0.0,0.0,0.0,0.0,0.0,0.0,0.0,0.0,0.0,0.0,0.0,0.0,0.0,0.0,0.0,0.0,0.0,0.0,0.0,0.0,0.0,0.0,0.0,0.0,0.0,0.0,0.0,0.0,0.0,0.0,0.0,0.0,0.0,0.0,0.0,0.0,0.0,0.0,0.0,0.0,0.0,0.0,0.0,0.0,0.0,0.0,0.0,0.0,0.0,0.0,0.0,0.0,0.0,0.0,0.0,0.0,0.0,0.0,0.0,0.0,0.0,0.0,0.0,0.0,0.0,0.0,0.0,0.0,0.0,0.0,0.0,0.0,0.0,0.0,0.0,0.0,0.0,0.0,0.0,0.0,0.0,0.0,0.0,0.0,0.0,0.0,0.0,0.0,0.0,0.0,0.0,0.0,2.8155,2.8243,2.816,2.7944,2.6646,2.512,0.0,0.0,0.0,0.0,0.0,0.0,0.0,0.0,0.0,0.0,0.0,0.0,0.0,0.0,0.0,0.0,0.0,0.0,0.0,0.0,0.0,0.0,0.0,0.0,0.0,0.0,0.0,0.0,0.0,0.0,0.0,0.0,0.0,0.0,0.0,0.0,0.0,0.0,0.0,0.0,0.0,0.0,0.0,0.0,0.0,0.0,0.0,0.0,0.0,0.0,0.0,0.0,0.0,0.0,0.0,0.0,0.0,0.0,0.0,0.0,0.0,0.0,0.0,0.0,0.0,0.0,0.0,0.0,0.0,0.0,0.0,0.0,0.0,0.0,0.0,0.0,0.0,0.0,0.0,0.0,0.0,0.0,0.0,0.0,0.0,0.0,0.0,0.0,0.0,0.0,0.0,0.0,0.0,0.0,0.0,0.0,0.0,0.0,0.0,0.0,0.0,0.0,0.0,0.0,0.0,0.0,0.0,0.0,0.0,3.0416,3.0965,3.0715,2.9584,2.7851,2.654,0.0,0.0,0.0,0.0,0.0,0.0,0.0,0.0,0.0,0.0,0.0,0.0,0.0,0.0,0.0,0.0,0.0,0.0,0.0,0.0,0.0,0.0,0.0,0.0,0.0,0.0,0.0,0.0,0.0,0.0,0.0,0.0,0.0,0.0,0.0,0.0,0.0,0.0,0.0,0.0,0.0,0.0,0.0,0.0,0.0,0.0,0.0,0.0,0.0,0.0,0.0,0.0,0.0,0.0,0.0,0.0,0.0,0.0,0.0,0.0,0.0,0.0,0.0,0.0,0.0,0.0,0.0,0.0,0.0,0.0,0.0,0.0,0.0,0.0,0.0,0.0,0.0,0.0,0.0,0.0,0.0,0.0,0.0,0.0,0.0,0.0,0.0,0.0,0.0,0.0,0.0,0.0,0.0,0.0,0.0,0.0,0.0,0.0,0.0,0.0,0.0,0.0,0.0,0.0,0.0,0.0,0.0,0.0,2.9693,3.2064,3.3287,3.3316,3.2066,2.9947,2.8314,0.0,0.0,0.0,0.0,0.0,0.0,0.0,0.0,0.0,0.0,0.0,0.0,0.0,0.0,0.0,0.0,0.0,0.0,0.0,0.0,0.0,0.0,0.0,0.0,0.0,0.0,0.0,0.0,0.0,0.0,0.0,0.0,0.0,0.0,0.0,0.0,0.0,0.0,0.0,0.0,0.0,0.0,0.0,0.0,0.0,0.0,0.0,0.0,0.0,0.0,0.0,0.0,0.0,0.0,0.0,0.0,0.0,0.0,0.0,0.0,0.0,0.0,0.0,0.0,0.0,0.0,0.0,0.0,0.0,0.0,0.0,0.0,0.0,0.0,0.0,0.0,0.0,0.0,0.0,0.0,0.0,0.0,0.0,0.0,0.0,0.0,0.0,0.0,0.0,0.0,0.0,0.0,0.0,0.0,0.0,0.0,0.0,0.0,0.0,0.0,0.0,0.0,0.0,0.0,0.0,0.0,0.0,0.0,3.1236,3.3207,3.5043,3.5612,3.4737,3.2285,3.0099,0.0,0.0,0.0,0.0,0.0,0.0,0.0,0.0,0.0,0.0,0.0,0.0,0.0,0.0,0.0,0.0,0.0,0.0,0.0,0.0,0.0,0.0,0.0,0.0,0.0,0.0,0.0,0.0,0.0,0.0,0.0,0.0,0.0,0.0,0.0,0.0,0.0,0.0,0.0,0.0,0.0,0.0,0.0,0.0,0.0,0.0,0.0,0.0,0.0,0.0,0.0,0.0,0.0,0.0,0.0,0.0,0.0,0.0,0.0,0.0,0.0,0.0,0.0,0.0,0.0,0.0,0.0,0.0,0.0,0.0,0.0,0.0,0.0,0.0,0.0,0.0,0.0,0.0,0.0,0.0,0.0,0.0,0.0,0.0,0.0,0.0,0.0,0.0,0.0,0.0,0.0,0.0,0.0,0.0,0.0,0.0,0.0,0.0,0.0,0.0,0.0,0.0,0.0,0.0,0.0,0.0,0.0,0.0,3.187,3.4135,3.5393,3.6158,3.6538,3.3244,3.0565,0.0,0.0,0.0,0.0,0.0,0.0,0.0,0.0,0.0,0.0,0.0,0.0,0.0,0.0,0.0,0.0,0.0,0.0,0.0,0.0,0.0,0.0,0.0,0.0,0.0,0.0,0.0,0.0,0.0,0.0,0.0,0.0,0.0,0.0,0.0,0.0,0.0,0.0,0.0,0.0,0.0,0.0,0.0,0.0,0.0,0.0,0.0,0.0,2.8138,0.0,0.0,0.0,0.0,0.0,0.0,0.0,0.0,0.0,0.0,0.0,0.0,0.0,0.0,0.0,0.0,0.0,0.0,0.0,0.0,0.0,0.0,0.0,0.0,0.0,0.0,0.0,0.0,0.0,0.0,0.0,0.0,0.0,0.0,0.0,0.0,0.0,0.0,0.0,0.0,0.0,0.0,0.0,0.0,0.0,0.0,0.0,0.0,0.0,0.0,0.0,0.0,0.0,0.0,0.0,0.0,0.0,0.0,0.0,3.301,3.5146,3.6158,3.6742,3.6817,3.4328,3.2082,0.0,0.0,0.0,0.0,0.0,0.0,0.0,0.0,0.0,0.0,0.0,0.0,0.0,0.0,0.0,0.0,0.0,0.0,0.0,0.0,0.0,0.0,0.0,0.0,0.0,0.0,0.0,0.0,0.0,0.0,0.0,0.0,0.0,0.0,0.0,0.0,0.0,0.0,0.0,0.0,0.0,0.0,0.0,0.0,0.0,0.0,0.0,0.0,0.0,0.0,0.0,0.0,0.0,0.0,0.0,0.0,0.0,0.0,0.0,0.0,0.0,0.0,0.0,0.0,0.0,0.0,0.0,0.0,0.0,0.0,0.0,0.0,0.0,0.0,0.0,0.0,0.0,0.0,0.0,0.0,0.0,0.0,0.0,0.0,0.0,0.0,0.0,0.0,0.0,0.0,0.0,0.0,0.0,0.0,0.0,0.0,0.0,0.0,0.0,0.0,0.0,0.0,0.0,0.0,0.0,0.0,0.0,3.1794,3.4021,3.6027,3.6967,3.7229,3.6784,3.5358,3.3675,3.1753,0.0,0.0,0.0,0.0,0.0,0.0,0.0,0.0,0.0,0.0,0.0,0.0,0.0,0.0,0.0,0.0,0.0,0.0,0.0,0.0,0.0,0.0,0.0,0.0,0.0,0.0,0.0,0.0,0.0,0.0,0.0,0.0,0.0,0.0,0.0,0.0,0.0,0.0,2.7808,2.901,0.0,0.0,0.0,0.0,0.0,0.0,0.0,0.0,2.8912,0.0,0.0,0.0,0.0,0.0,0.0,0.0,0.0,0.0,0.0,0.0,0.0,0.0,0.0,0.0,0.0,0.0,0.0,0.0,0.0,0.0,0.0,0.0,0.0,0.0,0.0,0.0,0.0,0.0,0.0,0.0,0.0,0.0,0.0,0.0,0.0,0.0,0.0,0.0,0.0,0.0,0.0,0.0,0.0,0.0,0.0,0.0,0.0,0.0,0.0,0.0,0.0,0.0,0.0,0.0,0.0,3.1742,3.2449,3.401,3.65,3.7142,3.7382,3.7273,3.5867,3.3994,3.171,0.0,0.0,0.0,0.0,0.0,0.0,0.0,0.0,0.0,0.0,0.0,0.0,0.0,0.0,0.0,0.0,0.0,0.0,0.0,0.0,0.0,0.0,0.0,0.0,0.0,0.0,0.0,0.0,0.0,0.0,0.0,0.0,0.0,0.0,0.0,0.0,0.0,0.0,0.0,3.1011,3.1476,0.0,0.0,0.0,0.0,0.0,0.0,0.0,0.0,3.0067,0.0,0.0,0.0,0.0,0.0,0.0,0.0,0.0,0.0,0.0,0.0,0.0,0.0,0.0,0.0,0.0,0.0,0.0,0.0,0.0,0.0,0.0,0.0,0.0,0.0,0.0,0.0,0.0,0.0,0.0,0.0,0.0,0.0,0.0,0.0,0.0,0.0,0.0,0.0,0.0,0.0,0.0,0.0,0.0,0.0,0.0,0.0,0.0,0.0,0.0,0.0,0.0,0.0,0.0,0.0,3.1724,3.312,3.4856,3.6959,3.6933,3.6972,3.708,3.5122,3.3241,0.0,0.0,0.0,0.0,0.0,0.0,0.0,0.0,0.0,0.0,0.0,0.0,0.0,0.0,0.0,0.0,0.0,0.0,0.0,0.0,0.0,0.0,0.0,0.0,0.0,0.0,0.0,0.0,0.0,0.0,0.0,0.0,0.0,0.0,0.0,0.0,0.0,0.0,0.0,0.0,3.1969,3.2372,3.3355,0.0,0.0,0.0,0.0,0.0,0.0,3.0656,3.0559,0.0,0.0,0.0,0.0,0.0,0.0,0.0,0.0,0.0,0.0,0.0,0.0,0.0,0.0,0.0,0.0,0.0,0.0,0.0,0.0,0.0,0.0,0.0,0.0,0.0,0.0,0.0,0.0,0.0,0.0,0.0,0.0,0.0,0.0,0.0,0.0,0.0,0.0,0.0,0.0,0.0,0.0,0.0,0.0,0.0,0.0,0.0,0.0,0.0,0.0,0.0,0.0,0.0,0.0,0.0,3.1366,3.3626,3.5619,3.7227,3.6796,3.6621,3.6767,3.4396,3.2516,0.0,0.0,0.0,0.0,0.0,0.0,0.0,0.0,0.0,0.0,0.0,0.0,0.0,0.0,0.0,0.0,0.0,0.0,0.0,0.0,0.0,0.0,0.0,0.0,0.0,0.0,0.0,0.0,0.0,0.0,0.0,0.0,0.0,0.0,0.0,0.0,0.0,0.0,0.0,0.0,0.0,3.336,3.4415,3.3263,0.0,0.0,0.0,0.0,3.1162,3.1841,0.0,0.0,0.0,0.0,0.0,0.0,0.0,0.0,0.0,0.0,0.0,0.0,0.0,0.0,0.0,0.0,0.0,0.0,0.0,0.0,0.0,0.0,0.0,0.0,0.0,0.0,0.0,0.0,0.0,0.0,0.0,0.0,0.0,0.0,0.0,0.0,0.0,0.0,0.0,0.0,0.0,0.0,0.0,0.0,0.0,0.0,0.0,0.0,0.0,0.0,0.0,0.0,0.0,0.0,0.0,0.0,3.1667,3.3652,3.5446,3.7026,3.704,3.6848,3.6453,3.455,3.2678,0.0,0.0,0.0,0.0,0.0,0.0,0.0,0.0,0.0,0.0,0.0,0.0,0.0,0.0,0.0,0.0,0.0,0.0,0.0,0.0,0.0,0.0,0.0,0.0,0.0,0.0,0.0,0.0,0.0,0.0,0.0,0.0,0.0,0.0,0.0,0.0,0.0,0.0,0.0,0.0,0.0,3.4881,3.4863,3.392,3.3272,0.0,0.0,3.3827,3.3994,3.5709,0.0,0.0,0.0,0.0,0.0,0.0,0.0,0.0,0.0,0.0,0.0,0.0,0.0,0.0,0.0,0.0,0.0,0.0,0.0,0.0,0.0,0.0,0.0,0.0,0.0,0.0,0.0,0.0,0.0,0.0,0.0,0.0,0.0,0.0,0.0,0.0,0.0,0.0,0.0,0.0,0.0,0.0,0.0,0.0,0.0,0.0,0.0,0.0,0.0,0.0,0.0,0.0,0.0,0.0,0.0,2.9359,3.2009,3.4204,3.6046,3.7402,3.7118,3.6792,3.6517,3.4022,3.2001,0.0,0.0,0.0,0.0,0.0,0.0,0.0,0.0,0.0,0.0,0.0,0.0,0.0,0.0,0.0,0.0,0.0,0.0,0.0,0.0,0.0,0.0,0.0,0.0,0.0,0.0,0.0,0.0,0.0,0.0,0.0,0.0,0.0,0.0,0.0,0.0,0.0,0.0,0.0,0.0,0.0,0.0,3.6216,3.5826,0.0,0.0,0.0,3.5865,3.54,0.0,0.0,0.0,0.0,0.0,0.0,0.0,0.0,0.0,0.0,0.0,0.0,0.0,0.0,0.0,0.0,0.0,0.0,0.0,0.0,0.0,0.0,0.0,0.0,0.0,0.0,0.0,0.0,0.0,0.0,0.0,0.0,0.0,0.0,0.0,0.0,0.0,0.0,0.0,0.0,0.0,0.0,0.0,0.0,0.0,0.0,0.0,0.0,0.0,0.0,0.0,0.0,0.0,0.0,0.0,0.0,0.0,3.2066,3.4745,3.6635,3.7656,3.7249,3.6829,3.6447,3.3921,0.0,0.0,0.0,0.0,0.0,0.0,0.0,0.0,0.0,0.0,0.0,0.0,0.0,0.0,0.0,0.0,0.0,0.0,0.0,0.0,0.0,0.0,0.0,0.0,0.0,0.0,0.0,2.2584,0.0,0.0,0.0,0.0,0.0,0.0,0.0,0.0,0.0,0.0,0.0,0.0,0.0,0.0,3.6318,3.7517,3.7673,3.7849,0.0,0.0,3.7945,3.718,3.8407,3.8235,0.0,0.0,0.0,0.0,0.0,0.0,0.0,0.0,0.0,0.0,0.0,0.0,0.0,0.0,0.0,0.0,0.0,0.0,0.0,0.0,0.0,0.0,0.0,0.0,0.0,0.0,0.0,0.0,0.0,0.0,0.0,0.0,0.0,0.0,0.0,0.0,0.0,0.0,0.0,0.0,0.0,0.0,0.0,0.0,0.0,0.0,0.0,0.0,0.0,0.0,0.0,0.0,0.0,0.0,0.0,3.177,3.5031,3.7014,3.7512,3.7479,3.7011,3.6153,3.4723,3.2527,0.0,0.0,0.0,0.0,0.0,0.0,0.0,0.0,0.0,0.0,0.0,0.0,0.0,0.0,0.0,0.0,0.0,0.0,0.0,0.0,0.0,0.0,0.0,0.0,0.0,0.0,0.0,0.0,0.0,0.0,0.0,0.0,0.0,0.0,0.0,0.0,0.0,0.0,0.0,0.0,0.0,3.7079,3.827,3.9004,3.9907,0.0,0.0,4.0104,4.0028,4.1963,4.168,3.6362,0.0,0.0,0.0,0.0,0.0,0.0,0.0,0.0,0.0,0.0,0.0,0.0,0.0,0.0,0.0,0.0,0.0,0.0,0.0,0.0,0.0,0.0,0.0,0.0,0.0,0.0,0.0,0.0,0.0,0.0,0.0,0.0,0.0,0.0,0.0,0.0,0.0,0.0,0.0,0.0,0.0,0.0,0.0,0.0,0.0,0.0,0.0,0.0,0.0,0.0,0.0,0.0,0.0,3.0115,3.2155,3.579,3.7881,3.8282,3.8303,3.7868,3.6991,3.5625,3.3555,0.0,0.0,0.0,0.0,0.0,0.0,0.0,0.0,0.0,0.0,0.0,0.0,0.0,0.0,0.0,0.0,0.0,0.0,0.0,0.0,0.0,0.0,0.0,0.0,0.0,0.0,0.0,0.0,2.693,2.7436,2.7898,0.0,0.0,0.0,0.0,0.0,0.0,0.0,0.0,0.0,0.0,3.8543,4.0607,4.1154,0.0,0.0,4.266,4.1961,4.1634,4.1874,4.088,3.7276,3.576,0.0,0.0,0.0,0.0,0.0,0.0,0.0,0.0,0.0,0.0,0.0,0.0,0.0,0.0,0.0,0.0,0.0,0.0,0.0,0.0,0.0,0.0,0.0,0.0,0.0,0.0,0.0,0.0,0.0,0.0,0.0,0.0,0.0,0.0,0.0,0.0,0.0,0.0,0.0,0.0,0.0,0.0,0.0,0.0,0.0,0.0,0.0,0.0,0.0,0.0,0.0,0.0,3.0488,3.2483,3.6257,3.846,3.9006,3.9027,3.8592,3.7715,3.6618,3.4631,0.0,0.0,0.0,0.0,0.0,0.0,0.0,0.0,0.0,0.0,0.0,0.0,0.0,0.0,0.0,0.0,0.0,0.0,0.0,0.0,0.0,0.0,0.0,0.0,0.0,0.0,0.0,0.0,2.8513,2.8778,2.9325,0.0,0.0,0.0,0.0,0.0,0.0,0.0,0.0,0.0,0.0,4.0265,4.2482,4.2948,4.3482,4.4573,4.3736,4.2813,4.2429,4.1983,4.0815,3.835,0.0,0.0,0.0,0.0,0.0,0.0,0.0,0.0,0.0,0.0,0.0,0.0,0.0,0.0,0.0,0.0,0.0,0.0,0.0,0.0,0.0,0.0,0.0,0.0,0.0,0.0,0.0,2.7282,0.0,0.0,2.6584,0.0,0.0,0.0,0.0,0.0,0.0,0.0,0.0,0.0,0.0,0.0,0.0,0.0,0.0,0.0,0.0,0.0,0.0,0.0,0.0,0.0,0.0,3.0884,3.2727,3.637,3.8647,3.9461,3.9502,3.9068,3.8212,3.7695,3.5749,3.2098,0.0,0.0,0.0,0.0,0.0,0.0,0.0,0.0,0.0,0.0,0.0,0.0,0.0,0.0,0.0,0.0,0.0,0.0,0.0,0.0,0.0,0.0,0.0,0.0,0.0,0.0,2.8497,2.8182,2.8334,0.0,0.0,0.0,0.0,0.0,0.0,0.0,0.0,0.0,0.0,3.9547,4.2119,4.3473,4.414,4.4661,4.5072,4.3613,4.2429,4.2464,4.2791,4.226,0.0,0.0,0.0,0.0,0.0,0.0,0.0,0.0,0.0,0.0,0.0,0.0,0.0,0.0,0.0,0.0,0.0,0.0,0.0,0.0,0.0,0.0,0.0,0.0,0.0,0.0,0.0,3.0576,2.9596,0.0,0.0,0.0,0.0,0.0,0.0,0.0,0.0,0.0,0.0,0.0,3.3898,3.3854,0.0,0.0,0.0,0.0,0.0,0.0,0.0,0.0,0.0,0.0,0.0,0.0,3.1505,3.3658,3.7186,3.9337,3.9937,3.9957,3.9668,3.9068,3.8357,3.6101,3.214,0.0,0.0,0.0,0.0,0.0,0.0,0.0,0.0,0.0,0.0,0.0,0.0,0.0,0.0,0.0,0.0,0.0,0.0,0.0,0.0,0.0,0.0,0.0,0.0,0.0,2.9723,0.0,0.0,0.0,0.0,0.0,0.0,0.0,0.0,0.0,0.0,0.0,3.6129,3.7846,4.0192,4.2226,4.3657,4.4274,4.4968,0.0,0.0,0.0,0.0,0.0,0.0,0.0,0.0,0.0,0.0,0.0,0.0,0.0,0.0,4.136,3.5976,3.5181,3.5319,3.5262,0.0,0.0,0.0,0.0,0.0,0.0,0.0,0.0,0.0,0.0,0.0,0.0,0.0,0.0,3.3049,3.1921,3.1884,0.0,0.0,0.0,0.0,0.0,0.0,0.0,0.0,3.5307,3.6468,3.6928,3.6831,3.6454,0.0,3.4419,3.2051,0.0,0.0,0.0,0.0,0.0,0.0,0.0,0.0,3.2437,3.459,3.815,4.0158,4.0448,4.0613,4.0406,3.9751,3.8585,3.6535,3.3525,3.1519,2.9518,0.0,0.0,0.0,0.0,0.0,0.0,0.0,0.0,0.0,0.0,0.0,0.0,0.0,0.0,0.0,0.0,0.0,0.0,0.0,0.0,0.0,0.0,0.0,3.077,0.0,0.0,0.0,0.0,0.0,0.0,0.0,0.0,0.0,3.4666,3.6675,3.8794,4.0367,4.2092,4.3438,4.4192,0.0,0.0,0.0,0.0,0.0,0.0,0.0,4.2017,4.1808,4.1604,4.1704,4.2607,4.4713,4.6002,4.5019,0.0,0.0,3.9952,3.9209,3.9427,3.9427,3.9799,4.0323,4.0968,4.1461,4.1898,0.0,0.0,0.0,0.0,0.0,0.0,0.0,0.0,3.5553,3.5176,0.0,3.4268,0.0,0.0,0.0,0.0,3.1988,3.4524,0.0,0.0,3.9406,4.0241,3.9068,3.9461,3.9226,3.8378,3.8308,3.7106,3.4806,3.0926,0.0,0.0,0.0,0.0,0.0,0.0,3.367,3.5552,3.9061,4.0918,4.098,4.1374,4.1131,4.0185,3.8523,3.7156,3.6142,3.4001,3.2023,3.0201,2.8404,0.0,0.0,0.0,0.0,0.0,0.0,0.0,0.0,0.0,0.0,0.0,0.0,0.0,0.0,0.0,0.0,0.0,0.0,0.0,0.0,3.211,0.0,0.0,0.0,0.0,0.0,0.0,0.0,0.0,0.0,0.0,3.7689,3.9614,4.1743,4.3534,0.0,0.0,0.0,0.0,4.5632,4.4727,4.3877,4.346,4.3525,4.4539,4.5194,4.4779,0.0,0.0,4.6417,4.7378,4.7815,4.5959,4.7231,4.7881,4.6461,4.5194,4.4582,4.4604,4.4277,4.4269,4.4706,4.4968,4.5085,3.8963,0.0,0.0,0.0,0.0,3.6895,3.8002,3.9885,3.9526,3.8828,3.7901,3.7321,0.0,0.0,0.0,0.0,0.0,0.0,3.774,3.9081,4.1022,4.2166,4.2745,4.287,4.2621,4.2042,4.1104,4.0131,3.9095,3.6938,3.3381,2.8607,0.0,0.0,0.0,0.0,3.5397,3.7786,3.9847,4.1229,4.1892,4.1705,4.1131,4.0226,3.9688,3.8841,3.7632,3.6328,3.4797,3.3004,3.1201,0.0,0.0,0.0,0.0,0.0,0.0,0.0,0.0,0.0,0.0,0.0,0.0,0.0,0.0,0.0,0.0,0.0,0.0,0.0,3.1669,3.2086,3.2219,0.0,0.0,0.0,0.0,0.0,0.0,0.0,0.0,0.0,4.2365,4.233,4.231,0.0,0.0,4.4359,4.3815,4.4772,4.5921,4.6968,4.6908,0.0,4.8121,4.7488,4.7051,4.7575,4.8826,4.979,5.0071,5.0759,5.1176,5.0922,5.1106,5.1198,5.1053,4.8929,4.74,4.7575,4.7815,4.8252,4.9017,4.9475,4.9737,4.3318,4.0694,3.9291,3.9312,4.0278,4.0332,4.1425,4.3173,4.294,4.2269,4.1364,4.0862,3.9247,3.6899,3.5904,0.0,0.0,0.0,3.9909,4.1855,4.2683,4.3615,4.4526,4.4567,4.4422,4.4112,4.3139,4.2451,4.1938,4.0593,3.76,3.3174,0.0,0.0,3.2892,3.5055,3.7198,3.9296,4.0903,4.1876,4.2285,4.2016,4.1622,4.1069,4.0862,4.0282,3.9288,3.8378,3.7218,3.578,3.3998,3.2079,0.0,0.0,0.0,0.0,0.0,0.0,0.0,0.0,0.0,0.0,0.0,2.9149,0.0,0.0,0.0,0.0,3.0622,3.2263,3.3454,3.359,0.0,0.0,0.0,0.0,0.0,0.0,0.0,3.9272,4.12,4.3105,4.4866,4.4638,4.4427,4.4731,4.5148,4.5266,4.4968,0.0,4.6936,4.8032,4.8338,4.8826,4.9847,4.9412,4.9198,4.9927,5.067,5.1316,5.1959,5.2455,5.2862,5.3059,5.2799,5.2604,5.2887,5.1094,4.9751,5.0218,5.0728,5.112,5.1393,5.1909,5.2232,4.6906,4.6245,4.2973,4.2228,4.3225,4.3698,4.4381,4.5229,4.5602,4.5312,4.4526,4.4443,4.2973,4.0433,3.8792,0.0,4.053,4.1027,4.2393,4.4401,4.4443,4.4712,4.5147,4.5126,4.5105,4.5084,4.4629,4.4174,4.3677,4.2493,4.0944,3.9158,3.7476,3.6535,3.637,3.7653,3.9033,4.0344,4.2,4.2683,4.2348,4.2348,4.2306,4.2223,4.183,4.1374,4.0882,4.0019,3.9171,3.8357,3.6577,3.4746,3.2967,0.0,0.0,0.0,0.0,0.0,0.0,0.0,0.0,0.0,0.0,0.0,0.0,0.0,0.0,0.0,3.2886,0.0,3.6519,3.6043,0.0,0.0,0.0,3.6504,3.7878,3.9773,4.1274,4.2173,0.0,0.0,4.583,4.6629,4.7432,4.8366,4.7941,4.7559,4.7557,4.7939,4.8344,4.851,4.892,4.9379,5.0111,5.0712,5.1316,5.1828,5.2271,5.2462,5.2592,5.2824,5.3098,5.3166,5.2824,5.2547,5.2547,5.2102,5.1976,5.2282,5.2736,5.2823,5.2151,5.2563,5.2888,4.8521,4.8376,4.79,4.7071,4.6038,4.6141,4.6533,4.701,4.6803,4.6555,4.6307,4.5664,4.4608,4.3304,4.287,4.2911,4.3366,4.4174,4.4836,4.5374,4.5666,4.6058,4.6493,4.6141,4.5976,4.5955,4.5561,4.5126,4.467,4.4339,4.3594,4.2497,4.1653,4.0096,3.7839,3.9061,4.0406,4.1788,4.2223,4.2538,4.2745,4.2766,4.2435,4.1788,4.1664,4.1395,4.0882,4.033,3.9937,3.9688,3.7984,3.6308,3.4808,3.1934,0.0,0.0,0.0,0.0,0.0,0.0,0.0,0.0,0.0,3.1338,2.8227,0.0,3.222,0.0,3.3654,3.5711,3.7272,3.7371,0.0,0.0,3.9724,4.0267,4.1528,4.2914,4.4078,4.4743,4.5725,4.6865,4.8149,4.8482,4.8877,4.9775,4.8882,4.808,4.8049,4.8774,4.9596,5.0273,5.1017,5.1807,5.2191,5.2532,5.2808,5.3336,5.2917,5.2719,5.3459,5.3065,5.2761,5.3096,5.2832,5.2658,5.2926,5.2642,5.24,5.2468,5.2613,5.2728,5.2804,5.3067,5.3111,4.9102,4.9122,4.9392,4.8873,4.7982,4.8355,4.8644,4.8873,4.8602,4.8314,4.7816,4.6086,4.5028,4.4561,4.4358,4.4697,4.55,4.6057,4.6389,4.6596,4.6823,4.7092,4.732,4.7072,4.6906,4.6927,4.6492,4.6057,4.5602,4.5395,4.4919,4.4236,4.3967,4.287,4.0986,4.0862,4.1296,4.2285,4.2493,4.2766,4.3201,4.3221,4.2807,4.1954,4.1912,4.1415,4.0323,3.9999,3.9709,3.9309,3.815,3.6949,3.5749,3.3285,3.1257,0.0,0.0,0.0,0.0,0.0,0.0,0.0,0.0,0.0,0.0,0.0,3.3817,3.4299,3.5894,3.7568,3.9172,3.965,4.0424,4.184,4.2507,4.3264,4.4298,4.5595,4.6591,4.7154,4.7982,4.8893,4.9845,4.997,5.0218,5.0943,5.0352,4.9757,4.9594,4.9989,5.0572,5.1316,5.202,5.2684,5.3104,5.3168,5.3291,5.3464,5.2985,5.2685,5.3163,5.2692,5.2288,5.2489,5.2545,5.2517,5.2575,5.2566,5.2448,5.2218,5.2168,5.2284,5.2515,5.2917,5.3096,4.9288,4.9245,4.9114,4.9069,4.9131,4.9735,5.0134,5.0342,5.0342,4.9928,4.9099,4.6558,4.5451,4.5412,4.4872,4.5532,4.7072,4.7072,4.732,4.7672,4.7672,4.7755,4.7775,4.7713,4.7713,4.7755,4.7279,4.6844,4.6389,4.6037,4.5602,4.5105,4.5022,4.4753,4.4256,4.2663,4.2058,4.2472,4.2828,4.3201,4.3594,4.3491,4.3014,4.2161,4.2058,4.1193,3.9502,3.942,3.9047,3.8316,3.7881,3.7301,3.6473,3.4672,3.3285,0.0,3.1567,0.0,0.0,0.0,0.0,0.0,0.0,0.0,0.0,3.49,3.6174,3.7994,3.8979,4.0124,4.1635,4.2474,4.3218,4.3987,4.4981,4.5892,4.6617,4.7858,4.881,4.933,5.0032,5.0673,5.1087,5.1253,5.1439,5.1791,5.1874,5.1712,5.1419,5.1318,5.1463,5.1915,5.2319,5.2779,5.3114,5.3198,5.3228,5.3234,5.2934,5.2619,5.2748,5.2375,5.2044,5.2085,5.2375,5.2479,5.204,5.2375,5.2479,5.2168,5.2068,5.1965,5.1948,5.2423,5.2692,5.0156,5.0066,4.9288,4.8937,4.8887,4.8222,4.8667,4.993,4.993,4.999,5.0073,4.8843,4.8325,4.8264,4.74,4.7216,4.7568,4.7568,4.761,4.7672,4.7672,4.7921,4.8252,4.7858,4.7879,4.8252,4.7775,4.7341,4.6865,4.6782,4.6368,4.5561,4.5167,4.4753,4.4298,0.0,0.0,0.0,4.3428,4.3532,4.3573,4.2928,4.2099,4.1208,4.0794,0.0,3.9006,3.8944,3.8861,3.8696,3.8592,0.0,0.0,0.0,0.0,0.0,0.0,0.0,0.0,0.0,0.0,0.0,3.779,3.7532,3.6412,3.8673,4.0528,4.115,4.247,4.3532,4.423,4.5414,4.6162,4.6389,4.7858,4.8832,4.8645,4.9431,5.0218,5.0673,5.088,5.115,5.1626,5.1998,5.2247,5.235,5.2681,5.2868,5.2785,5.2433,5.2412,5.2872,5.2985,5.3094,5.3172,5.3239,5.3338,5.3551,5.3344,5.3199,5.3427,5.3178,5.2909,5.2888,5.2992,5.3033,5.2909,5.3013,5.3013,5.293,5.2619,5.2247,5.1895,5.1948,5.1972,5.036,5.0269,4.9031,4.8393,0.0,4.6789,4.6729,4.759,4.8835,4.9344,4.9348,4.8902,4.8719,4.8635,4.7211,4.7385,4.8686,4.778,4.772,4.8376,4.8418,4.8542,4.8749,4.8522,4.8522,4.8729,4.8294,4.792,4.7693,4.7465,4.7134,4.6678,4.643,4.6202,4.5975,4.5519,4.4857,4.3967,4.3946,4.407,4.4256,4.3842,4.3093,4.1938,4.1669,0.0,0.0,0.0,0.0,0.0,0.0,0.0,0.0,0.0,0.0,3.7744,3.755,3.7665,3.8142,3.9164,4.0034,4.051,4.1793,4.1757,3.9972,4.1731,4.3276,4.4054,4.4834,4.5685,4.6596,4.7506,4.8127,4.8396,4.9411,4.999,4.9866,5.0549,5.1191,5.146,5.1853,5.2247,5.2454,5.2661,5.2826,5.2847,5.3033,5.3282,5.3427,5.3137,5.295,5.3183,5.3178,5.3261,5.3447,5.3509,5.3654,5.3959,5.3752,5.3633,5.3752,5.3489,5.3178,5.3199,5.3364,5.3447,5.324,5.3344,5.3427,5.322,5.2992,5.2785,5.2495,5.2122,5.1791,5.0254,5.0121,4.8404,4.7483,4.7128,4.5416,4.4689,4.4908,4.74,0.0,0.0,4.8285,4.838,4.8191,4.6677,4.7278,4.9345,4.767,4.7447,4.8553,4.8812,4.8962,4.8962,4.9221,4.9307,4.9309,4.8874,4.8563,4.8397,4.792,4.7631,4.7568,4.7568,4.761,4.7651,4.7341,4.6409,4.496,4.4588,4.4608,4.4981,4.4836,4.4174,4.2952,4.2745,4.1736,3.9833,3.9668,3.9275,3.8605,3.8626,3.8874,3.9275,3.9647,4.0143,4.0764,4.1524,4.2037,4.2223,4.3366,4.4049,4.3884,4.5209,4.5354,4.3721,4.4484,4.5498,4.6576,4.6803,4.7424,4.8563,4.9164,4.9578,4.991,5.0342,5.0673,5.0671,5.1398,5.1936,5.2102,5.2681,5.3157,5.3137,5.322,5.3302,5.3323,5.3427,5.353,5.3773,5.3675,5.3468,5.3509,5.3551,5.3592,5.3814,5.3918,5.4062,5.4373,5.4145,5.3938,5.3876,5.3675,5.3427,5.3344,5.3587,5.3613,5.3302,5.3427,5.3566,5.3364,5.3157,5.3116,5.3178,5.2557,5.1998,4.9731,4.9457,4.6737,4.5972,4.6513,4.3732,4.2769,4.3404,4.5768,4.692,4.7083,4.8313,4.8638,4.83,4.7973,4.8042,4.831,4.6845,4.6266,4.6511,4.7721,4.832,4.8408,4.9603,5.0239,5.0197,4.9783,4.9185,4.8439,4.792,4.7506,4.7134,4.7093,4.7279,4.7651,4.7631,4.7465,4.7175,4.5685,4.4919,4.4981,4.4215,4.3532,4.2894,4.2207,4.1477,4.0717,4.0365,4.004,3.9916,4.0303,4.0752,4.1187,4.1312,4.1835,4.3014,4.3263,4.3677,4.4463,4.5416,4.641,4.7465,4.7486,4.7134,4.6513,4.7279,4.7879,4.8107,4.8791,4.9392,4.964,5.0301,5.0632,5.0466,5.1108,5.1605,5.1605,5.2081,5.2557,5.2909,5.3121,5.322,5.3282,5.353,5.3669,5.3752,5.3882,5.4249,5.4207,5.4352,5.4311,5.429,5.429,5.4331,5.4228,5.4373,5.4352,5.4476,5.4393,5.429,5.429,5.4166,5.3959,5.3731,5.3731,5.3675,5.3302,5.322,5.3489,5.3587,5.3282,5.2992,5.3592,5.3054,5.2578,5.0564,4.938,4.7232,4.5763,4.4708,4.1994,4.114,4.1694,4.2737,4.424,4.5899,4.6911,4.7227,4.7062,4.6845,4.7143,4.7854,4.6953,4.6526,4.659,4.7401,4.741,4.6894,4.8424,4.909,4.8891,4.9497,4.9309,4.8459,4.8148,4.7838,4.7424,4.7631,4.7631,4.7361,4.7568,4.7444,4.6968,4.6389,4.6099,4.6099,4.5645,4.5086,4.4443,4.4215,4.3698,4.2803,4.2538,4.2331,4.2046,4.2249,4.258,4.3035,4.3511,4.4194,4.5004,4.5561,4.6016,4.643,4.6823,4.7672,4.8976,4.8749,4.8583,4.8852,4.9017,4.9224,4.9452,4.9887,5.0218,5.0446,5.086,5.1212,5.1522,5.1936,5.2288,5.2557,5.295,5.3256,5.353,5.3778,5.3923,5.3903,5.3835,5.3814,5.3814,5.3835,5.384,5.382,5.382,5.3903,5.4042,5.3965,5.382,5.382,5.398,5.4083,5.4104,5.4104,5.4104,5.4083,5.4006,5.3737,5.3571,5.3654,5.3711,5.353,5.3758,5.3985,5.4042,5.3918,5.3814,5.4021,5.3814,5.3468,5.0205,4.873,4.7047,4.5089,4.2936,4.0821,4.0123,4.0448,4.0416,4.1665,4.3856,4.4961,4.5389,4.5335,4.5249,4.6022,4.7176,4.6795,4.6689,4.6959,4.7519,4.7232,4.6408,4.7933,4.8537,4.843,4.9366,4.9371,4.8646,4.8459,4.8231,4.792,4.8335,4.8189,4.7465,4.7838,4.7631,4.6968,4.7217,4.7217,4.701,4.6989,4.67,4.6223,4.6307,4.5976,4.5002,4.4815,4.4588,4.4256,4.4197,4.4422,4.4898,4.5581,4.6244,4.6782,4.7444,4.7941,4.8127,4.8045,4.8584,4.9827,4.962,4.9763,5.057,5.0425,5.0239,5.0404,5.0487,5.0756,5.117,5.1398,5.175,5.2536,5.2536,5.2702,5.324,5.3468,5.3669,5.3876,5.4186,5.4331,5.4393,5.4186,5.4,5.3938,5.3613,5.3385,5.3447,5.3282,5.322,5.3489,5.3406,5.324,5.3199,5.3447,5.3675,5.3649,5.3649,5.3696,5.3654,5.3406,5.3157,5.3137,5.3385,5.3483,5.3545,5.3814,5.4083,5.4166,5.4042,5.4083,5.4207,5.4331,5.4089,4.6754,4.6205,4.4536,4.2871,4.1734,4.0718,4.0294,4.0295,4.0009,3.9995,4.0707,4.2724,4.3561,4.3427,4.4027,4.5161,4.6401,4.5702,4.577,4.6675,4.8118,4.8681,4.8331,4.9527,5.039,5.0442,4.9981,4.9471,4.8998,4.8584,4.8377,4.8397,4.8832,4.8914,4.8874,4.8915,4.8915,4.8832,4.8438,4.7858,4.7051,4.6989,4.7196,4.7506,4.7154,4.6886,4.6658,4.6348,4.61,4.6058,4.6017,4.6245,4.6679,4.6824,4.7299,4.8086,4.8314,4.8708,4.9475,4.9226,4.9349,5.0218,5.0342,5.0694,5.1564,5.1626,5.1253,5.0798,5.086,5.1315,5.1688,5.2081,5.2495,5.293,5.2723,5.2826,5.3483,5.3095,5.3075,5.4358,5.4228,5.4042,5.4497,5.4497,5.4393,5.4269,5.3918,5.3731,5.3965,5.3302,5.2847,5.3157,5.3199,5.3178,5.3178,5.3199,5.3344,5.3302,5.3282,5.3302,5.3282,5.3199,5.3075,5.2681,5.2992,5.3157,5.2992,5.2992,5.353,5.3938,5.3814,5.353,5.3794,5.4207,5.4089,4.6299,4.5178,4.4364,4.307,4.1632,4.0891,4.0578,4.0546,4.0229,4.007,4.0136,4.0983,4.1265,4.1314,4.2553,4.3626,4.4492,4.4974,4.504,4.5031,4.5833,4.5825,4.5177,4.6565,4.7668,4.8443,4.8697,4.8935,4.8952,4.8334,4.7962,4.8024,4.848,4.8563,4.8293,4.8563,4.8563,4.8252,4.8107,4.792,4.7858,4.7838,4.7775,4.7713,4.7775,4.7693,4.7444,4.7237,4.7134,4.7134,4.7134,4.7217,4.7403,4.7941,4.8396,4.8832,4.9307,4.9742,5.0115,4.997,5.0259,5.117,5.1232,5.1626,5.2495,5.2619,5.2433,5.2164,5.2226,5.2433,5.2578,5.2536,5.2681,5.3013,5.2764,5.2971,5.4062,5.3696,5.382,5.5041,5.4938,5.4813,5.5165,5.5082,5.471,5.4228,5.3897,5.3835,5.3758,5.324,5.3054,5.3116,5.3178,5.3054,5.2909,5.3282,5.3385,5.3302,5.3406,5.3489,5.293,5.3054,5.295,5.2247,5.2785,5.3116,5.3013,5.3282,5.3669,5.3959,5.4145,5.4048,5.4166,5.4352,5.4166,4.5593,4.4396,4.4181,4.3156,4.164,4.1126,4.0928,4.088,4.0578,4.0435,4.0403,4.0149,4.0155,4.0336,4.1359,4.2205,4.3093,4.4209,4.4552,4.4193,4.4492,4.4059,4.3269,4.4267,4.5435,4.6387,4.7056,4.7652,4.8177,4.8064,4.7783,4.7764,4.8413,4.8563,4.819,4.8459,4.8439,4.8149,4.8065,4.8273,4.8563,4.8604,4.8501,4.8314,4.8686,4.8769,4.8459,4.8438,4.8376,4.8294,4.8376,4.8376,4.8335,4.8997,4.9431,4.9516,5.0052,5.0549,5.0777,5.0798,5.1191,5.206,5.2185,5.2516,5.3157,5.3364,5.3427,5.353,5.3551,5.3509,5.3344,5.3075,5.3075,5.3447,5.324,5.3509,5.4311,5.4166,5.4441,5.5434,5.5289,5.5352,5.5731,5.5455,5.4917,5.4373,5.398,5.3794,5.3551,5.3406,5.3199,5.3344,5.3364,5.3178,5.2826,5.3137,5.3447,5.3385,5.3447,5.3323,5.2702,5.293,5.2992,5.2495,5.2971,5.3302,5.3406,5.369,5.4021,5.4331,5.4476,5.4435,5.4435,5.4497,5.4352,4.3637,4.3452,4.3011,4.2418,4.177,4.1436,4.1293,4.1261,4.0912,4.0769,4.0769,4.0721,4.0755,4.0709,4.074,4.1414,4.2724,4.3327,4.3969,4.4712,4.488,4.4955,4.4964,4.4636,4.4902,4.5696,4.5728,4.5966,4.6504,4.7626,4.7958,4.7674,4.901,4.9495,4.9122,4.9081,4.9081,4.8998,4.9039,4.9039,4.9081,4.906,4.933,4.964,5.0032,5.0135,5.0156,5.0239,5.0052,4.9702,4.9949,5.0052,4.9765,5.0073,5.0342,5.0384,5.0446,5.086,5.1605,5.175,5.2122,5.293,5.3054,5.3323,5.3752,5.3835,5.4021,5.4393,5.4482,5.4269,5.3938,5.3752,5.3923,5.429,5.4373,5.4373,5.4476,5.4517,5.4662,5.5207,5.5393,5.5579,5.5918,5.5476,5.5269,5.4958,5.4399,5.3938,5.4145,5.3716,5.3509,5.3669,5.3752,5.3628,5.3282,5.3447,5.3406,5.3344,5.3406,5.3178,5.293,5.2764,5.2743,5.2806,5.3302,5.3628,5.3814,5.4042,5.4311,5.4497,5.4497,5.4497,5.4497,5.4497,5.4414,4.2412,4.2396,4.2192,4.1987,4.1782,4.1655,4.1608,4.1611,4.1277,4.1118,4.1087,4.0896,4.0785,4.0819,4.0729,4.1194,4.1948,4.1977,4.2359,4.2912,4.2755,4.2652,4.2635,4.2497,4.3126,4.4309,4.5215,4.6777,4.8722,4.9388,4.9528,4.945,4.9914,5.0073,4.9949,4.9928,4.9804,4.962,4.9763,4.9659,4.9202,4.9928,5.0342,5.0156,4.9763,4.9556,4.9599,4.9868,4.9972,4.9806,5.0197,5.0342,5.0259,5.0611,5.115,5.1667,5.175,5.2019,5.2578,5.2681,5.295,5.3509,5.3613,5.3897,5.4524,5.471,5.4896,5.5269,5.5393,5.5289,5.5082,5.4648,5.4435,5.4813,5.4662,5.4689,5.4875,5.4958,5.5227,5.591,5.6283,5.6573,5.6469,5.6345,5.6021,5.5621,5.5082,5.4689,5.4455,5.4166,5.4021,5.4166,5.4228,5.4186,5.413,5.4068,5.4027,5.384,5.3737,5.3571,5.3344,5.3587,5.3669,5.3157,5.3525,5.3814,5.3959,5.4166,5.4435,5.4497,5.4497,5.4497,5.4497,5.4497,5.4497,4.1347,4.1426,4.1316,4.1269,4.1285,4.1285,4.1269,4.1253,4.1018,4.1026,4.1131,4.0977,4.0967,4.1068,4.1118,4.1336,4.1589,4.1221,4.1177,4.144,4.1277,4.1114,4.1114,4.1131,4.1732,4.2891,4.4187,4.5992,4.7787,4.8427,4.8593,4.8409,4.8902,4.911,4.9009,4.8969,4.8808,4.8691,4.8828,4.8663,4.8469,4.9518,5.0107,4.9906,4.9769,4.9804,4.9993,5.0239,5.0425,5.051,5.0839,5.115,5.1315,5.1605,5.204,5.2619,5.2702,5.2909,5.3323,5.3385,5.3654,5.4166,5.4296,5.4627,5.531,5.5462,5.5628,5.5835,5.5918,5.591,5.5952,5.5538,5.5269,5.5393,5.5269,5.5227,5.5393,5.5607,5.5876,5.618,5.6469,5.6697,5.6738,5.6345,5.5973,5.5711,5.5269,5.4855,5.4579,5.4497,5.4497,5.4497,5.4455,5.4455,5.4373,5.4311,5.4311,5.4166,5.4062,5.3944,5.3882,5.4207,5.4228,5.369,5.3607,5.3897,5.4124,5.4311,5.4414,5.4476,5.4497,5.4497,5.4497,5.4497,5.4497,4.0453,4.0719,4.0392,4.0424,4.0558,4.0507,4.0321,4.0522,4.0455,4.0765,4.128,4.1115,4.1407,4.1715,4.1735,4.1818,4.1694,4.1219,4.0932,4.0935,4.0887,4.0855,4.0839,4.0873,4.1271,4.1998,4.2423,4.2928,4.3842,4.5108,4.5488,4.5092,4.6333,4.6961,4.6269,4.6708,4.6469,4.6793,4.7031,4.6849,4.666,4.8148,4.8952,4.9212,5.0356,5.1212,5.1646,5.1708,5.1688,5.1771,5.2164,5.2681,5.2888,5.2992,5.3116,5.3137,5.3178,5.3406,5.3752,5.3856,5.4296,5.4938,5.5145,5.5331,5.5766,5.5918,5.5959,5.6084,5.6084,5.6166,5.649,5.6519,5.6304,5.6063,5.62,5.6262,5.6104,5.6311,5.6436,5.6097,5.6097,5.5931,5.5876,5.5641,5.5352,5.5227,5.4896,5.4559,5.4517,5.4497,5.4497,5.4497,5.4497,5.4497,5.4497,5.4497,5.4497,5.4455,5.4393,5.429,5.4104,5.429,5.4331,5.3938,5.4021,5.4269,5.4269,5.4435,5.4455,5.4497,5.4497,5.4497,5.4497,5.4497,5.4497,4.0808,4.1219,4.0894,4.1168,4.1629,4.1266,4.1443,4.1974,4.1624,4.1765,4.2235,4.2288,4.2281,4.2195,4.2215,4.2088,4.1782,4.1544,4.1389,4.1217,4.0962,4.0801,4.0801,4.0785,4.1616,4.2871,4.3107,4.3838,4.4976,4.5437,4.5484,4.5533,4.5842,4.6764,4.7822,4.794,4.8372,4.9467,4.9844,4.9738,4.9356,5.0123,5.0576,5.0499,5.1483,5.2019,5.1833,5.2102,5.2267,5.2288,5.2723,5.3033,5.3157,5.3178,5.3323,5.3545,5.3587,5.3985,5.4648,5.4772,5.5,5.5517,5.5711,5.589,5.6311,5.6415,5.6511,5.6738,5.6801,5.6883,5.6987,5.7008,5.6904,5.6821,5.6925,5.6842,5.6498,5.6519,5.6539,5.6457,5.6394,5.6394,5.6229,5.5731,5.5165,5.5124,5.4813,5.4517,5.4517,5.4538,5.4497,5.4497,5.4497,5.4497,5.4497,5.4497,5.4497,5.4497,5.4476,5.4476,5.4331,5.4269,5.4311,5.4331,5.4435,5.4476,5.4497,5.4497,5.4497,5.4497,5.4497,5.4497,5.4497,5.4497,5.4497,4.0544,4.0868,4.0602,4.0795,4.1257,4.0874,4.1101,4.1549,4.1247,4.1406,4.1866,4.2145,4.2246,4.2283,4.246,4.2453,4.2246,4.2231,4.2567,4.2738,4.1575,4.1182,4.1182,4.1182,4.179,4.3072,4.379,4.4706,4.5994,4.6616,4.6866,4.6866,4.6866,4.7451,4.8652,4.859,4.9071,4.9877,4.9962,4.9994,4.9984,5.0722,5.124,5.1388,5.238,5.278,5.2619,5.2992,5.3095,5.295,5.3323,5.3654,5.3696,5.384,5.4048,5.4296,5.4544,5.4875,5.5372,5.5462,5.569,5.6084,5.6187,5.6477,5.6904,5.707,5.7277,5.7649,5.7516,5.7484,5.7463,5.7297,5.7185,5.7185,5.733,5.7256,5.6904,5.6656,5.6394,5.6187,5.6042,5.6042,5.5703,5.5414,5.4958,5.4896,5.4855,5.4772,5.4772,5.4793,5.4772,5.4683,5.4559,5.4559,5.4497,5.4497,5.4497,5.4497,5.4497,5.4497,5.4435,5.4414,5.4435,5.4435,5.4476,5.4476,5.4497,5.4497,5.4497,5.4497,5.4497,5.4497,5.4497,5.4497,5.4497,3.9768,4.0002,3.9694,3.9761,3.9859,3.9805,3.9941,3.9864,3.9811,4.0199,4.0717,4.1294,4.1604,4.2034,4.2545,4.2761,4.2798,4.2839,4.3731,4.4365,4.33,4.2224,4.2807,4.2894,4.3069,4.3373,4.4734,4.5512,4.6022,4.7428,4.8576,4.8242,4.7966,4.8604,4.8643,4.8254,4.8017,4.8599,4.805,4.8081,4.8776,4.9789,5.0689,5.1519,5.2937,5.3731,5.3669,5.3938,5.3938,5.353,5.413,5.4524,5.4668,5.5,5.5145,5.5186,5.5669,5.5766,5.589,5.5993,5.6159,5.6581,5.6759,5.6966,5.7649,5.7815,5.798,5.827,5.8043,5.7836,5.7732,5.7413,5.7206,5.7268,5.7546,5.7525,5.7165,5.6821,5.6407,5.5683,5.5289,5.5186,5.5082,5.4896,5.4793,5.4786,5.5062,5.5186,5.5227,5.5227,5.5227,5.5103,5.4938,5.4793,5.4772,5.4497,5.4497,5.4497,5.4497,5.4497,5.4497,5.4497,5.4497,5.4497,5.4497,5.4497,5.4497,5.4497,5.4497,5.4497,5.4497,5.4497,5.4517,5.4538,5.4559,4.0173,4.0541,4.0214,4.0496,4.1026,4.0666,4.0854,4.1373,4.0955,4.1019,4.1604,4.1873,4.1828,4.1874,4.2429,4.257,4.2503,4.2756,4.3286,4.4142,4.3699,4.4816,4.6509,4.6579,4.6338,4.6413,4.6565,4.7094,4.7113,4.7695,4.7865,4.7435,4.7112,4.7587,4.9062,4.7601,4.7689,4.9516,4.8757,4.8291,4.8786,5.0019,5.0925,5.1563,5.3366,5.4077,5.3856,5.3897,5.4249,5.4668,5.4855,5.5186,5.5434,5.5621,5.5752,5.5724,5.5876,5.6055,5.6436,5.6697,5.6925,5.709,5.7608,5.8022,5.7898,5.8229,5.8291,5.8208,5.796,5.7794,5.7504,5.7318,5.7359,5.7599,5.7566,5.7297,5.6987,5.6925,5.6821,5.6324,5.6159,5.6035,5.5869,5.5641,5.5455,5.5476,5.5579,5.5703,5.5683,5.5683,5.5703,5.5559,5.5372,5.5165,5.4958,5.4689,5.4517,5.4497,5.4497,5.4497,5.4497,5.4497,5.4497,5.4497,5.4497,5.4497,5.4497,5.4497,5.4497,5.4497,5.4641,5.4772,5.471,5.471,5.471,4.0414,4.067,4.0477,4.0723,4.1118,4.0832,4.1006,4.1372,4.1115,4.1115,4.1496,4.1768,4.1879,4.1981,4.2519,4.2839,4.2864,4.3168,4.4053,4.5304,4.6041,4.663,4.7016,4.6786,4.6698,4.6831,4.7522,4.8147,4.8786,4.9331,4.999,5.0552,4.9605,5.0272,5.1781,5.0239,4.978,5.1536,5.0944,5.0507,5.0799,5.1576,5.2403,5.3086,5.4259,5.471,5.4689,5.471,5.4896,5.5124,5.5186,5.5393,5.5876,5.6125,5.6208,5.6229,5.649,5.6883,5.7132,5.7546,5.7794,5.7877,5.8374,5.8415,5.8312,5.8477,5.8436,5.8291,5.8043,5.7794,5.7566,5.7359,5.738,5.7504,5.733,5.7194,5.7111,5.7194,5.7008,5.6767,5.6602,5.6519,5.6374,5.6084,5.598,5.5939,5.6063,5.6166,5.6229,5.6208,5.6187,5.6035,5.5876,5.5628,5.54,5.5124,5.4917,5.4855,5.4683,5.4641,5.4559,5.4538,5.4497,5.4497,5.4497,5.4497,5.4497,5.4497,5.4497,5.4579,5.4834,5.4855,5.4751,5.4793,5.4793,4.0475,4.0475,4.0475,4.0475,4.0515,4.0475,4.057,4.0544,4.0584,4.0584,4.0693,4.106,4.1481,4.2148,4.2574,4.3214,4.3684,4.3712,4.5014,4.6422,4.7583,4.7685,4.6164,4.6818,4.6748,4.6953,4.7793,4.9584,5.1141,5.2778,5.3978,5.4151,5.44,5.4636,5.3999,5.3393,5.3521,5.3284,5.2606,5.2294,5.261,5.3073,5.3725,5.4413,5.511,5.5559,5.5773,5.5786,5.5683,5.5352,5.5379,5.5662,5.6055,5.6449,5.6676,5.6821,5.7339,5.7773,5.8022,5.8332,5.8581,5.856,5.8643,5.8705,5.8726,5.8808,5.885,5.8684,5.8312,5.8146,5.798,5.7649,5.7546,5.7608,5.7484,5.7587,5.7711,5.7504,5.707,5.6767,5.6705,5.6477,5.6229,5.6014,5.6055,5.6387,5.6511,5.6594,5.6635,5.6635,5.6635,5.6614,5.6324,5.6021,5.5814,5.5628,5.5393,5.5248,5.5082,5.4958,5.4704,5.4641,5.4538,5.4497,5.4497,5.4497,5.4497,5.4497,5.4497,5.4579,5.4793,5.471,5.4559,5.4793,5.4875,4.0475,4.0475,4.0475,4.0475,4.0475,4.0475,4.0475,4.0475,4.0475,4.0475,4.0544,4.0639,4.1021,4.1565,4.2163,4.2689,4.3401,4.3779,4.4522,4.5256,4.6043,4.7353,4.7948,4.9296,5.0591,5.0994,5.2974,5.4181,5.4694,5.4656,5.5437,5.555,5.4659,5.4451,5.508,5.3199,5.2443,5.3112,5.2385,5.1962,5.2414,5.3179,5.3929,5.465,5.566,5.6283,5.6332,5.6055,5.6042,5.6249,5.6353,5.6511,5.6842,5.7008,5.7235,5.7566,5.7773,5.8105,5.8457,5.885,5.8995,5.8788,5.9222,5.9533,5.9202,5.9429,5.9429,5.9243,5.9057,5.8726,5.8436,5.8374,5.8229,5.8187,5.8208,5.8146,5.7918,5.7496,5.7227,5.7111,5.707,5.7049,5.6925,5.6842,5.6863,5.6925,5.6966,5.7049,5.7049,5.7028,5.6987,5.6945,5.6738,5.6407,5.6283,5.6035,5.5814,5.5579,5.5414,5.5289,5.5082,5.4875,5.4813,5.4641,5.4497,5.4497,5.4497,5.4497,5.4497,5.46,5.4731,5.4621,5.4621,5.4834,5.4855,4.0475,4.0475,4.0475,4.0475,4.0475,4.0475,4.0475,4.0475,4.0475,4.0475,4.0475,4.0475,4.0876,4.1542,4.1749,4.2409,4.3473,4.3993,4.4363,4.4742,4.5049,4.5795,4.724,4.9694,5.1374,5.2449,5.3432,5.4485,5.5153,5.5431,5.5588,5.6053,5.4582,5.4124,5.4596,5.3073,5.2816,5.3212,5.2756,5.2557,5.345,5.3321,5.4214,5.5202,5.6342,5.6883,5.6842,5.6904,5.6966,5.7173,5.738,5.7484,5.7525,5.7566,5.7794,5.8167,5.8477,5.8643,5.8995,5.9326,5.9533,5.9264,5.974,5.9616,5.9471,5.9554,5.9409,5.9119,5.8933,5.885,5.8643,5.8601,5.8622,5.8622,5.8622,5.8498,5.827,5.8022,5.7649,5.7442,5.7351,5.7359,5.7339,5.7339,5.7256,5.7152,5.707,5.7152,5.7173,5.7082,5.7103,5.7111,5.7008,5.6863,5.678,5.6511,5.6146,5.5959,5.5773,5.5641,5.5538,5.5289,5.5082,5.4896,5.4683,5.4517,5.4497,5.4497,5.4517,5.4538,5.4579,5.4621,5.4641,5.4641,5.4641,4.0475,4.0475,4.0475,4.0475,4.0475,4.0475,4.0475,4.0475,4.0475,4.0519,4.0563,4.0563,4.1098,4.1686,4.1771,4.2666,4.3886,4.4356,4.4548,4.4659,4.4714,4.5384,4.6456,4.8341,5.0345,5.2016,5.2702,5.3526,5.4216,5.4663,5.5133,5.5846,5.4694,5.4284,5.4006,5.3738,5.3867,5.4255,5.4304,5.4582,5.5471,5.4829,5.523,5.6251,5.7032,5.7318,5.7422,5.7649,5.796,5.8043,5.8394,5.8394,5.8229,5.8063,5.8229,5.8684,5.9015,5.9222,5.9409,5.9719,5.9947,5.9988,5.9988,5.9823,5.9554,5.9492,5.9367,5.914,5.8995,5.8995,5.8829,5.8953,5.8912,5.8891,5.885,5.8788,5.8746,5.8746,5.8436,5.7773,5.7836,5.7898,5.7691,5.7566,5.7484,5.7401,5.7268,5.7247,5.7268,5.7206,5.7206,5.7165,5.7111,5.707,5.7008,5.6945,5.6552,5.6387,5.6159,5.6125,5.6063,5.5918,5.5621,5.5145,5.4869,5.4766,5.4751,5.4772,5.4751,5.4579,5.4517,5.4559,5.4538,5.4497,5.4497,4.0475,4.0475,4.0475,4.0475,4.0475,4.0475,4.0475,4.0475,4.0504,4.0651,4.087,4.0955,4.1393,4.2084,4.2699,4.3631,4.4475,4.4702,4.4693,4.4868,4.501,4.561,4.7502,4.8284,4.9902,5.1519,5.2627,5.3353,5.323,5.3538,5.4577,5.503,5.4182,5.4172,5.5437,5.5437,5.5135,5.5748,5.5978,5.6307,5.6626,5.6577,5.6439,5.7215,5.7608,5.7773,5.7898,5.8229,5.8477,5.8498,5.8581,5.8788,5.8933,5.8746,5.8788,5.9098,5.9285,5.9512,5.9781,5.9906,5.9988,5.9988,5.9988,5.9988,5.9864,5.9843,5.9719,5.9719,5.9657,5.9719,5.9761,5.9616,5.9719,5.9719,5.9636,5.9533,5.9326,5.9347,5.9305,5.856,5.8498,5.8415,5.8146,5.796,5.7939,5.7856,5.7732,5.7732,5.7794,5.7537,5.7309,5.7247,5.7165,5.7194,5.7173,5.7152,5.7008,5.6945,5.678,5.6635,5.6573,5.6539,5.6249,5.5828,5.5496,5.5372,5.5269,5.5124,5.4917,5.4745,5.4621,5.4517,5.4497,5.4497,5.4497,4.0475,4.0475,4.0475,4.0475,4.0475,4.0475,4.0475,4.0504,4.0665,4.0826,4.0987,4.1204,4.1732,4.2413,4.2602,4.3452,4.46,4.4996,4.5106,4.5249,4.536,4.6522,4.8692,4.9187,5.0723,5.2384,5.3632,5.3344,5.2503,5.3772,5.4543,5.4961,5.4643,5.5321,5.6179,5.5863,5.5945,5.6588,5.6579,5.6811,5.7487,5.7587,5.767,5.796,5.8105,5.825,5.8353,5.8726,5.8953,5.9015,5.9202,5.9554,5.9719,5.9657,5.9429,5.9636,5.9657,5.974,5.9968,5.9988,5.9988,5.9988,6.0009,5.9988,5.9988,5.9968,6.003,6.0009,5.9988,5.9988,5.9947,6.003,5.9988,5.9988,6.0009,5.9906,5.9761,5.9885,5.9636,5.9264,5.9098,5.8871,5.8539,5.8415,5.8436,5.8312,5.8146,5.8167,5.825,5.8022,5.7661,5.7566,5.7504,5.733,5.7309,5.7289,5.7206,5.7165,5.7194,5.707,5.7008,5.6863,5.6821,5.6656,5.6366,5.5931,5.5773,5.5538,5.5248,5.5,5.4958,5.4896,5.46,5.4497,5.46,4.0519,4.0577,4.0577,4.0577,4.0577,4.0647,4.0592,4.0636,4.0855,4.1046,4.1248,4.1609,4.2169,4.288,4.3586,4.4416,4.5774,4.6671,4.7065,4.6903,4.733,4.8413,4.9707,5.0699,5.182,5.3,5.3744,5.362,5.306,5.4033,5.4996,5.5371,5.5841,5.6178,5.6514,5.631,5.6294,5.6454,5.6357,5.6873,5.7759,5.8084,5.8208,5.8581,5.8684,5.8788,5.8974,5.9388,5.9699,5.9864,6.0092,6.0423,6.0671,6.0464,6.0278,6.0257,6.0175,6.0175,6.0299,6.032,6.0402,6.0423,6.0216,6.0195,6.032,6.0402,6.0299,6.0175,6.0278,6.034,6.0402,6.032,6.0257,6.0154,6.0154,6.0092,5.9988,5.9968,5.9968,5.9719,5.9574,5.9367,5.9078,5.8871,5.8891,5.8871,5.8726,5.8581,5.8622,5.8498,5.825,5.8043,5.7856,5.7578,5.7496,5.7504,5.738,5.7235,5.7215,5.7152,5.7152,5.7152,5.7111,5.7028,5.678,5.6387,5.6159,5.6001,5.5745,5.5538,5.5393,5.5269,5.5165,5.5082,5.5103,4.0651,4.0914,4.0969,4.0914,4.0969,4.0969,4.0969,4.0929,4.0987,4.1294,4.1775,4.2344,4.2891,4.3972,4.6259,4.8082,4.9523,5.0187,5.0078,4.9406,5.0267,5.1055,5.2291,5.2599,5.2636,5.3372,5.3449,5.357,5.3792,5.4569,5.5476,5.607,5.5709,5.5717,5.7933,5.6929,5.6936,5.7935,5.8099,5.8212,5.8488,5.8539,5.8601,5.8808,5.9078,5.945,5.9823,6.0216,6.0568,6.0887,6.1011,6.1136,6.1198,6.1177,6.1136,6.1065,6.0899,6.0775,6.1023,6.097,6.097,6.0887,6.0796,6.0858,6.092,6.0949,6.0899,6.063,6.0878,6.0991,6.1023,6.1053,6.0961,6.0754,6.0589,6.0402,6.0216,6.0195,6.0175,6.005,5.9864,5.9864,5.9719,5.9512,5.9326,5.9326,5.9285,5.914,5.8995,5.8871,5.8767,5.8539,5.827,5.8043,5.7918,5.7856,5.7649,5.7401,5.7339,5.7247,5.7165,5.7165,5.7165,5.7111,5.6925,5.6801,5.6594,5.6387,5.6221,5.6035,5.5897,5.5835,5.5814,5.5683,5.5538,4.0841,4.0987,4.1163,4.1236,4.1236,4.1236,4.1236,4.128,4.1426,4.1646,4.2022,4.2738,4.4193,4.6238,4.8266,4.9957,5.1417,5.162,5.1037,5.0261,5.0572,5.0975,5.1707,5.2163,5.2436,5.3741,5.4012,5.4264,5.4689,5.528,5.6134,5.6462,5.7131,5.8079,5.8922,5.7608,5.7418,5.762,5.7719,5.8045,5.8737,5.9036,5.9243,5.974,5.9947,6.0278,6.0671,6.092,6.1127,6.128,6.1301,6.1425,6.1529,6.1508,6.1446,6.2079,6.1706,6.1437,6.1301,6.1322,6.1342,6.1301,6.1189,6.1115,6.126,6.1322,6.128,6.1085,6.121,6.1301,6.1342,6.1301,6.1198,6.1106,6.1065,6.0941,6.0692,6.0485,6.0402,6.0299,6.0195,6.0195,6.0195,6.0009,5.9781,5.9657,5.9657,5.9595,5.9429,5.9264,5.916,5.9015,5.8746,5.8457,5.8374,5.8291,5.8063,5.7836,5.7711,5.7587,5.7247,5.7165,5.7289,5.7247,5.7082,5.7028,5.6925,5.6842,5.6697,5.649,5.6311,5.6249,5.6187,5.5959,5.5786,4.1133,4.1221,4.1455,4.1502,4.1558,4.1558,4.1502,4.1587,4.1777,4.1938,4.224,4.3016,4.5288,4.8211,4.9322,5.0537,5.2582,5.1835,5.1122,5.0369,5.0037,5.0662,5.1616,5.2054,5.2709,5.432,5.3977,5.4066,5.4426,5.4965,5.5448,5.611,5.6997,5.8414,5.8771,5.811,5.7594,5.8313,5.8091,5.8461,5.9263,5.9471,5.9926,6.0382,6.0734,6.0941,6.1363,6.1466,6.1466,6.1673,6.1769,6.1955,6.21,6.1996,6.2038,6.241,6.2245,6.2038,6.1872,6.1789,6.1686,6.1686,6.157,6.1665,6.1301,6.1404,6.1529,6.1487,6.1706,6.1727,6.1686,6.1727,6.1665,6.1549,6.1466,6.1384,6.128,6.1044,6.0837,6.0796,6.0692,6.0568,6.0527,6.0444,6.0257,6.005,5.9988,5.9988,5.9843,5.9595,5.9554,5.9429,5.9326,5.9036,5.8829,5.8705,5.8477,5.8291,5.8146,5.8001,5.7773,5.767,5.7732,5.7558,5.7371,5.7256,5.7152,5.7152,5.7103,5.6904,5.6697,5.6552,5.6428,5.6221,5.62,4.1587,4.1836,4.185,4.1865,4.1865,4.1865,4.1865,4.1865,4.1909,4.2141,4.2461,4.3192,4.5529,4.8506,4.945,5.0461,5.2308,5.3833,5.2618,5.1999,5.2509,5.2108,5.2198,5.2107,5.2509,5.2909,5.3219,5.3291,5.3344,5.4055,5.4395,5.4914,5.61,5.6543,5.7309,5.7953,5.8132,5.8861,5.9043,5.9379,5.9852,6.005,6.0278,6.063,6.0796,6.1085,6.188,6.1942,6.21,6.239,6.239,6.241,6.2472,6.2431,6.2534,6.2576,6.2617,6.2493,6.2472,6.241,6.2514,6.2555,6.2452,6.2141,6.1632,6.2203,6.2307,6.2058,6.2183,6.239,6.2472,6.2534,6.2224,6.2079,6.1934,6.1851,6.1706,6.1425,6.126,6.1239,6.1115,6.0961,6.0837,6.0734,6.0506,6.0278,6.0009,5.9988,5.9988,5.9843,5.9885,5.9843,5.9864,5.9657,5.9326,5.914,5.8995,5.8788,5.8581,5.8519,5.8394,5.8312,5.8105,5.8022,5.7856,5.7608,5.7392,5.7566,5.7546,5.7268,5.7111,5.6904,5.6863,5.678,5.6821,4.1909,4.2202,4.2202,4.2202,4.2202,4.2202,4.2202,4.2202,4.2202,4.2488,4.2906,4.3378,4.519,4.7726,4.8934,5.0151,5.1872,5.189,5.1524,5.0842,5.0671,5.0366,5.0212,5.0685,5.041,5.0992,5.1885,5.2681,5.2772,5.3861,5.4979,5.5633,5.5793,5.7275,5.8178,5.8279,5.8486,5.8746,5.9281,5.9657,6.071,6.0858,6.1044,6.1458,6.152,6.181,6.2348,6.241,6.2534,6.2638,6.2679,6.2679,6.27,6.27,6.2721,6.2741,6.2741,6.2886,6.3066,6.2886,6.2679,6.2679,6.2638,6.2534,6.2162,6.2534,6.2597,6.2534,6.2555,6.2679,6.2679,6.2659,6.2555,6.2472,6.2369,6.2245,6.21,6.1872,6.1715,6.1694,6.1446,6.1198,6.1127,6.1023,6.0754,6.0485,6.0216,5.9988,5.9988,5.9988,5.9988,5.9988,5.9988,5.9988,5.9678,5.9574,5.9533,5.9285,5.9036,5.8953,5.8871,5.8601,5.8436,5.8353,5.8332,5.8187,5.8084,5.8084,5.7898,5.7504,5.7247,5.7173,5.7144,5.7165,5.7165,4.2026,4.2246,4.2333,4.2377,4.2377,4.2377,4.2377,4.2377,4.2377,4.2621,4.3035,4.3135,4.43,4.6326,4.7279,4.8451,5.0003,5.0627,5.0714,5.0744,5.0675,5.0044,5.0231,5.0538,5.1131,5.0534,5.1704,5.3038,5.233,5.4579,5.5777,5.6465,5.6956,5.8085,5.8873,5.9408,5.9001,5.9155,5.9424,5.9949,6.1206,6.128,6.1466,6.1839,6.1901,6.2183,6.2493,6.2617,6.2638,6.2679,6.2679,6.2679,6.2721,6.2783,6.2866,6.2928,6.3107,6.3238,6.3362,6.3376,6.3093,6.3218,6.299,6.3011,6.3011,6.2886,6.2679,6.2886,6.2804,6.27,6.2721,6.2679,6.2679,6.2576,6.2576,6.2493,6.2472,6.2307,6.2265,6.2203,6.1913,6.1549,6.1322,6.1189,6.0713,6.0423,6.0175,5.9988,5.9988,5.9988,5.9988,5.9988,5.9988,5.9988,5.9968,5.9843,5.974,5.9699,5.9492,5.9388,5.9264,5.9015,5.885,5.8829,5.8788,5.8746,5.8601,5.8415,5.8022,5.7587,5.7422,5.7277,5.7165,5.7165,5.7165,4.1924,4.1938,4.226,4.2377,4.2377,4.2377,4.2377,4.2377,4.2377,4.2434,4.2492,4.2492,4.312,4.4511,4.5626,4.7048,4.8568,5.0438,5.148,5.1725,5.2754,5.3731,5.3802,5.35,5.2818,5.2359,5.361,5.413,5.2581,5.5228,5.6666,5.7436,5.8015,5.8402,5.8916,6.0434,6.1173,6.1173,6.1107,6.1318,6.1413,6.1508,6.1756,6.1984,6.2162,6.2369,6.2576,6.2679,6.2679,6.2679,6.2679,6.2679,6.27,6.3073,6.3238,6.328,6.3749,6.3998,6.4081,6.4081,6.4039,6.3874,6.3507,6.3487,6.3708,6.3362,6.299,6.3356,6.3093,6.2866,6.2762,6.2762,6.2845,6.2886,6.2928,6.2866,6.2845,6.2762,6.27,6.2514,6.2245,6.1921,6.1632,6.1334,6.0734,6.034,6.0092,6.0009,6.0009,5.9988,5.9988,5.9988,5.9988,5.9988,5.9988,5.9988,5.9947,5.9947,5.9885,5.974,5.9719,5.9636,5.9492,5.9326,5.9264,5.9222,5.8933,5.8622,5.8374,5.8146,5.7566,5.7339,5.7277,5.7247,5.7422,4.2216,4.2231,4.2348,4.2377,4.2377,4.2377,4.2377,4.2377,4.2377,4.2377,4.2377,4.2377,4.2792,4.3974,4.5883,4.737,4.8898,5.1455,5.2924,5.3453,5.4654,5.4559,5.4911,5.5376,5.4886,5.496,5.6085,5.7111,5.687,5.787,5.8704,5.9536,5.9138,5.9692,6.0429,6.1421,6.1756,6.1818,6.2004,6.2245,6.2224,6.2203,6.2265,6.2452,6.2431,6.2514,6.2659,6.2679,6.2679,6.27,6.27,6.2741,6.2824,6.3176,6.3425,6.3507,6.3894,6.4211,6.4501,6.4667,6.4625,6.4294,6.4039,6.3921,6.4039,6.3839,6.3791,6.3791,6.3611,6.3507,6.3687,6.3611,6.3652,6.3673,6.3632,6.3425,6.3342,6.3218,6.3093,6.2762,6.2472,6.2183,6.1872,6.1603,6.1044,6.0671,6.0444,6.0154,6.0071,6.003,5.9988,5.9988,5.9988,5.9988,5.9988,5.9988,5.9988,5.9968,5.9968,5.9926,5.9968,5.9988,5.9906,5.9657,5.9699,5.9699,5.9409,5.916,5.9036,5.8746,5.8208,5.7898,5.7939,5.7918,5.7877,4.2216,4.2231,4.2348,4.2377,4.2377,4.2377,4.2377,4.2549,4.3162,4.3219,4.2663,4.3162,4.3902,4.4939,4.6712,4.8981,5.0444,5.3439,5.5314,5.5855,5.6836,5.7583,5.7873,5.7489,5.7826,5.7736,5.8148,5.9099,5.7922,5.9766,6.019,5.9893,6.0028,6.0612,6.1407,6.2087,6.2265,6.2327,6.2472,6.2576,6.2597,6.2617,6.2638,6.2659,6.2659,6.2679,6.2679,6.2679,6.2679,6.2721,6.2824,6.2907,6.3073,6.3445,6.3776,6.3963,6.4273,6.4667,6.4998,6.5163,6.5018,6.4687,6.4418,6.4377,6.4377,6.4211,6.419,6.417,6.417,6.4108,6.4143,6.4108,6.4128,6.4128,6.4046,6.3894,6.3714,6.359,6.3321,6.299,6.2534,6.2265,6.1996,6.1715,6.1342,6.1053,6.0837,6.0547,6.0237,6.0113,6.005,6.0009,6.0009,6.0009,6.0009,5.9988,5.9988,5.9988,5.9988,5.9988,5.9988,5.9988,5.9988,5.9988,5.9906,5.9864,5.9864,5.974,5.9533,5.9285,5.8912,5.8705,5.8643,5.8498,5.8332,4.1909,4.1968,4.2246,4.2377,4.2377,4.2348,4.2348,4.2591,4.4804,4.4522,4.2777,4.5143,4.6238,4.6559,4.8096,5.0247,5.2594,5.5864,5.738,5.8609,5.9555,6.0754,6.1312,6.1262,5.9841,5.9628,5.9429,5.8293,5.7399,5.7887,5.8615,5.9917,6.0139,6.0973,6.1885,6.239,6.2493,6.2555,6.2617,6.2679,6.2679,6.2679,6.2679,6.2679,6.2679,6.2679,6.27,6.2762,6.2721,6.2845,6.3114,6.328,6.3632,6.4232,6.4486,6.4776,6.5122,6.5246,6.5329,6.5391,6.5391,6.5122,6.4936,6.506,6.4998,6.4687,6.4604,6.4584,6.4563,6.4356,6.4288,6.4273,6.4315,6.4294,6.435,6.417,6.4046,6.3818,6.3584,6.3114,6.2555,6.2203,6.1955,6.1727,6.1777,6.1686,6.1437,6.121,6.0837,6.0299,6.0195,6.003,6.003,6.005,6.005,6.0113,6.003,6.005,6.0009,5.9988,5.9988,6.0009,5.9988,5.9988,5.9988,5.9968,5.9947,5.9947,5.9926,5.9657,5.9367,5.9264,5.914,5.885,5.8684,4.2026,4.2246,4.2348,4.2377,4.2348,4.2129,4.2158,4.2676,4.4547,4.5078,4.5046,4.754,4.8862,4.9858,5.2363,5.4093,5.6167,5.8197,5.9646,6.0555,6.0685,6.1272,6.1126,6.049,5.9647,5.8945,5.8145,5.7506,5.6591,5.6497,5.8783,6.132,6.0436,6.1089,6.1769,6.2245,6.2452,6.2597,6.2659,6.2659,6.2679,6.2679,6.2679,6.2679,6.2679,6.27,6.2762,6.3011,6.299,6.2886,6.3487,6.3756,6.3445,6.4211,6.4734,6.5184,6.535,6.5412,6.5412,6.5412,6.5412,6.5412,6.5267,6.5288,6.5288,6.5184,6.4998,6.4894,6.4956,6.4832,6.477,6.4791,6.4791,6.4791,6.477,6.4687,6.4501,6.4087,6.3811,6.3135,6.2597,6.241,6.212,6.2162,6.2265,6.2203,6.2038,6.1789,6.1417,6.0858,6.0506,6.032,6.032,6.0423,6.032,6.032,6.0195,6.0092,6.0154,6.0175,6.0154,6.0154,6.005,6.003,6.0092,6.005,5.9988,5.9988,5.9988,5.9988,5.9761,5.9699,5.9595,5.9305,5.9181,4.1909,4.2202,4.2333,4.2304,4.2314,4.2835,4.3274,4.3922,4.571,4.6739,4.7334,4.9901,5.1531,5.2436,5.4595,5.6649,5.8503,5.9786,6.0695,6.0118,6.028,5.9611,5.903,5.8476,5.7905,5.7412,5.7236,5.6891,5.6366,5.6779,5.8671,6.0989,6.0325,6.1124,6.1899,6.239,6.2472,6.2534,6.2555,6.2555,6.2617,6.2679,6.2679,6.2679,6.2679,6.2783,6.2948,6.33,6.3259,6.328,6.4025,6.4211,6.4025,6.4625,6.4982,6.537,6.5412,6.5412,6.5412,6.5412,6.5412,6.5412,6.5412,6.5412,6.5412,6.5329,6.5184,6.506,6.5246,6.537,6.5391,6.5412,6.5391,6.5391,6.5329,6.5267,6.4853,6.4397,6.3818,6.3197,6.2866,6.2721,6.2638,6.2679,6.2659,6.2534,6.2369,6.2162,6.1789,6.1292,6.1003,6.0816,6.0837,6.0878,6.0754,6.0671,6.0671,6.0651,6.0713,6.0692,6.0506,6.0527,6.063,6.0464,6.0237,6.0237,6.0257,6.005,5.9988,6.0009,6.003,5.9906,5.9823,5.9719,5.9699,4.1646,4.2039,4.2444,4.281,4.2723,4.4451,4.5461,4.6128,4.7986,4.8849,4.9722,5.2251,5.3961,5.4917,5.6552,5.8061,5.9242,6.0265,5.9693,5.911,5.8303,5.7726,5.7364,5.6411,5.6626,5.6492,5.6553,5.6889,5.7004,5.7474,5.8559,6.0084,6.0416,6.1219,6.2213,6.2431,6.2431,6.2431,6.2348,6.2286,6.2597,6.2679,6.2679,6.2679,6.2783,6.2928,6.3314,6.3487,6.3652,6.4066,6.446,6.4729,6.4894,6.506,6.5329,6.5391,6.5412,6.5412,6.5412,6.5412,6.5412,6.5412,6.5412,6.535,6.5288,6.5391,6.5267,6.5184,6.5329,6.5412,6.5412,6.5412,6.5412,6.535,6.5246,6.5163,6.4915,6.4335,6.359,6.3052,6.2804,6.2679,6.2679,6.2679,6.2679,6.2679,6.2617,6.2431,6.2203,6.1748,6.1404,6.1292,6.1334,6.1334,6.1156,6.1094,6.1198,6.1239,6.1198,6.1115,6.0908,6.1032,6.126,6.1003,6.0671,6.063,6.0589,6.0382,6.0216,6.0154,6.0133,6.003,5.9968,5.9926,5.9926,4.1706,4.2417,4.3978,4.54,4.6785,4.734,4.8471,4.9921,5.0669,5.1405,5.2489,5.5011,5.6787,5.7217,5.8419,5.937,5.8896,5.9415,5.8057,5.7111,5.6298,5.6929,5.6507,5.5763,5.5875,5.6757,5.7197,5.752,5.8722,5.9174,5.9806,6.1726,6.1871,6.2138,6.2219,6.2327,6.2327,6.2348,6.2265,6.2307,6.2617,6.2679,6.2679,6.2804,6.2948,6.3218,6.3611,6.4066,6.4087,6.4253,6.4894,6.5184,6.5267,6.535,6.5412,6.5412,6.5412,6.5412,6.5412,6.5412,6.5412,6.5412,6.537,6.5184,6.5143,6.5308,6.537,6.5308,6.5308,6.537,6.5412,6.5412,6.5412,6.5267,6.5101,6.4998,6.4894,6.4128,6.3342,6.3011,6.2741,6.2679,6.2679,6.2679,6.2679,6.2679,6.2679,6.2617,6.2597,6.2286,6.1893,6.1727,6.1735,6.1715,6.1611,6.1591,6.1694,6.157,6.1466,6.1404,6.1363,6.1404,6.1466,6.1322,6.1115,6.1085,6.0941,6.0754,6.0609,6.0444,6.0257,6.0154,6.003,5.9968,5.9968,4.1719,4.2455,4.4458,4.6543,4.8372,4.9508,5.0615,5.1693,5.305,5.4134,5.5028,5.6871,5.7853,5.8038,5.9082,5.9094,5.809,5.8649,5.7827,5.6497,5.6025,5.6603,5.6209,5.557,5.5863,5.6695,5.7649,5.8655,6.0598,6.11,6.1671,6.257,6.2659,6.2555,6.2307,6.2327,6.2307,6.2348,6.2307,6.2452,6.2679,6.27,6.2845,6.3011,6.3218,6.3528,6.4046,6.4522,6.4625,6.4604,6.4998,6.5018,6.5039,6.506,6.5225,6.535,6.5412,6.5412,6.5412,6.5412,6.5412,6.5412,6.5412,6.5246,6.5246,6.537,6.5205,6.5163,6.5329,6.5412,6.5412,6.5412,6.5412,6.535,6.4977,6.4708,6.4335,6.3714,6.3176,6.2845,6.2679,6.2679,6.2679,6.2679,6.2679,6.2679,6.2679,6.2679,6.2679,6.2679,6.2327,6.212,6.2162,6.2245,6.2203,6.2203,6.2224,6.2058,6.1831,6.1976,6.2038,6.1756,6.1611,6.1673,6.1611,6.1404,6.126,6.1189,6.0858,6.063,6.0444,6.0278,6.0175,6.0092,6.0071,4.2774,4.3524,4.5543,4.757,4.9397,5.1098,5.2164,5.2717,5.4193,5.5586,5.6468,5.7327,5.7054,5.734,5.8022,5.7446,5.7533,5.8701,5.8028,5.7249,5.7343,5.7239,5.6873,5.6456,5.6942,5.7821,5.8988,6.0492,6.2275,6.2296,6.2296,6.2625,6.2679,6.2679,6.2679,6.2679,6.2617,6.2597,6.2597,6.2638,6.27,6.2776,6.3003,6.3252,6.3507,6.3901,6.4377,6.4729,6.4936,6.4936,6.4853,6.4874,6.4894,6.4956,6.5163,6.5272,6.5412,6.5412,6.5412,6.5412,6.5412,6.5412,6.5412,6.5412,6.5391,6.5308,6.5143,6.5184,6.535,6.5391,6.5412,6.5412,6.5412,6.5163,6.4729,6.4253,6.3735,6.3356,6.3011,6.2679,6.2679,6.2679,6.2679,6.2679,6.2679,6.2679,6.2679,6.2679,6.2679,6.2679,6.2534,6.2431,6.2452,6.2534,6.2597,6.2555,6.2493,6.2472,6.2307,6.2534,6.2576,6.2162,6.1984,6.2327,6.2224,6.1901,6.1756,6.1686,6.1334,6.0982,6.0816,6.0692,6.0589,6.0506,6.0299,4.8036,5.0431,5.0562,5.1975,5.3976,5.291,5.3356,5.4409,5.1965,5.2327,5.5158,5.6059,5.689,5.9418,6.0721,6.0135,5.8233,5.9067,5.8161,5.7031,5.7255,5.7394,5.789,5.834,5.913,6.0091,6.1118,6.207,6.2679,6.2679,6.2679,6.2679,6.2679,6.2679,6.2679,6.2679,6.2679,6.2679,6.2679,6.2679,6.2824,6.2866,6.3024,6.3362,6.3901,6.388,6.4004,6.4377,6.4439,6.448,6.4542,6.4604,6.4729,6.4894,6.5143,6.5329,6.5412,6.537,6.535,6.5308,6.5288,6.5308,6.5308,6.535,6.537,6.5412,6.5308,6.5308,6.5412,6.537,6.537,6.5329,6.5288,6.4708,6.419,6.3632,6.3073,6.2948,6.2783,6.2679,6.2679,6.2679,6.2679,6.2679,6.2679,6.2679,6.2679,6.2679,6.2679,6.2679,6.2679,6.2638,6.2638,6.2679,6.2659,6.2659,6.2617,6.2659,6.2659,6.2617,6.2493,6.2286,6.2265,6.2265,6.2472,6.239,6.2265,6.2038,6.1913,6.1582,6.1355,6.1136,6.1044,6.092,6.0713]},{"header":{"parameterUnit":"m.s-1","parameterCategory":1,"la1":31.0,"la2":29.5877,"lo1":-88.7671,"lo2":-86.6584,"dy":0.0162,"dx":0.0185,"nx":115,"ny":88,"refTime":"2026-04-17T12:00:00:Z","depth":0,"parameterNumber":3,"parameterNumberName":"V-component_of_WINDS"},"data":[0.0,0.0,0.0,0.0,0.0,0.0,0.0,0.0,0.0,0.0,0.0,0.0,0.0,0.0,0.0,0.0,0.0,0.0,0.0,0.0,0.0,0.0,0.0,0.0,0.0,0.0,0.0,0.0,0.0,0.0,0.0,0.0,0.0,0.0,0.0,0.0,0.0,0.0,0.0,0.0,0.0,0.0,0.0,0.0,0.0,0.0,0.0,0.0,0.0,0.0,0.0,0.0,0.0,0.0,0.0,0.0,0.0,0.0,0.0,0.0,0.0,0.0,0.0,0.0,0.0,0.0,0.0,0.0,0.0,0.0,0.0,0.0,0.0,0.0,0.0,0.0,0.0,0.0,0.0,0.0,0.0,0.0,0.0,0.0,0.0,0.0,0.0,0.0,0.0,0.0,0.0,0.0,0.0,0.0,0.0,0.0,0.0,0.0,0.0,0.0,0.0,0.0,0.0,0.0,0.0,0.0,0.0,0.0,0.0,0.0,0.0,0.0,0.0,0.0,0.0,0.0,0.0,0.0,0.0,0.0,0.0,0.0,0.0,0.0,0.0,0.0,0.0,0.0,0.0,0.0,0.0,0.0,0.0,0.0,0.0,0.0,0.0,0.0,0.0,0.0,0.0,0.0,0.0,0.0,0.0,0.0,0.0,0.0,0.0,0.0,0.0,0.0,0.0,0.0,0.0,0.0,0.0,0.0,0.0,0.0,0.0,0.0,0.0,0.0,0.0,0.0,0.0,0.0,0.0,0.0,0.0,0.0,0.0,0.0,0.0,0.0,0.0,0.0,0.0,0.0,0.0,0.0,0.0,0.0,0.0,0.0,0.0,0.0,0.0,0.0,0.0,0.0,0.0,0.0,0.0,0.0,0.0,0.0,0.0,0.0,0.0,0.0,0.0,0.0,0.0,0.0,0.0,0.0,0.0,0.0,0.0,0.0,0.0,0.0,0.0,0.0,0.0,0.0,0.0,0.0,0.0,0.0,0.0,0.0,0.0,0.0,0.0,0.0,0.0,0.0,0.0,0.0,0.0,0.0,0.0,0.0,0.0,0.0,0.0,0.0,0.0,0.0,0.0,0.0,0.0,0.0,0.0,0.0,0.0,0.0,0.0,0.0,0.0,0.0,0.0,0.0,0.0,0.0,0.0,0.0,0.0,0.0,0.0,0.0,0.0,0.0,0.0,0.0,0.0,0.0,0.0,0.0,0.0,0.0,0.0,0.0,0.0,0.0,0.0,0.0,0.0,0.0,0.0,0.0,0.0,0.0,0.0,0.0,0.0,0.0,0.0,0.0,0.0,0.0,0.0,0.0,0.0,0.0,0.0,0.0,0.0,0.0,0.0,0.0,0.0,0.0,0.0,0.0,0.0,0.0,0.0,0.0,0.0,0.0,0.0,0.0,0.0,0.0,0.0,0.0,0.0,0.0,0.0,0.0,0.0,0.0,0.0,0.0,0.0,0.0,0.0,0.0,0.0,0.0,0.0,0.0,0.0,0.0,0.0,0.0,0.0,0.0,0.0,0.0,0.0,0.0,0.0,0.0,0.0,0.0,0.0,0.0,0.0,0.0,0.0,0.0,0.0,0.0,0.0,0.0,0.0,0.0,0.0,0.0,0.0,0.0,0.0,0.0,0.0,0.0,0.0,0.0,0.0,0.0,0.0,0.0,0.0,0.0,0.0,0.0,0.0,0.0,0.0,0.0,0.0,0.0,0.0,0.0,0.0,0.0,0.0,0.0,0.0,0.0,0.0,0.0,0.0,0.0,0.0,0.0,0.0,0.0,0.0,0.0,0.0,0.0,0.0,0.0,0.0,0.0,0.0,0.0,0.0,0.0,0.0,0.0,0.0,0.0,0.0,0.0,0.0,0.0,0.0,0.0,0.0,0.0,0.0,0.0,0.0,0.0,0.0,0.0,0.0,0.0,0.0,0.0,0.0,0.0,0.0,0.0,0.0,0.0,0.0,0.0,0.0,0.0,0.0,0.0,0.0,0.0,0.0,0.0,0.0,0.0,0.0,0.0,0.0,0.0,0.0,0.0,0.0,0.0,0.0,0.0,0.0,0.0,0.0,0.0,0.0,0.0,0.0,0.0,0.0,0.0,0.0,0.0,0.0,0.0,0.0,0.0,0.0,0.0,0.0,0.0,0.0,0.0,0.0,0.0,0.0,0.0,0.0,0.0,0.0,0.0,0.0,0.0,0.0,0.0,0.0,0.0,0.0,0.0,0.0,0.0,0.0,0.0,0.0,0.0,0.0,0.0,0.0,0.0,0.0,0.0,0.0,0.0,0.0,0.0,0.0,0.0,0.0,0.0,0.0,0.0,0.0,0.0,0.0,0.0,0.0,0.0,0.0,0.0,0.0,0.0,0.0,0.0,0.0,0.0,0.0,0.0,0.0,0.0,0.0,0.0,0.0,0.0,0.0,0.0,0.0,0.0,0.0,0.0,0.0,0.0,0.0,0.0,0.0,0.0,0.0,0.0,0.0,0.0,0.0,0.0,0.0,0.0,0.0,0.0,0.0,0.0,0.0,0.0,0.0,0.0,0.0,0.0,0.0,0.0,0.0,0.0,0.0,0.0,0.0,0.0,0.0,0.0,0.0,0.0,0.0,0.0,0.0,0.0,0.0,0.0,0.0,0.0,0.0,0.0,0.0,0.0,0.0,0.0,0.0,0.0,0.0,0.0,0.0,0.0,0.0,0.0,0.0,0.0,0.0,0.0,0.0,0.0,0.0,0.0,0.0,0.0,0.0,0.0,0.0,0.0,0.0,0.0,0.0,0.0,0.0,0.0,0.0,0.0,0.0,0.0,0.0,0.0,0.0,0.0,0.0,0.0,0.0,0.0,0.0,0.0,0.0,0.0,0.0,0.0,0.0,0.0,0.0,0.0,0.0,0.0,0.0,0.0,0.0,0.0,0.0,0.0,0.0,0.0,0.0,0.0,0.0,0.0,0.0,0.0,0.0,0.0,0.0,0.0,0.0,0.0,0.0,0.0,0.0,0.0,0.0,0.0,0.0,0.0,0.0,0.0,0.0,0.0,0.0,0.0,0.0,0.0,0.0,0.0,0.0,0.0,0.0,0.0,0.0,0.0,0.0,0.0,0.0,0.0,0.0,0.0,0.0,0.0,0.0,0.0,0.0,0.0,0.0,0.0,0.0,0.0,0.0,0.0,0.0,0.0,0.0,0.0,0.0,0.0,0.0,0.0,0.0,0.0,0.0,0.0,0.0,0.0,0.0,0.0,0.0,0.0,0.0,0.0,0.0,0.0,0.0,0.0,0.0,0.0,0.0,0.0,0.0,0.0,0.0,0.0,0.0,0.0,0.0,0.0,0.0,0.0,0.0,0.0,0.0,0.0,0.0,0.0,0.0,0.0,0.0,0.0,0.0,0.0,0.0,0.0,0.0,0.0,0.0,0.0,0.0,0.0,0.0,0.0,0.0,0.0,0.0,0.0,0.0,0.0,0.0,0.0,0.0,0.0,0.0,0.0,0.0,0.0,0.0,0.0,0.0,0.0,0.0,0.0,0.0,0.0,0.0,0.0,0.0,0.0,0.0,0.0,0.0,0.0,0.0,0.0,0.0,0.0,0.0,0.0,0.0,0.0,0.0,0.0,0.0,0.0,0.0,0.0,0.0,0.0,0.0,0.0,0.0,0.0,0.0,0.0,0.0,0.0,0.0,0.0,0.0,0.0,0.0,0.0,0.0,0.0,0.0,0.0,0.0,0.0,0.0,0.0,0.0,0.0,0.0,0.0,0.0,0.0,0.0,0.0,0.0,0.0,0.0,0.0,0.0,0.0,0.0,0.0,0.0,0.0,0.0,0.0,0.0,0.0,0.0,0.0,0.0,0.0,0.0,0.0,0.0,0.0,0.0,0.0,0.0,0.0,0.0,0.0,0.0,0.0,0.0,0.0,0.0,0.0,0.0,0.0,0.0,0.0,0.0,0.0,0.0,0.0,0.0,0.0,0.0,0.0,0.0,0.0,0.0,0.0,0.0,0.0,0.0,0.0,0.0,0.0,0.0,0.0,0.0,0.0,0.0,0.0,0.0,0.0,0.0,0.0,0.0,0.0,0.0,0.0,0.0,0.0,0.0,0.0,0.0,0.0,0.0,0.0,0.0,0.0,0.0,0.0,0.0,0.0,0.0,0.0,0.0,0.0,0.0,0.0,0.0,0.0,0.0,0.0,0.0,0.0,0.0,0.0,0.0,0.0,0.0,0.0,0.0,0.0,0.0,0.0,0.0,0.0,0.0,0.0,0.0,0.0,0.0,0.0,3.5182,0.0,0.0,0.0,0.0,0.0,0.0,0.0,0.0,0.0,0.0,0.0,0.0,0.0,0.0,0.0,0.0,0.0,0.0,0.0,0.0,0.0,0.0,0.0,0.0,0.0,0.0,0.0,0.0,0.0,0.0,0.0,0.0,0.0,0.0,0.0,0.0,0.0,0.0,0.0,0.0,0.0,0.0,0.0,0.0,0.0,0.0,0.0,0.0,0.0,0.0,0.0,0.0,0.0,0.0,0.0,0.0,0.0,0.0,0.0,0.0,0.0,0.0,0.0,0.0,0.0,0.0,0.0,0.0,0.0,0.0,0.0,0.0,0.0,0.0,0.0,0.0,0.0,0.0,0.0,0.0,0.0,0.0,0.0,0.0,0.0,0.0,0.0,0.0,0.0,0.0,0.0,0.0,0.0,0.0,0.0,0.0,0.0,0.0,0.0,0.0,0.0,0.0,0.0,0.0,0.0,0.0,0.0,0.0,0.0,0.0,3.7811,3.789,3.6886,3.6141,3.5785,0.0,0.0,0.0,0.0,0.0,0.0,0.0,0.0,0.0,0.0,0.0,0.0,0.0,0.0,0.0,0.0,0.0,0.0,0.0,0.0,0.0,0.0,0.0,0.0,0.0,0.0,0.0,0.0,0.0,0.0,0.0,0.0,0.0,0.0,0.0,0.0,0.0,0.0,0.0,0.0,0.0,0.0,0.0,0.0,0.0,0.0,0.0,0.0,0.0,0.0,0.0,0.0,0.0,0.0,0.0,0.0,0.0,0.0,0.0,0.0,0.0,0.0,0.0,0.0,0.0,0.0,0.0,0.0,0.0,0.0,0.0,0.0,0.0,0.0,0.0,0.0,0.0,0.0,0.0,0.0,0.0,0.0,0.0,0.0,0.0,0.0,0.0,0.0,0.0,0.0,0.0,0.0,0.0,0.0,0.0,0.0,0.0,0.0,0.0,0.0,0.0,0.0,0.0,0.0,0.0,0.0,0.0,0.0,0.0,0.0,0.0,0.0,3.7436,3.6627,3.6303,0.0,0.0,0.0,0.0,0.0,0.0,0.0,0.0,0.0,0.0,0.0,0.0,0.0,0.0,0.0,0.0,0.0,0.0,0.0,0.0,0.0,0.0,0.0,0.0,0.0,0.0,0.0,0.0,0.0,0.0,0.0,0.0,0.0,0.0,0.0,0.0,0.0,0.0,0.0,0.0,0.0,0.0,0.0,0.0,0.0,0.0,0.0,0.0,0.0,0.0,0.0,0.0,0.0,0.0,0.0,0.0,0.0,0.0,0.0,0.0,0.0,0.0,0.0,0.0,0.0,0.0,0.0,0.0,0.0,0.0,0.0,0.0,0.0,0.0,0.0,0.0,0.0,0.0,0.0,0.0,0.0,0.0,0.0,0.0,0.0,0.0,0.0,0.0,0.0,0.0,0.0,0.0,0.0,0.0,0.0,0.0,0.0,0.0,0.0,0.0,0.0,0.0,0.0,0.0,0.0,0.0,0.0,0.0,0.0,0.0,3.7987,3.9329,3.8602,0.0,3.6354,0.0,0.0,0.0,0.0,0.0,0.0,0.0,0.0,0.0,0.0,0.0,0.0,0.0,0.0,0.0,0.0,0.0,0.0,0.0,0.0,0.0,0.0,0.0,0.0,0.0,0.0,0.0,0.0,0.0,0.0,0.0,0.0,0.0,0.0,0.0,0.0,0.0,0.0,0.0,0.0,0.0,0.0,0.0,0.0,0.0,0.0,0.0,0.0,0.0,0.0,0.0,0.0,0.0,0.0,0.0,0.0,0.0,0.0,0.0,0.0,0.0,0.0,0.0,0.0,0.0,0.0,0.0,0.0,0.0,0.0,0.0,0.0,0.0,0.0,0.0,0.0,0.0,0.0,0.0,0.0,0.0,0.0,0.0,0.0,0.0,0.0,0.0,0.0,0.0,0.0,0.0,0.0,0.0,0.0,0.0,0.0,0.0,0.0,0.0,0.0,0.0,0.0,0.0,0.0,0.0,0.0,0.0,0.0,0.0,0.0,0.0,3.8167,3.708,3.6024,0.0,0.0,0.0,0.0,0.0,0.0,0.0,0.0,0.0,0.0,0.0,0.0,0.0,0.0,0.0,0.0,0.0,0.0,0.0,0.0,0.0,0.0,0.0,0.0,0.0,0.0,0.0,0.0,0.0,0.0,0.0,0.0,0.0,0.0,0.0,0.0,0.0,0.0,0.0,0.0,0.0,0.0,0.0,0.0,0.0,0.0,0.0,0.0,0.0,0.0,0.0,0.0,0.0,0.0,0.0,0.0,0.0,0.0,0.0,0.0,0.0,0.0,0.0,0.0,0.0,0.0,0.0,0.0,0.0,0.0,0.0,0.0,0.0,0.0,0.0,0.0,0.0,0.0,0.0,0.0,0.0,0.0,0.0,0.0,0.0,0.0,0.0,0.0,0.0,0.0,0.0,0.0,0.0,0.0,0.0,0.0,0.0,0.0,0.0,0.0,0.0,0.0,0.0,0.0,0.0,0.0,0.0,0.0,0.0,0.0,3.7325,0.0,3.7519,3.6432,3.5331,3.4437,0.0,0.0,0.0,0.0,0.0,0.0,0.0,0.0,0.0,0.0,0.0,0.0,0.0,0.0,0.0,0.0,0.0,0.0,0.0,0.0,0.0,0.0,0.0,0.0,0.0,0.0,0.0,0.0,0.0,0.0,0.0,0.0,0.0,0.0,0.0,0.0,0.0,0.0,0.0,0.0,0.0,0.0,0.0,0.0,0.0,0.0,0.0,0.0,0.0,0.0,0.0,0.0,0.0,0.0,0.0,0.0,0.0,0.0,0.0,0.0,0.0,0.0,0.0,0.0,0.0,0.0,0.0,0.0,0.0,0.0,0.0,0.0,0.0,0.0,0.0,0.0,0.0,0.0,0.0,0.0,0.0,0.0,0.0,0.0,0.0,0.0,0.0,0.0,0.0,0.0,0.0,0.0,0.0,0.0,0.0,0.0,0.0,0.0,0.0,0.0,0.0,0.0,0.0,0.0,0.0,0.0,0.0,0.0,0.0,3.7371,3.6983,3.8264,3.7598,3.6562,0.0,0.0,0.0,0.0,0.0,0.0,0.0,0.0,0.0,0.0,0.0,0.0,0.0,0.0,0.0,0.0,0.0,0.0,0.0,0.0,0.0,0.0,0.0,0.0,0.0,0.0,0.0,0.0,0.0,0.0,0.0,0.0,0.0,0.0,0.0,0.0,0.0,0.0,0.0,0.0,0.0,0.0,0.0,0.0,0.0,0.0,0.0,0.0,0.0,0.0,0.0,0.0,0.0,0.0,0.0,0.0,0.0,0.0,0.0,0.0,0.0,0.0,0.0,0.0,0.0,0.0,0.0,0.0,0.0,0.0,0.0,0.0,0.0,0.0,0.0,0.0,0.0,0.0,0.0,0.0,0.0,0.0,0.0,0.0,0.0,0.0,0.0,0.0,0.0,0.0,0.0,0.0,0.0,0.0,0.0,0.0,0.0,0.0,0.0,0.0,0.0,0.0,0.0,0.0,0.0,0.0,0.0,0.0,0.0,3.6672,3.5992,3.6457,3.8086,3.5907,3.4516,0.0,0.0,0.0,0.0,0.0,0.0,0.0,0.0,0.0,0.0,0.0,0.0,0.0,0.0,0.0,0.0,0.0,0.0,0.0,0.0,0.0,0.0,0.0,0.0,0.0,0.0,0.0,0.0,0.0,0.0,0.0,0.0,0.0,0.0,0.0,0.0,0.0,0.0,0.0,0.0,0.0,0.0,0.0,0.0,0.0,0.0,0.0,0.0,0.0,0.0,0.0,0.0,0.0,0.0,0.0,0.0,0.0,0.0,0.0,0.0,0.0,0.0,0.0,0.0,0.0,0.0,0.0,0.0,0.0,0.0,0.0,0.0,0.0,0.0,0.0,0.0,0.0,0.0,0.0,0.0,0.0,0.0,0.0,0.0,0.0,0.0,0.0,0.0,0.0,0.0,0.0,0.0,0.0,0.0,0.0,0.0,0.0,0.0,0.0,0.0,0.0,0.0,0.0,0.0,0.0,0.0,0.0,0.0,0.0,3.5539,0.0,3.6683,0.0,3.5344,3.3869,0.0,0.0,0.0,0.0,0.0,0.0,0.0,0.0,0.0,0.0,0.0,0.0,0.0,0.0,0.0,0.0,0.0,0.0,0.0,0.0,0.0,0.0,0.0,0.0,0.0,0.0,0.0,0.0,0.0,0.0,0.0,0.0,0.0,0.0,0.0,0.0,0.0,0.0,0.0,0.0,0.0,0.0,0.0,0.0,0.0,0.0,0.0,0.0,0.0,0.0,0.0,0.0,0.0,0.0,0.0,0.0,0.0,0.0,0.0,0.0,0.0,0.0,0.0,0.0,0.0,0.0,0.0,0.0,0.0,0.0,0.0,0.0,0.0,0.0,0.0,0.0,0.0,0.0,0.0,0.0,0.0,0.0,0.0,0.0,0.0,0.0,0.0,0.0,0.0,0.0,0.0,0.0,0.0,0.0,0.0,0.0,0.0,0.0,0.0,0.0,0.0,0.0,0.0,0.0,0.0,0.0,0.0,0.0,3.5558,3.6257,3.7598,3.7649,3.6386,3.6225,3.4897,0.0,0.0,0.0,0.0,0.0,0.0,0.0,0.0,0.0,0.0,0.0,0.0,0.0,0.0,0.0,0.0,0.0,0.0,0.0,0.0,0.0,0.0,0.0,0.0,0.0,0.0,0.0,0.0,0.0,0.0,0.0,0.0,0.0,0.0,0.0,0.0,0.0,0.0,0.0,0.0,0.0,0.0,0.0,0.0,0.0,0.0,0.0,0.0,0.0,0.0,0.0,0.0,0.0,0.0,0.0,0.0,0.0,0.0,0.0,0.0,0.0,0.0,0.0,0.0,0.0,0.0,0.0,0.0,0.0,0.0,0.0,0.0,0.0,0.0,0.0,0.0,0.0,0.0,0.0,0.0,0.0,0.0,0.0,0.0,0.0,0.0,0.0,0.0,0.0,0.0,0.0,0.0,0.0,0.0,0.0,0.0,0.0,0.0,0.0,0.0,0.0,0.0,0.0,0.0,0.0,0.0,0.0,0.0,0.0,3.5603,3.6918,3.764,3.757,3.5764,3.4762,0.0,0.0,0.0,0.0,0.0,0.0,0.0,0.0,0.0,0.0,0.0,0.0,0.0,0.0,0.0,0.0,0.0,0.0,0.0,0.0,0.0,0.0,0.0,0.0,0.0,0.0,0.0,0.0,0.0,0.0,0.0,0.0,0.0,0.0,0.0,0.0,0.0,0.0,0.0,0.0,0.0,0.0,0.0,0.0,0.0,0.0,0.0,0.0,0.0,0.0,0.0,0.0,0.0,0.0,0.0,0.0,0.0,0.0,0.0,0.0,0.0,0.0,0.0,0.0,0.0,0.0,0.0,0.0,0.0,0.0,0.0,0.0,0.0,0.0,0.0,0.0,0.0,0.0,0.0,0.0,0.0,0.0,0.0,0.0,0.0,0.0,0.0,0.0,0.0,0.0,0.0,0.0,0.0,0.0,0.0,0.0,0.0,0.0,0.0,0.0,0.0,0.0,0.0,0.0,0.0,0.0,0.0,0.0,0.0,3.7658,3.8454,3.8904,3.8938,3.6836,3.557,3.5284,0.0,0.0,0.0,0.0,0.0,0.0,0.0,0.0,0.0,0.0,0.0,0.0,0.0,0.0,0.0,0.0,0.0,0.0,0.0,0.0,0.0,0.0,0.0,0.0,0.0,0.0,0.0,0.0,0.0,0.0,0.0,0.0,0.0,0.0,0.0,0.0,0.0,0.0,0.0,0.0,0.0,0.0,0.0,0.0,0.0,0.0,0.0,0.0,0.0,0.0,0.0,0.0,0.0,0.0,0.0,0.0,0.0,0.0,0.0,0.0,0.0,0.0,0.0,0.0,0.0,0.0,0.0,0.0,0.0,0.0,0.0,0.0,0.0,0.0,0.0,0.0,0.0,0.0,0.0,0.0,0.0,0.0,0.0,0.0,0.0,0.0,0.0,0.0,0.0,0.0,0.0,0.0,0.0,0.0,0.0,0.0,0.0,0.0,0.0,0.0,0.0,0.0,0.0,0.0,0.0,0.0,0.0,0.0,4.1791,4.1921,4.1505,4.0517,3.9181,3.7242,0.0,0.0,0.0,0.0,0.0,0.0,0.0,0.0,0.0,0.0,0.0,0.0,0.0,0.0,0.0,0.0,0.0,0.0,0.0,0.0,0.0,0.0,0.0,0.0,0.0,0.0,0.0,0.0,0.0,0.0,0.0,0.0,0.0,0.0,0.0,0.0,0.0,0.0,0.0,0.0,0.0,0.0,0.0,0.0,0.0,0.0,0.0,0.0,0.0,0.0,0.0,0.0,0.0,0.0,0.0,0.0,0.0,0.0,0.0,0.0,0.0,0.0,0.0,0.0,0.0,0.0,0.0,0.0,0.0,0.0,0.0,0.0,0.0,0.0,0.0,0.0,0.0,0.0,0.0,0.0,0.0,0.0,0.0,0.0,0.0,0.0,0.0,0.0,0.0,0.0,0.0,0.0,0.0,0.0,0.0,0.0,0.0,0.0,0.0,0.0,0.0,0.0,0.0,0.0,0.0,0.0,0.0,0.0,0.0,4.4411,4.5691,4.5483,4.3654,4.1242,3.9347,0.0,0.0,0.0,0.0,0.0,0.0,0.0,0.0,0.0,0.0,0.0,0.0,0.0,0.0,0.0,0.0,0.0,0.0,0.0,0.0,0.0,0.0,0.0,0.0,0.0,0.0,0.0,0.0,0.0,0.0,0.0,0.0,0.0,0.0,0.0,0.0,0.0,0.0,0.0,0.0,0.0,0.0,0.0,0.0,0.0,0.0,0.0,0.0,0.0,0.0,0.0,0.0,0.0,0.0,0.0,0.0,0.0,0.0,0.0,0.0,0.0,0.0,0.0,0.0,0.0,0.0,0.0,0.0,0.0,0.0,0.0,0.0,0.0,0.0,0.0,0.0,0.0,0.0,0.0,0.0,0.0,0.0,0.0,0.0,0.0,0.0,0.0,0.0,0.0,0.0,0.0,0.0,0.0,0.0,0.0,0.0,0.0,0.0,0.0,0.0,0.0,0.0,0.0,0.0,0.0,0.0,0.0,0.0,4.3816,4.6927,4.9119,4.9335,4.754,4.4399,4.1731,0.0,0.0,0.0,0.0,0.0,0.0,0.0,0.0,0.0,0.0,0.0,0.0,0.0,0.0,0.0,0.0,0.0,0.0,0.0,0.0,0.0,0.0,0.0,0.0,0.0,0.0,0.0,0.0,0.0,0.0,0.0,0.0,0.0,0.0,0.0,0.0,0.0,0.0,0.0,0.0,0.0,0.0,0.0,0.0,0.0,0.0,0.0,0.0,0.0,0.0,0.0,0.0,0.0,0.0,0.0,0.0,0.0,0.0,0.0,0.0,0.0,0.0,0.0,0.0,0.0,0.0,0.0,0.0,0.0,0.0,0.0,0.0,0.0,0.0,0.0,0.0,0.0,0.0,0.0,0.0,0.0,0.0,0.0,0.0,0.0,0.0,0.0,0.0,0.0,0.0,0.0,0.0,0.0,0.0,0.0,0.0,0.0,0.0,0.0,0.0,0.0,0.0,0.0,0.0,0.0,0.0,0.0,0.0,4.6309,4.9174,5.1893,5.2734,5.144,4.7864,4.4154,0.0,0.0,0.0,0.0,0.0,0.0,0.0,0.0,0.0,0.0,0.0,0.0,0.0,0.0,0.0,0.0,0.0,0.0,0.0,0.0,0.0,0.0,0.0,0.0,0.0,0.0,0.0,0.0,0.0,0.0,0.0,0.0,0.0,0.0,0.0,0.0,0.0,0.0,0.0,0.0,0.0,0.0,0.0,0.0,0.0,0.0,0.0,0.0,0.0,0.0,0.0,0.0,0.0,0.0,0.0,0.0,0.0,0.0,0.0,0.0,0.0,0.0,0.0,0.0,0.0,0.0,0.0,0.0,0.0,0.0,0.0,0.0,0.0,0.0,0.0,0.0,0.0,0.0,0.0,0.0,0.0,0.0,0.0,0.0,0.0,0.0,0.0,0.0,0.0,0.0,0.0,0.0,0.0,0.0,0.0,0.0,0.0,0.0,0.0,0.0,0.0,0.0,0.0,0.0,0.0,0.0,0.0,0.0,4.7249,5.0668,5.2411,5.3355,5.3475,4.9054,4.5207,0.0,0.0,0.0,0.0,0.0,0.0,0.0,0.0,0.0,0.0,0.0,0.0,0.0,0.0,0.0,0.0,0.0,0.0,0.0,0.0,0.0,0.0,0.0,0.0,0.0,0.0,0.0,0.0,0.0,0.0,0.0,0.0,0.0,0.0,0.0,0.0,0.0,0.0,0.0,0.0,0.0,0.0,0.0,0.0,0.0,0.0,0.0,0.0,4.1472,0.0,0.0,0.0,0.0,0.0,0.0,0.0,0.0,0.0,0.0,0.0,0.0,0.0,0.0,0.0,0.0,0.0,0.0,0.0,0.0,0.0,0.0,0.0,0.0,0.0,0.0,0.0,0.0,0.0,0.0,0.0,0.0,0.0,0.0,0.0,0.0,0.0,0.0,0.0,0.0,0.0,0.0,0.0,0.0,0.0,0.0,0.0,0.0,0.0,0.0,0.0,0.0,0.0,0.0,0.0,0.0,0.0,0.0,0.0,4.8882,5.2106,5.3544,5.4281,5.4136,5.0773,4.7341,0.0,0.0,0.0,0.0,0.0,0.0,0.0,0.0,0.0,0.0,0.0,0.0,0.0,0.0,0.0,0.0,0.0,0.0,0.0,0.0,0.0,0.0,0.0,0.0,0.0,0.0,0.0,0.0,0.0,0.0,0.0,0.0,0.0,0.0,0.0,0.0,0.0,0.0,0.0,0.0,0.0,0.0,0.0,0.0,0.0,0.0,0.0,0.0,0.0,0.0,0.0,0.0,0.0,0.0,0.0,0.0,0.0,0.0,0.0,0.0,0.0,0.0,0.0,0.0,0.0,0.0,0.0,0.0,0.0,0.0,0.0,0.0,0.0,0.0,0.0,0.0,0.0,0.0,0.0,0.0,0.0,0.0,0.0,0.0,0.0,0.0,0.0,0.0,0.0,0.0,0.0,0.0,0.0,0.0,0.0,0.0,0.0,0.0,0.0,0.0,0.0,0.0,0.0,0.0,0.0,0.0,0.0,4.697,5.032,5.335,5.4742,5.513,5.4535,5.2482,4.9517,4.5719,0.0,0.0,0.0,0.0,0.0,0.0,0.0,0.0,0.0,0.0,0.0,0.0,0.0,0.0,0.0,0.0,0.0,0.0,0.0,0.0,0.0,0.0,0.0,0.0,0.0,0.0,0.0,0.0,0.0,0.0,0.0,0.0,0.0,0.0,0.0,0.0,0.0,0.0,4.113,4.2958,0.0,0.0,0.0,0.0,0.0,0.0,0.0,0.0,4.2363,0.0,0.0,0.0,0.0,0.0,0.0,0.0,0.0,0.0,0.0,0.0,0.0,0.0,0.0,0.0,0.0,0.0,0.0,0.0,0.0,0.0,0.0,0.0,0.0,0.0,0.0,0.0,0.0,0.0,0.0,0.0,0.0,0.0,0.0,0.0,0.0,0.0,0.0,0.0,0.0,0.0,0.0,0.0,0.0,0.0,0.0,0.0,0.0,0.0,0.0,0.0,0.0,0.0,0.0,0.0,0.0,4.7005,4.7658,4.995,5.4114,5.5001,5.5357,5.5195,5.3175,5.0339,4.6791,0.0,0.0,0.0,0.0,0.0,0.0,0.0,0.0,0.0,0.0,0.0,0.0,0.0,0.0,0.0,0.0,0.0,0.0,0.0,0.0,0.0,0.0,0.0,0.0,0.0,0.0,0.0,0.0,0.0,0.0,0.0,0.0,0.0,0.0,0.0,0.0,0.0,0.0,0.0,4.5707,4.6666,0.0,0.0,0.0,0.0,0.0,0.0,0.0,0.0,4.299,0.0,0.0,0.0,0.0,0.0,0.0,0.0,0.0,0.0,0.0,0.0,0.0,0.0,0.0,0.0,0.0,0.0,0.0,0.0,0.0,0.0,0.0,0.0,0.0,0.0,0.0,0.0,0.0,0.0,0.0,0.0,0.0,0.0,0.0,0.0,0.0,0.0,0.0,0.0,0.0,0.0,0.0,0.0,0.0,0.0,0.0,0.0,0.0,0.0,0.0,0.0,0.0,0.0,0.0,0.0,4.6592,4.9044,5.1737,5.4794,5.547,5.5726,5.556,5.2875,5.0044,0.0,0.0,0.0,0.0,0.0,0.0,0.0,0.0,0.0,0.0,0.0,0.0,0.0,0.0,0.0,0.0,0.0,0.0,0.0,0.0,0.0,0.0,0.0,0.0,0.0,0.0,0.0,0.0,0.0,0.0,0.0,0.0,0.0,0.0,0.0,0.0,0.0,0.0,0.0,0.0,4.7229,4.7993,4.9451,0.0,0.0,0.0,0.0,0.0,0.0,4.4293,4.3694,0.0,0.0,0.0,0.0,0.0,0.0,0.0,0.0,0.0,0.0,0.0,0.0,0.0,0.0,0.0,0.0,0.0,0.0,0.0,0.0,0.0,0.0,0.0,0.0,0.0,0.0,0.0,0.0,0.0,0.0,0.0,0.0,0.0,0.0,0.0,0.0,0.0,0.0,0.0,0.0,0.0,0.0,0.0,0.0,0.0,0.0,0.0,0.0,0.0,0.0,0.0,0.0,0.0,0.0,0.0,4.6175,5.0444,5.3623,5.5649,5.6123,5.619,5.5814,5.2651,4.9773,0.0,0.0,0.0,0.0,0.0,0.0,0.0,0.0,0.0,0.0,0.0,0.0,0.0,0.0,0.0,0.0,0.0,0.0,0.0,0.0,0.0,0.0,0.0,0.0,0.0,0.0,0.0,0.0,0.0,0.0,0.0,0.0,0.0,0.0,0.0,0.0,0.0,0.0,0.0,0.0,0.0,4.94,5.0903,4.8853,0.0,0.0,0.0,0.0,4.5982,4.6275,0.0,0.0,0.0,0.0,0.0,0.0,0.0,0.0,0.0,0.0,0.0,0.0,0.0,0.0,0.0,0.0,0.0,0.0,0.0,0.0,0.0,0.0,0.0,0.0,0.0,0.0,0.0,0.0,0.0,0.0,0.0,0.0,0.0,0.0,0.0,0.0,0.0,0.0,0.0,0.0,0.0,0.0,0.0,0.0,0.0,0.0,0.0,0.0,0.0,0.0,0.0,0.0,0.0,0.0,0.0,0.0,4.79,5.1084,5.4064,5.6812,5.7036,5.6741,5.6066,5.3203,5.032,0.0,0.0,0.0,0.0,0.0,0.0,0.0,0.0,0.0,0.0,0.0,0.0,0.0,0.0,0.0,0.0,0.0,0.0,0.0,0.0,0.0,0.0,0.0,0.0,0.0,0.0,0.0,0.0,0.0,0.0,0.0,0.0,0.0,0.0,0.0,0.0,0.0,0.0,0.0,0.0,0.0,5.1531,5.1024,4.9586,4.8752,0.0,0.0,4.9508,5.0339,5.2385,0.0,0.0,0.0,0.0,0.0,0.0,0.0,0.0,0.0,0.0,0.0,0.0,0.0,0.0,0.0,0.0,0.0,0.0,0.0,0.0,0.0,0.0,0.0,0.0,0.0,0.0,0.0,0.0,0.0,0.0,0.0,0.0,0.0,0.0,0.0,0.0,0.0,0.0,0.0,0.0,0.0,0.0,0.0,0.0,0.0,0.0,0.0,0.0,0.0,0.0,0.0,0.0,0.0,0.0,0.0,4.4462,4.8189,5.2543,5.5772,5.7732,5.8054,5.7752,5.6908,5.3404,5.0291,0.0,0.0,0.0,0.0,0.0,0.0,0.0,0.0,0.0,0.0,0.0,0.0,0.0,0.0,0.0,0.0,0.0,0.0,0.0,0.0,0.0,0.0,0.0,0.0,0.0,0.0,0.0,0.0,0.0,0.0,0.0,0.0,0.0,0.0,0.0,0.0,0.0,0.0,0.0,0.0,0.0,0.0,5.3316,5.2494,0.0,0.0,0.0,5.2184,5.2359,0.0,0.0,0.0,0.0,0.0,0.0,0.0,0.0,0.0,0.0,0.0,0.0,0.0,0.0,0.0,0.0,0.0,0.0,0.0,0.0,0.0,0.0,0.0,0.0,0.0,0.0,0.0,0.0,0.0,0.0,0.0,0.0,0.0,0.0,0.0,0.0,0.0,0.0,0.0,0.0,0.0,0.0,0.0,0.0,0.0,0.0,0.0,0.0,0.0,0.0,0.0,0.0,0.0,0.0,0.0,0.0,0.0,4.862,5.4147,5.7575,5.8684,5.9036,5.8654,5.7556,5.4022,0.0,0.0,0.0,0.0,0.0,0.0,0.0,0.0,0.0,0.0,0.0,0.0,0.0,0.0,0.0,0.0,0.0,0.0,0.0,0.0,0.0,0.0,0.0,0.0,0.0,0.0,0.0,3.3014,0.0,0.0,0.0,0.0,0.0,0.0,0.0,0.0,0.0,0.0,0.0,0.0,0.0,0.0,5.3341,5.536,5.5395,5.5654,0.0,0.0,5.521,5.4928,5.6408,5.5958,0.0,0.0,0.0,0.0,0.0,0.0,0.0,0.0,0.0,0.0,0.0,0.0,0.0,0.0,0.0,0.0,0.0,0.0,0.0,0.0,0.0,0.0,0.0,0.0,0.0,0.0,0.0,0.0,0.0,0.0,0.0,0.0,0.0,0.0,0.0,0.0,0.0,0.0,0.0,0.0,0.0,0.0,0.0,0.0,0.0,0.0,0.0,0.0,0.0,0.0,0.0,0.0,0.0,0.0,0.0,4.9929,5.5723,5.9091,5.9886,5.9906,5.9231,5.7787,5.5502,5.1991,0.0,0.0,0.0,0.0,0.0,0.0,0.0,0.0,0.0,0.0,0.0,0.0,0.0,0.0,0.0,0.0,0.0,0.0,0.0,0.0,0.0,0.0,0.0,0.0,0.0,0.0,0.0,0.0,0.0,0.0,0.0,0.0,0.0,0.0,0.0,0.0,0.0,0.0,0.0,0.0,0.0,5.4713,5.6076,5.7419,5.9025,0.0,0.0,5.9317,5.9274,6.2067,6.1504,5.3217,0.0,0.0,0.0,0.0,0.0,0.0,0.0,0.0,0.0,0.0,0.0,0.0,0.0,0.0,0.0,0.0,0.0,0.0,0.0,0.0,0.0,0.0,0.0,0.0,0.0,0.0,0.0,0.0,0.0,0.0,0.0,0.0,0.0,0.0,0.0,0.0,0.0,0.0,0.0,0.0,0.0,0.0,0.0,0.0,0.0,0.0,0.0,0.0,0.0,0.0,0.0,0.0,0.0,4.7787,5.0656,5.7,6.0622,6.1339,6.1372,6.0676,5.9198,5.7011,5.3699,0.0,0.0,0.0,0.0,0.0,0.0,0.0,0.0,0.0,0.0,0.0,0.0,0.0,0.0,0.0,0.0,0.0,0.0,0.0,0.0,0.0,0.0,0.0,0.0,0.0,0.0,0.0,0.0,3.9413,4.0107,4.0168,0.0,0.0,0.0,0.0,0.0,0.0,0.0,0.0,0.0,0.0,5.6741,5.9919,6.087,0.0,0.0,6.3246,6.221,6.1724,6.2081,6.0536,5.5004,5.2398,0.0,0.0,0.0,0.0,0.0,0.0,0.0,0.0,0.0,0.0,0.0,0.0,0.0,0.0,0.0,0.0,0.0,0.0,0.0,0.0,0.0,0.0,0.0,0.0,0.0,0.0,0.0,0.0,0.0,0.0,0.0,0.0,0.0,0.0,0.0,0.0,0.0,0.0,0.0,0.0,0.0,0.0,0.0,0.0,0.0,0.0,0.0,0.0,0.0,0.0,0.0,0.0,4.8613,5.142,5.7813,6.155,6.2498,6.2532,6.1836,6.0357,5.8601,5.5421,0.0,0.0,0.0,0.0,0.0,0.0,0.0,0.0,0.0,0.0,0.0,0.0,0.0,0.0,0.0,0.0,0.0,0.0,0.0,0.0,0.0,0.0,0.0,0.0,0.0,0.0,0.0,0.0,4.1926,4.2266,4.2174,0.0,0.0,0.0,0.0,0.0,0.0,0.0,0.0,0.0,0.0,5.9207,6.2613,6.3523,6.4388,6.5772,6.4688,6.3473,6.2978,6.2242,6.0439,5.6589,0.0,0.0,0.0,0.0,0.0,0.0,0.0,0.0,0.0,0.0,0.0,0.0,0.0,0.0,0.0,0.0,0.0,0.0,0.0,0.0,0.0,0.0,0.0,0.0,0.0,0.0,0.0,4.0495,0.0,0.0,3.9505,0.0,0.0,0.0,0.0,0.0,0.0,0.0,0.0,0.0,0.0,0.0,0.0,0.0,0.0,0.0,0.0,0.0,0.0,0.0,0.0,0.0,0.0,4.9425,5.2373,5.8204,6.1848,6.3227,6.3294,6.2598,6.1152,6.0324,5.721,5.143,0.0,0.0,0.0,0.0,0.0,0.0,0.0,0.0,0.0,0.0,0.0,0.0,0.0,0.0,0.0,0.0,0.0,0.0,0.0,0.0,0.0,0.0,0.0,0.0,0.0,0.0,4.1511,4.1537,4.1859,0.0,0.0,0.0,0.0,0.0,0.0,0.0,0.0,0.0,0.0,5.8561,6.2151,6.3402,6.4981,6.5902,6.5811,6.4205,6.2978,6.2955,6.3441,6.2432,0.0,0.0,0.0,0.0,0.0,0.0,0.0,0.0,0.0,0.0,0.0,0.0,0.0,0.0,0.0,0.0,0.0,0.0,0.0,0.0,0.0,0.0,0.0,0.0,0.0,0.0,0.0,4.6748,4.5195,0.0,0.0,0.0,0.0,0.0,0.0,0.0,0.0,0.0,0.0,0.0,5.2136,5.314,0.0,0.0,0.0,0.0,0.0,0.0,0.0,0.0,0.0,0.0,0.0,0.0,5.0419,5.3864,5.9582,6.3029,6.399,6.4023,6.3559,6.2598,6.1384,5.7773,5.1497,0.0,0.0,0.0,0.0,0.0,0.0,0.0,0.0,0.0,0.0,0.0,0.0,0.0,0.0,0.0,0.0,0.0,0.0,0.0,0.0,0.0,0.0,0.0,0.0,0.0,4.3654,0.0,0.0,0.0,0.0,0.0,0.0,0.0,0.0,0.0,0.0,0.0,5.3563,5.6175,5.9587,6.2455,6.427,6.5409,6.659,0.0,0.0,0.0,0.0,0.0,0.0,0.0,0.0,0.0,0.0,0.0,0.0,0.0,0.0,6.1391,5.3337,5.2035,5.2178,5.2216,0.0,0.0,0.0,0.0,0.0,0.0,0.0,0.0,0.0,0.0,0.0,0.0,0.0,0.0,5.1197,4.9508,4.9392,0.0,0.0,0.0,0.0,0.0,0.0,0.0,0.0,5.5688,5.745,5.748,5.8514,5.8197,0.0,5.4816,5.1045,0.0,0.0,0.0,0.0,0.0,0.0,0.0,0.0,5.191,5.5355,6.1053,6.4266,6.473,6.4995,6.4664,6.3691,6.1748,5.8469,5.3717,5.0502,4.7239,0.0,0.0,0.0,0.0,0.0,0.0,0.0,0.0,0.0,0.0,0.0,0.0,0.0,0.0,0.0,0.0,0.0,0.0,0.0,0.0,0.0,0.0,0.0,4.5351,0.0,0.0,0.0,0.0,0.0,0.0,0.0,0.0,0.0,5.1394,5.4373,5.7514,5.9846,6.2404,6.4324,6.5134,0.0,0.0,0.0,0.0,0.0,0.0,0.0,6.222,6.1983,6.132,6.1394,6.3094,6.629,6.8201,6.6744,0.0,0.0,5.9231,5.813,5.8453,5.8453,5.9004,5.964,6.0241,6.1181,6.197,0.0,0.0,0.0,0.0,0.0,0.0,0.0,0.0,5.5207,5.4752,0.0,5.3339,0.0,0.0,0.0,0.0,5.0392,5.4519,0.0,0.0,6.2986,6.4399,6.2598,6.3227,6.2775,6.1417,6.1231,5.931,5.5634,4.9491,0.0,0.0,0.0,0.0,0.0,0.0,5.3949,5.6964,6.251,6.5403,6.5502,6.6132,6.5823,6.4387,6.1649,5.9463,5.7839,5.4479,5.1247,4.8332,4.5401,0.0,0.0,0.0,0.0,0.0,0.0,0.0,0.0,0.0,0.0,0.0,0.0,0.0,0.0,0.0,0.0,0.0,0.0,0.0,0.0,4.6612,0.0,0.0,0.0,0.0,0.0,0.0,0.0,0.0,0.0,0.0,5.6139,5.8799,6.1886,6.4542,0.0,0.0,0.0,0.0,6.7414,6.5384,6.4593,6.4356,6.4453,6.6031,6.7003,6.6388,0.0,0.0,6.8816,7.0241,7.0889,6.8136,7.0105,7.0986,6.8881,6.7003,6.6096,6.6129,6.5643,6.5554,6.6201,6.659,6.6841,6.1603,0.0,0.0,0.0,0.0,5.8335,6.0084,6.2683,6.2494,6.1688,6.0287,5.9221,0.0,0.0,0.0,0.0,0.0,0.0,6.025,6.2543,6.5569,6.7479,6.8407,6.8606,6.8208,6.7281,6.5701,6.4145,6.2489,5.9185,5.3485,4.5781,0.0,0.0,0.0,0.0,5.6647,6.0543,6.3769,6.59,6.696,6.6662,6.5823,6.4454,6.3592,6.2233,6.0225,5.8138,5.5686,5.2753,4.9872,0.0,0.0,0.0,0.0,0.0,0.0,0.0,0.0,0.0,0.0,0.0,0.0,0.0,0.0,0.0,0.0,0.0,0.0,0.0,4.6677,4.7291,4.7767,0.0,0.0,0.0,0.0,0.0,0.0,0.0,0.0,0.0,6.4849,6.403,6.3622,0.0,0.0,6.6387,6.4729,6.6769,6.8726,6.9387,6.9381,0.0,7.1342,7.0403,6.9756,7.0533,7.2987,7.4692,7.4409,7.5876,7.6772,7.5673,7.6396,7.6804,7.5867,7.2541,7.0274,7.0533,7.0889,7.1537,7.267,7.335,7.3739,6.9155,6.4575,6.2273,6.2306,6.3914,6.4388,6.6053,6.8508,6.8469,6.7645,6.6276,6.5392,6.2808,5.8979,5.7389,0.0,0.0,0.0,6.3868,6.6982,6.8307,6.9798,7.1256,7.1322,7.109,7.0593,6.9036,6.7854,6.7115,6.4962,6.0245,5.3153,0.0,0.0,5.2638,5.6031,5.9529,6.2962,6.5459,6.7016,6.7589,6.7158,6.6529,6.5724,6.5392,6.4465,6.2875,6.1417,5.9562,5.719,5.4343,5.1212,0.0,0.0,0.0,0.0,0.0,0.0,0.0,0.0,0.0,0.0,0.0,4.4039,0.0,0.0,0.0,0.0,4.6156,4.8114,4.9714,5.0093,0.0,0.0,0.0,0.0,0.0,0.0,0.0,6.1128,6.4439,6.7579,7.0256,6.9148,6.8168,6.8389,6.8863,6.8879,6.7859,0.0,7.1334,7.2483,7.2514,7.2987,7.4513,7.3863,7.363,7.5163,7.6826,7.8084,7.8409,7.9533,8.0341,8.0164,8.0055,7.9949,7.9715,7.692,7.4811,7.5157,7.5474,7.6057,7.7097,7.7504,7.7711,7.5157,7.4097,6.8771,6.7579,6.9259,6.9931,7.1024,7.2382,7.2978,7.2515,7.1256,7.1123,6.8771,6.4785,6.208,0.0,6.4862,6.5657,6.7844,7.1057,7.1123,7.1554,7.225,7.2216,7.2183,7.215,7.1421,7.0693,6.9898,6.792,6.5525,6.2818,6.0046,5.8469,5.8204,6.0258,6.239,6.4564,6.7214,6.8307,6.7688,6.7688,6.7622,6.7489,6.686,6.6132,6.5425,6.4122,6.2764,6.1384,5.8535,5.5672,5.2822,0.0,0.0,0.0,0.0,0.0,0.0,0.0,0.0,0.0,0.0,0.0,0.0,0.0,0.0,0.0,5.0278,0.0,5.4525,5.4326,0.0,0.0,0.0,5.6684,5.8959,6.2431,6.5179,6.6598,0.0,0.0,7.3343,7.3902,7.4364,7.4924,7.4176,7.3586,7.3494,7.4084,7.48,7.4878,7.4704,7.487,7.5979,7.6799,7.7991,7.9523,8.0587,8.0882,8.0984,8.1439,8.1959,8.1868,8.1439,8.1013,8.1013,8.023,7.994,7.9553,7.9206,7.9148,7.9733,7.9508,7.9339,7.7649,7.7417,7.6563,7.5238,7.3765,7.3931,7.4469,7.5231,7.49,7.4594,7.4196,7.3078,7.1388,6.9301,6.8606,6.8672,6.9401,7.0693,7.1753,7.2614,7.3169,7.3799,7.4494,7.3931,7.3666,7.3633,7.2912,7.2216,7.1488,7.0958,6.9765,6.8009,6.674,6.4167,6.0556,6.251,6.4664,6.6794,6.7489,6.8076,6.8407,6.844,6.791,6.6794,6.6595,6.6165,6.5425,6.4619,6.399,6.3592,6.0788,5.8104,5.5771,5.098,0.0,0.0,0.0,0.0,0.0,0.0,0.0,0.0,0.0,4.8721,4.357,0.0,4.9733,0.0,5.3082,5.5987,5.7257,5.7892,0.0,0.0,6.1906,6.2903,6.5897,6.7932,6.9691,7.1258,7.3086,7.4999,7.696,7.7305,7.7841,7.8984,7.7006,7.5108,7.4432,7.6009,7.7384,7.7785,7.856,7.9491,8.008,8.0603,8.1123,8.2131,8.2169,8.2157,8.2517,8.2399,8.2223,8.2054,8.2038,8.1964,8.1791,8.1742,8.1758,8.1668,8.1017,8.0615,8.1312,8.1327,8.1298,7.8484,7.8517,7.8947,7.8212,7.6788,7.7384,7.7941,7.8212,7.7875,7.7318,7.6615,7.5205,7.4112,7.3344,7.3011,7.285,7.2904,7.3707,7.4237,7.4568,7.4933,7.5363,7.5728,7.533,7.5157,7.5098,7.4403,7.3707,7.2978,7.2647,7.1885,7.0792,7.0361,6.8606,6.5591,6.5392,6.6088,6.7589,6.792,6.844,6.9136,6.9169,6.8506,6.7059,6.6993,6.6198,6.4531,6.4089,6.3625,6.2908,6.1053,5.9131,5.721,5.3268,5.0021,0.0,0.0,0.0,0.0,0.0,0.0,0.0,0.0,0.0,0.0,0.0,5.27,5.3644,5.7027,5.9758,6.1192,6.2463,6.4145,6.6392,6.7126,6.8404,7.0891,7.2614,7.411,7.5371,7.6788,7.8246,7.9769,7.9968,8.0366,8.1525,8.019,7.8764,7.8035,7.8941,7.9958,8.055,8.1166,8.1808,8.256,8.2658,8.295,8.3721,8.347,8.3198,8.3449,8.3009,8.2571,8.249,8.2778,8.2934,8.2527,8.2811,8.3024,8.2661,8.2184,8.1971,8.2334,8.2169,8.2054,7.8782,7.8809,7.8982,7.9102,7.9202,8.0665,8.1016,8.0564,8.0564,7.9902,7.867,7.7295,7.6682,7.6615,7.58,7.5405,7.5422,7.5422,7.5728,7.6291,7.6291,7.6331,7.6457,7.6357,7.6357,7.6424,7.5754,7.5058,7.4329,7.3674,7.2978,7.2183,7.2051,7.162,7.0825,6.8274,6.7224,6.7887,6.8539,6.9136,6.9765,6.9599,6.8837,6.739,6.7224,6.5922,6.3294,6.3161,6.2565,6.1318,6.0622,5.9694,5.8369,5.5487,5.3268,0.0,5.0518,0.0,0.0,0.0,0.0,0.0,0.0,0.0,0.0,5.5113,5.685,5.921,6.1778,6.4057,6.5829,6.7562,6.9079,7.0394,7.1985,7.3442,7.4693,7.6589,7.8113,7.8848,8.0067,8.1094,8.1757,8.2022,8.232,8.2883,8.3016,8.2656,8.2287,8.2027,8.2259,8.3082,8.2921,8.3046,8.3573,8.3705,8.4056,8.4883,8.461,8.4208,8.4312,8.3716,8.3186,8.3252,8.3716,8.3882,8.3281,8.3716,8.3882,8.3385,8.3125,8.2959,8.2832,8.2485,8.2313,8.0266,8.0415,8.1625,8.2154,8.2274,8.384,8.2723,7.9808,7.9808,8.0001,8.0134,7.8737,7.8093,7.7993,7.669,7.6115,7.6125,7.6125,7.6192,7.6291,7.6291,7.6596,7.7126,7.6589,7.6622,7.7126,7.6457,7.5761,7.5091,7.4958,7.4204,7.2912,7.2283,7.162,7.0891,0.0,0.0,0.0,6.95,6.9666,6.9732,6.8615,6.7291,6.5867,6.5204,0.0,6.2498,6.2399,6.2266,6.2001,6.1836,0.0,0.0,0.0,0.0,0.0,0.0,0.0,0.0,0.0,0.0,0.0,6.0403,5.9919,5.8131,6.1739,6.431,6.4749,6.7473,6.9666,7.0611,7.2589,7.3964,7.4329,7.6589,7.8053,7.7848,7.9107,8.0366,8.1094,8.1426,8.1856,8.2618,8.3215,8.3612,8.3778,8.4308,8.4606,8.4473,8.391,8.3877,8.4511,8.4486,8.4556,8.4784,8.4788,8.5049,8.5699,8.5368,8.5136,8.55,8.5103,8.4672,8.4639,8.4805,8.4871,8.4672,8.4838,8.4838,8.4705,8.4208,8.3612,8.3049,8.2832,8.277,8.0691,8.084,8.2007,8.2566,0.0,8.3978,8.3654,8.222,8.1578,8.1317,8.1223,8.0488,8.0188,8.0148,7.9454,7.8667,7.7914,7.797,7.7777,7.7417,7.7391,7.759,7.7921,7.7557,7.7557,7.7888,7.7192,7.6689,7.6324,7.596,7.543,7.4701,7.4303,7.3939,7.3575,7.2846,7.1786,7.0361,7.0328,7.0527,7.0825,7.0163,6.888,6.7115,6.6684,0.0,0.0,0.0,0.0,0.0,0.0,0.0,0.0,0.0,0.0,6.0477,6.0092,6.0204,6.0966,6.2676,6.4067,6.4829,6.6883,6.6906,6.3968,6.6784,6.9088,7.0076,7.1662,7.3111,7.4568,7.6026,7.702,7.745,7.9074,8.0001,7.9802,8.0896,8.1923,8.2353,8.2983,8.3612,8.3943,8.4275,8.454,8.4573,8.4871,8.5268,8.55,8.5037,8.4738,8.5008,8.5103,8.5235,8.5533,8.5633,8.5865,8.6457,8.6126,8.5832,8.6126,8.56,8.5103,8.5136,8.5401,8.5533,8.5202,8.5368,8.55,8.5169,8.4805,8.4473,8.401,8.3413,8.2883,8.1309,8.1391,8.2379,8.2868,8.2981,8.3974,8.4716,8.5131,8.3993,0.0,0.0,8.2177,8.203,8.1915,8.1979,8.1272,8.0034,8.0226,7.995,7.9329,7.9169,7.9122,7.9122,7.8962,7.8908,7.8815,7.8119,7.7623,7.7358,7.6689,7.6225,7.6125,7.6125,7.6192,7.6258,7.5761,7.427,7.1951,7.1355,7.1388,7.1985,7.1753,7.0693,6.8738,6.8407,6.6873,6.3824,6.3559,6.2929,6.1781,6.1815,6.2212,6.2929,6.3526,6.4321,6.5315,6.6452,6.7191,6.7489,6.9401,7.0494,7.0229,7.2349,7.2581,7.0054,7.1189,7.2813,7.4627,7.4991,7.5894,7.7623,7.8583,7.9245,7.9775,8.0564,8.1094,8.1188,8.2254,8.3115,8.338,8.4308,8.507,8.5037,8.5169,8.5302,8.5335,8.55,8.5666,8.6159,8.5898,8.5567,8.5633,8.5699,8.5765,8.6225,8.6391,8.6623,8.712,8.6756,8.6424,8.6325,8.5898,8.55,8.5368,8.5861,8.5798,8.5302,8.55,8.5828,8.5401,8.507,8.5003,8.5103,8.4109,8.3215,8.3591,8.3753,8.5301,8.5671,8.5334,8.688,8.6966,8.5995,8.5514,8.4754,8.3858,8.3156,8.2468,8.1896,8.1952,8.1866,8.1708,8.2378,8.2614,8.2522,8.1828,8.1521,8.1468,8.0747,8.0399,8.0332,7.967,7.8616,7.7424,7.6689,7.6026,7.5522,7.5455,7.5754,7.6258,7.6225,7.596,7.5496,7.3111,7.1885,7.1985,7.0759,6.9666,6.8728,6.7546,6.6297,6.516,6.4597,6.4155,6.3957,6.4498,6.5138,6.5834,6.6032,6.6949,6.8837,6.9235,6.9898,7.1156,7.268,7.4362,7.596,7.5993,7.543,7.4528,7.5662,7.6622,7.6987,7.7987,7.8947,7.9345,8.0498,8.1028,8.0763,8.179,8.2585,8.2585,8.3347,8.4109,8.4672,8.4908,8.5169,8.5268,8.5666,8.5993,8.6126,8.6229,8.6921,8.6855,8.7087,8.7021,8.6987,8.6987,8.7054,8.6888,8.712,8.7087,8.7286,8.7153,8.6987,8.6987,8.6789,8.6457,8.6093,8.6093,8.5898,8.5302,8.5169,8.56,8.5861,8.5268,8.4805,8.5765,8.4904,8.4142,8.4048,8.4251,8.5429,8.6181,8.6689,8.8166,8.8352,8.766,8.7504,8.6359,8.4645,8.4089,8.3687,8.3287,8.2378,8.1757,8.1342,8.1325,8.13,8.1309,8.1381,8.1602,8.1944,8.1596,8.1197,8.0769,7.9986,7.8815,7.7457,7.7053,7.6556,7.5894,7.6225,7.6225,7.5794,7.6125,7.5927,7.5165,7.4237,7.3773,7.3773,7.3136,7.2241,7.1123,7.0759,6.9931,6.8417,6.8076,6.7744,6.737,6.7612,6.8142,6.8871,6.9633,7.0726,7.2108,7.2912,7.3641,7.4303,7.4933,7.6291,7.8378,7.7921,7.7749,7.8179,7.8444,7.8776,7.914,7.9836,8.0366,8.073,8.1393,8.1956,8.2453,8.3115,8.3678,8.4109,8.4738,8.5331,8.5666,8.6063,8.6295,8.6262,8.6258,8.6225,8.6225,8.6258,8.6163,8.613,8.613,8.6262,8.659,8.6362,8.613,8.613,8.649,8.6656,8.6689,8.6689,8.6689,8.6656,8.6428,8.5997,8.5732,8.5865,8.606,8.5666,8.603,8.6395,8.659,8.6391,8.6225,8.6557,8.6225,8.5567,8.5126,8.526,8.62,8.7196,8.8276,8.9188,8.9461,8.9272,8.9072,8.7846,8.6072,8.5456,8.5141,8.4816,8.3665,8.2706,8.1918,8.1461,8.1072,8.0825,8.1177,8.1705,8.2131,8.1885,8.1483,8.1001,8.0067,7.8914,7.7755,7.7457,7.7093,7.6689,7.7258,7.7119,7.6052,7.6556,7.6225,7.5257,7.5562,7.5654,7.5323,7.529,7.4826,7.3972,7.4196,7.3666,7.2018,7.172,7.1355,7.0825,7.0816,7.109,7.1852,7.2945,7.4005,7.4867,7.5927,7.6722,7.702,7.6887,7.7656,7.9643,7.9312,7.9637,8.0929,8.0697,8.0399,8.0664,8.0796,8.1227,8.1889,8.2254,8.2817,8.4076,8.4076,8.4341,8.5202,8.5567,8.5993,8.6325,8.6822,8.7054,8.7153,8.6822,8.6524,8.6424,8.5798,8.5434,8.5533,8.5268,8.5169,8.56,8.5467,8.5202,8.5136,8.5533,8.5898,8.596,8.596,8.5931,8.5865,8.5467,8.507,8.5037,8.5434,8.5695,8.5795,8.6225,8.6656,8.6789,8.659,8.6656,8.6855,8.7054,8.656,8.8397,8.8641,8.9448,9.0387,9.0789,9.0522,9.0369,9.024,8.9598,8.9176,8.8681,8.7597,8.6659,8.6158,8.6292,8.5837,8.5128,8.5727,8.507,8.3773,8.3133,8.285,8.2874,8.1617,8.1133,8.1514,8.0375,7.9266,7.8318,7.7656,7.7325,7.7358,7.8053,7.8279,7.8119,7.8186,7.8186,7.8053,7.7517,7.6589,7.5389,7.529,7.5529,7.6026,7.5463,7.5124,7.476,7.4262,7.3865,7.3799,7.3732,7.4097,7.4793,7.5025,7.5695,7.6954,7.7225,7.7855,7.908,7.8682,7.8974,8.0366,8.0564,8.1128,8.2519,8.2618,8.2022,8.1293,8.1393,8.2121,8.2718,8.3347,8.401,8.4705,8.4374,8.454,8.5695,8.497,8.4937,8.6991,8.6888,8.659,8.7319,8.7319,8.7153,8.6954,8.6391,8.6093,8.6362,8.5302,8.4573,8.507,8.5136,8.5103,8.5103,8.5136,8.5368,8.5302,8.5268,8.5302,8.5268,8.5136,8.4937,8.4308,8.4805,8.507,8.4805,8.4805,8.5666,8.6424,8.6225,8.5666,8.6192,8.6855,8.656,8.9296,8.9388,8.9838,9.0552,9.1222,9.1172,9.114,9.1069,9.0355,8.9998,8.9883,8.8898,8.7992,8.7105,8.6289,8.562,8.5129,8.4919,8.4708,8.4358,8.4414,8.473,8.5077,8.4548,8.3932,8.317,8.1751,8.0148,7.8531,7.7351,7.6755,7.6854,7.749,7.7623,7.7285,7.7623,7.7623,7.7219,7.6894,7.6689,7.6589,7.6556,7.6457,7.6357,7.6457,7.6324,7.5927,7.5595,7.543,7.543,7.543,7.5562,7.586,7.6722,7.745,7.8053,7.8908,7.9604,8.02,7.9968,8.0432,8.1889,8.1989,8.2618,8.401,8.4208,8.391,8.348,8.3579,8.391,8.4142,8.4076,8.4308,8.4838,8.444,8.4771,8.6623,8.5931,8.613,8.8084,8.7919,8.772,8.8283,8.815,8.7554,8.6888,8.6358,8.6258,8.603,8.5202,8.4904,8.5003,8.5103,8.4904,8.4672,8.5268,8.5434,8.5302,8.5467,8.56,8.4705,8.4904,8.4738,8.3612,8.4473,8.5003,8.4838,8.5268,8.5993,8.6457,8.6756,8.6494,8.6789,8.7087,8.6789,9.0578,9.0649,9.0711,9.1246,9.2034,9.1965,9.1925,9.1818,9.114,9.0819,9.0748,9.0177,8.9532,8.8636,8.6954,8.5938,8.5496,8.4924,8.4568,8.4668,8.5129,8.5661,8.6194,8.595,8.5338,8.4334,8.3066,8.1506,7.9786,7.8529,7.7784,7.7659,7.7854,7.7623,7.7027,7.7457,7.7424,7.696,7.692,7.7159,7.7623,7.7689,7.7523,7.7318,7.7914,7.8047,7.755,7.7517,7.7417,7.7192,7.7417,7.7417,7.7258,7.8411,7.9107,7.9146,8.0101,8.0896,8.126,8.1293,8.1923,8.3314,8.3513,8.4043,8.507,8.5401,8.55,8.5666,8.5699,8.5633,8.5368,8.4937,8.4937,8.5533,8.5202,8.5633,8.7021,8.6789,8.7123,8.8714,8.8482,8.8581,8.9081,8.8747,8.7885,8.712,8.649,8.6192,8.5699,8.5467,8.5136,8.5368,8.5401,8.5103,8.454,8.5037,8.5533,8.5434,8.5533,8.5335,8.4341,8.4705,8.4805,8.401,8.4771,8.5302,8.5467,8.6026,8.6557,8.7054,8.7286,8.7219,8.7219,8.7319,8.7087,9.3049,9.305,9.3297,9.3483,9.3817,9.3067,9.2746,9.2675,9.189,9.1568,9.1568,9.1461,9.1403,9.1167,8.9396,8.831,8.7597,8.7257,8.641,8.5322,8.519,8.5106,8.5013,8.4391,8.4338,8.4711,8.3893,8.3139,8.2615,8.1974,8.1417,8.0632,7.9781,7.9113,7.8517,7.8451,7.8451,7.8318,7.8384,7.8384,7.8451,7.8418,7.8848,7.9345,8.0067,8.0233,8.0266,8.0399,8.0101,7.9444,7.9935,8.0101,7.9543,8.0134,8.0564,8.0631,8.073,8.1393,8.2585,8.2817,8.3413,8.4705,8.4904,8.5335,8.6126,8.6258,8.6557,8.7153,8.719,8.6954,8.6424,8.6126,8.6295,8.6987,8.712,8.712,8.7286,8.7352,8.7584,8.8349,8.8647,8.8945,8.9379,8.878,8.8449,8.7952,8.7057,8.6424,8.6756,8.5964,8.5633,8.5993,8.6126,8.5927,8.5268,8.5533,8.5467,8.5368,8.5467,8.5103,8.4705,8.444,8.4407,8.4506,8.5302,8.5927,8.6225,8.659,8.7021,8.7319,8.7319,8.7319,8.7319,8.7319,8.7186,9.3742,9.3707,9.3799,9.3891,9.3982,9.3697,9.359,9.346,9.271,9.2354,9.2282,9.1854,9.1604,9.1546,9.0945,9.0392,8.9958,8.9384,8.8684,8.7983,8.7539,8.7328,8.7293,8.7012,8.6615,8.6148,8.4924,8.3313,8.1691,8.129,8.1021,8.0794,8.0463,8.0134,7.9935,7.9902,7.9703,7.9312,7.9637,7.9471,7.8836,7.9902,8.0564,8.0266,7.9637,7.9306,7.9279,7.9709,7.9875,7.961,8.0332,8.0564,8.0432,8.0995,8.1856,8.2684,8.2817,8.3248,8.4142,8.4308,8.4738,8.5633,8.5798,8.6358,8.7256,8.7554,8.7852,8.8449,8.8647,8.8482,8.815,8.7455,8.7219,8.772,8.7584,8.7521,8.7819,8.7952,8.8382,8.9475,9.0072,9.0536,9.037,9.0171,8.9544,8.9012,8.815,8.7521,8.7253,8.6789,8.6557,8.6789,8.6888,8.6822,8.6627,8.6527,8.6461,8.6163,8.5997,8.5732,8.5368,8.5861,8.5993,8.507,8.5761,8.6225,8.6457,8.6789,8.7219,8.7319,8.7319,8.7319,8.7319,8.7319,8.7319,9.4388,9.4566,9.4316,9.4209,9.4244,9.4244,9.4209,9.4173,9.3636,9.3377,9.3202,9.2715,9.2421,9.2376,9.2354,9.2299,9.2057,9.1109,9.0485,9.0279,8.9795,8.9569,8.9569,8.9604,8.924,8.8428,8.6956,8.5039,8.3189,8.2727,8.2494,8.2285,8.1993,8.1732,8.1565,8.1498,8.123,8.0935,8.1263,8.1089,8.0567,8.1303,8.1767,8.134,8.0231,7.9703,7.9908,8.0399,8.0697,8.0736,8.1359,8.1856,8.2121,8.2585,8.3281,8.4208,8.4341,8.4672,8.5335,8.5434,8.5865,8.6789,8.6892,8.7422,8.8515,8.865,8.8915,8.9246,8.9379,8.9475,8.9542,8.8879,8.8449,8.8647,8.8449,8.8382,8.8647,8.8882,8.9313,8.9906,9.037,9.0734,9.0801,9.0171,8.9575,8.9048,8.8449,8.7786,8.7451,8.7319,8.7319,8.7319,8.7253,8.7253,8.712,8.7021,8.7021,8.6789,8.6623,8.6328,8.6229,8.6855,8.6888,8.6026,8.5894,8.6358,8.6722,8.7021,8.7186,8.7286,8.7319,8.7319,8.7319,8.7319,8.7319,9.5156,9.5638,9.5013,9.4659,9.4687,9.4709,9.4703,9.4745,9.4731,9.4598,9.4374,9.4276,9.4105,9.3969,9.3875,9.3924,9.3508,9.2309,9.1667,9.1537,9.143,9.1359,9.1323,9.1265,9.1086,9.071,8.9822,8.8627,8.7218,8.6306,8.5664,8.5255,8.4453,8.3747,8.315,8.3083,8.3083,8.2811,8.2811,8.3228,8.396,8.2664,8.2281,8.2718,8.2072,8.1956,8.2651,8.2751,8.2718,8.285,8.348,8.4308,8.4639,8.4805,8.5003,8.5037,8.5103,8.5467,8.6126,8.6292,8.6892,8.7919,8.825,8.8548,8.9244,8.9379,8.9445,8.9644,8.9644,8.9776,9.0403,9.0339,9.0105,8.9611,8.9939,9.0039,8.9677,9.0008,9.0207,8.9774,8.9774,8.9509,8.9313,8.9045,8.8581,8.8382,8.7852,8.7418,8.7352,8.7319,8.7319,8.7319,8.7319,8.7319,8.7319,8.7319,8.7319,8.7253,8.7153,8.6987,8.6689,8.6987,8.7054,8.6424,8.6557,8.6954,8.6954,8.7219,8.7253,8.7319,8.7319,8.7319,8.7319,8.7319,8.7319,9.5557,9.5508,9.4755,9.4679,9.5032,9.519,9.5454,9.5819,9.6014,9.591,9.5704,9.5681,9.5385,9.491,9.4816,9.453,9.3982,9.3447,9.296,9.2438,9.1867,9.164,9.164,9.1604,9.1187,9.0387,8.9495,8.8529,8.7562,8.6706,8.6108,8.5861,8.5652,8.5019,8.4203,8.4091,8.3573,8.2429,8.2749,8.2676,8.204,8.2397,8.2533,8.2305,8.2891,8.3248,8.295,8.338,8.3645,8.3678,8.4374,8.4871,8.507,8.5103,8.5335,8.5795,8.5861,8.6395,8.7455,8.7654,8.8018,8.8846,8.9048,8.9442,9.0008,9.0174,9.0436,9.0801,9.09,9.1032,9.1198,9.1231,9.1066,9.0933,9.1099,9.0966,9.0306,9.0339,9.0372,9.024,9.014,9.014,8.9875,8.9081,8.8283,8.8217,8.772,8.7352,8.7352,8.7385,8.7319,8.7319,8.7319,8.7319,8.7319,8.7319,8.7319,8.7319,8.7286,8.7286,8.7054,8.6954,8.7021,8.7054,8.7219,8.7286,8.7319,8.7319,8.7319,8.7319,8.7319,8.7319,8.7319,8.7319,8.7319,9.6687,9.672,9.5942,9.5817,9.6172,9.6293,9.6536,9.6854,9.7026,9.6958,9.6718,9.6639,9.6297,9.5811,9.5647,9.5351,9.4887,9.4851,9.4358,9.3509,9.2834,9.2496,9.2496,9.2496,9.1966,9.094,9.0032,8.9057,8.8002,8.7099,8.6654,8.6654,8.6654,8.6379,8.5664,8.5339,8.4567,8.3731,8.3771,8.3616,8.3394,8.3587,8.3821,8.396,8.4541,8.4568,8.4208,8.4805,8.497,8.4738,8.5335,8.5865,8.5931,8.6163,8.6494,8.6892,8.7289,8.7819,8.8614,8.865,8.9014,8.9644,8.9809,9.0273,9.1066,9.1331,9.1662,9.2258,9.2157,9.1993,9.196,9.1695,9.1627,9.1627,9.1859,9.1629,9.1066,9.0668,9.014,8.9809,8.9577,8.9577,8.9144,8.868,8.7952,8.7852,8.7786,8.7654,8.7654,8.7687,8.7654,8.7617,8.7418,8.7418,8.7319,8.7319,8.7319,8.7319,8.7319,8.7319,8.7219,8.7186,8.7219,8.7219,8.7286,8.7286,8.7319,8.7319,8.7319,8.7319,8.7319,8.7319,8.7319,8.7319,8.7319,9.8274,9.8853,9.8093,9.7644,9.7731,9.7753,9.7782,9.7898,9.7919,9.7803,9.7546,9.743,9.7128,9.6816,9.6549,9.6326,9.6267,9.6077,9.5545,9.4736,9.4196,9.387,9.3391,9.3179,9.2625,9.1964,9.0962,9.005,8.9,8.8037,8.7633,8.7594,8.7656,8.7572,8.7193,8.6828,8.6513,8.6008,8.569,8.6075,8.6984,8.5912,8.5838,8.7027,8.6492,8.6093,8.5993,8.6424,8.6424,8.5666,8.6627,8.7256,8.7488,8.8018,8.825,8.8316,8.8981,8.9244,8.9442,8.9608,8.9873,9.0438,9.0834,9.1165,9.2258,9.2523,9.2788,9.3252,9.2888,9.2556,9.2391,9.1991,9.166,9.1759,9.2093,9.2059,9.1594,9.0933,9.0271,8.9111,8.8482,8.8316,8.815,8.7852,8.7687,8.7783,8.8117,8.8316,8.8382,8.8382,8.8382,8.8184,8.7919,8.7687,8.7654,8.7319,8.7319,8.7319,8.7319,8.7319,8.7319,8.7319,8.7319,8.7319,8.7319,8.7319,8.7319,8.7319,8.7319,8.7319,8.7319,8.7319,8.7352,8.7385,8.7418,9.8657,9.8634,9.7839,9.7765,9.8137,9.8329,9.8631,9.8965,9.9181,9.9028,9.8911,9.8797,9.8392,9.7905,9.7581,9.7178,9.6739,9.6456,9.6091,9.5615,9.5474,9.4091,9.2523,9.1787,9.1559,9.1214,9.0654,8.963,8.9311,8.8648,8.8156,8.8166,8.8605,8.8218,8.7271,8.7899,8.7718,8.6745,8.695,8.712,8.7337,8.6636,8.6561,8.7318,8.7191,8.6752,8.6292,8.6358,8.6921,8.7488,8.7786,8.8316,8.8714,8.9012,8.9114,8.9177,8.9313,8.9707,9.0207,9.0734,9.1099,9.1364,9.2192,9.2854,9.2656,9.3186,9.3285,9.3153,9.2755,9.249,9.2026,9.1728,9.1794,9.229,9.2126,9.1695,9.1198,9.1099,9.0933,9.0138,8.9873,8.9674,8.9409,8.9045,8.8747,8.878,8.8945,8.9144,8.9111,8.9111,8.9144,8.8912,8.8614,8.8283,8.7952,8.7521,8.7352,8.7319,8.7319,8.7319,8.7319,8.7319,8.7319,8.7319,8.7319,8.7319,8.7319,8.7319,8.7319,8.7319,8.7551,8.7654,8.7554,8.7554,8.7554,9.9403,9.9256,9.8786,9.877,9.9114,9.919,9.9456,9.9727,9.9876,9.9876,9.9718,9.9605,9.9261,9.8751,9.8521,9.8084,9.7561,9.7385,9.6945,9.6194,9.5453,9.4426,9.3405,9.2821,9.2646,9.2535,9.1655,9.1151,9.0677,8.9803,8.9035,8.8448,8.8803,8.8293,8.7144,8.7456,8.7539,8.6517,8.6594,8.6715,8.6997,8.6584,8.6999,8.759,8.7788,8.7554,8.7521,8.7554,8.7852,8.8217,8.8316,8.8647,8.9313,8.971,8.9842,8.9875,9.0403,9.1032,9.143,9.2093,9.249,9.2623,9.3418,9.3484,9.3318,9.3583,9.3517,9.3285,9.2888,9.249,9.2126,9.1794,9.1828,9.2026,9.1859,9.1529,9.1397,9.1529,9.1231,9.0736,9.0472,9.0339,9.0107,8.9644,8.9478,8.9412,8.9611,8.9776,8.9875,8.9842,8.9809,8.9674,8.9313,8.8915,8.8551,8.8217,8.7885,8.7786,8.7617,8.7551,8.7418,8.7385,8.7319,8.7319,8.7319,8.7319,8.7319,8.7319,8.7319,8.7451,8.7753,8.7786,8.762,8.7687,8.7687,10.0179,10.0179,10.0179,10.0179,10.0121,10.0179,10.0099,10.0193,10.0135,10.0135,10.0091,9.9898,9.9682,9.9444,9.9093,9.8943,9.8694,9.8468,9.7923,9.6917,9.5829,9.4992,9.5176,9.4159,9.4019,9.3917,9.3799,9.2643,9.1435,9.0726,8.9835,8.8909,8.8665,8.829,8.7903,8.745,8.6912,8.7058,8.7013,8.7247,8.7558,8.7461,8.7887,8.8794,8.8732,8.8912,8.9147,8.9277,8.9111,8.8581,8.8518,8.9078,8.9707,9.0337,9.0701,9.0933,9.1761,9.2457,9.2854,9.3351,9.3749,9.3716,9.3848,9.3948,9.3981,9.4113,9.4179,9.3914,9.3318,9.3053,9.2788,9.2258,9.2093,9.2192,9.1993,9.2159,9.2358,9.2026,9.1331,9.0736,9.0637,9.0273,8.9875,8.9641,8.9707,9.0237,9.0436,9.0569,9.0635,9.0635,9.0635,9.0602,9.0138,8.9544,8.9213,8.8915,8.8647,8.8415,8.815,8.7952,8.765,8.7551,8.7385,8.7319,8.7319,8.7319,8.7319,8.7319,8.7319,8.7451,8.7687,8.7554,8.7418,8.7687,8.7819,10.0179,10.0179,10.0179,10.0179,10.0179,10.0179,10.0179,10.0179,10.0179,10.0179,10.0193,10.0113,9.9957,9.9732,9.948,9.9213,9.9075,9.8908,9.8404,9.8026,9.7486,9.6552,9.5646,9.3945,9.2454,9.2232,9.1064,9.0396,9.0133,9.0293,8.9586,8.9332,8.9743,8.9732,8.9118,8.9754,9.0378,8.9942,9.0051,9.0115,8.9989,8.972,8.9864,9.0616,9.0275,9.0072,9.0041,8.9707,8.9577,8.9909,9.0074,9.0436,9.0966,9.1231,9.1596,9.2126,9.2457,9.2987,9.355,9.4179,9.4411,9.408,9.4776,9.5273,9.4743,9.5107,9.5107,9.4809,9.4511,9.3981,9.3517,9.3418,9.3186,9.3119,9.3153,9.3053,9.2689,9.2124,9.1693,9.1397,9.1331,9.1297,9.1099,9.0966,9.0999,9.1099,9.1165,9.1297,9.1297,9.1264,9.1198,9.1132,9.0801,9.0271,9.0072,8.9674,8.9213,8.8945,8.868,8.8482,8.815,8.7819,8.772,8.7551,8.7319,8.7319,8.7319,8.7319,8.7319,8.7485,8.7587,8.7518,8.7518,8.7753,8.7786,10.0179,10.0179,10.0179,10.0179,10.0179,10.0179,10.0179,10.0179,10.0179,10.0179,10.0179,10.0179,10.0227,10.0291,9.9866,9.9758,9.9981,9.954,9.9204,9.9034,9.8851,9.8207,9.7259,9.5588,9.4251,9.294,9.2198,9.158,9.1225,9.1011,9.0823,9.0031,9.0839,9.0749,9.0192,9.1006,9.102,9.0789,9.1146,9.126,9.074,9.0861,9.0787,9.1195,9.1047,9.1032,9.0966,9.1066,9.1165,9.1496,9.1828,9.1993,9.2059,9.2126,9.249,9.3086,9.3583,9.3848,9.4411,9.4941,9.5273,9.4842,9.5604,9.5405,9.5173,9.5306,9.5074,9.461,9.4312,9.4179,9.3848,9.3782,9.3815,9.3815,9.3815,9.3616,9.3252,9.2854,9.2258,9.1927,9.1892,9.1794,9.1761,9.1761,9.1629,9.1463,9.1331,9.1463,9.1496,9.1461,9.1494,9.1397,9.1231,9.0999,9.0867,9.0436,8.9743,8.9445,8.9147,8.9045,8.8879,8.8482,8.815,8.7852,8.7617,8.7352,8.7319,8.7319,8.7352,8.7385,8.7451,8.7518,8.7551,8.7551,8.7551,10.0179,10.0179,10.0179,10.0179,10.0179,10.0179,10.0179,10.0179,10.0179,10.0288,10.0396,10.0396,10.0769,10.095,10.0534,10.0667,10.0781,10.0361,9.9763,10.0013,9.9989,9.93,9.8501,9.8025,9.7099,9.5058,9.459,9.4126,9.355,9.338,9.2785,9.1581,9.2047,9.1926,9.1228,9.1115,9.122,9.1081,9.1051,9.0839,9.0299,9.069,9.0904,9.1012,9.1492,9.1728,9.1894,9.2258,9.2755,9.2888,9.3451,9.3451,9.3186,9.2921,9.3186,9.3914,9.4445,9.4776,9.5074,9.5571,9.5935,9.6001,9.6001,9.5736,9.5306,9.5206,9.5008,9.4643,9.4411,9.4411,9.4146,9.4345,9.4279,9.4246,9.4179,9.408,9.4014,9.4014,9.3517,9.2457,9.2556,9.2656,9.2324,9.2126,9.1993,9.1861,9.1759,9.1726,9.1759,9.166,9.166,9.1594,9.1397,9.1331,9.1231,9.1132,9.0502,9.0237,8.9873,8.971,8.9611,8.9379,8.9012,8.825,8.7915,8.775,8.762,8.7654,8.762,8.7451,8.7352,8.7418,8.7385,8.7319,8.7319,10.0179,10.0179,10.0179,10.0179,10.0179,10.0179,10.0179,10.0179,10.0252,10.0614,10.1157,10.1207,10.1493,10.1758,10.1671,10.1402,10.1077,10.055,10.0383,10.0775,10.0798,10.0227,9.9171,9.9271,9.8336,9.7277,9.6549,9.5882,9.5414,9.5599,9.465,9.389,9.4201,9.3711,9.2376,9.2149,9.2329,9.1869,9.1684,9.1436,9.1285,9.1315,9.1538,9.1562,9.2192,9.2457,9.2656,9.3186,9.3583,9.3616,9.3749,9.408,9.4312,9.4014,9.408,9.4577,9.4875,9.524,9.567,9.5869,9.6001,9.6001,9.6001,9.6001,9.5803,9.577,9.5571,9.5571,9.5471,9.5571,9.5637,9.5405,9.5571,9.5571,9.5438,9.5273,9.4941,9.4975,9.4908,9.3716,9.3616,9.3484,9.3053,9.2755,9.2722,9.2589,9.2391,9.2391,9.249,9.219,9.1826,9.1726,9.1594,9.1529,9.1496,9.1463,9.1231,9.1132,9.0867,9.0635,9.0536,9.0372,8.9909,8.9343,8.8813,8.8614,8.8449,8.8217,8.7885,8.7717,8.7518,8.7352,8.7319,8.7319,8.7319,10.0179,10.0179,10.0179,10.0179,10.0179,10.0179,10.0179,10.0252,10.065,10.1048,10.1447,10.1823,10.2325,10.2552,10.222,10.1903,10.1662,10.136,10.1311,10.1632,10.1582,10.0625,9.942,9.9742,9.875,9.7746,9.738,9.7359,9.6572,9.614,9.5795,9.5195,9.5243,9.4624,9.3844,9.3897,9.3802,9.337,9.301,9.2594,9.2222,9.2159,9.2291,9.2755,9.2987,9.3219,9.3384,9.3981,9.4345,9.4445,9.4743,9.5306,9.5571,9.5471,9.5107,9.5438,9.5471,9.5604,9.5968,9.6001,9.6001,9.6001,9.6035,9.6001,9.6001,9.5968,9.6068,9.6035,9.6001,9.6001,9.5935,9.6068,9.6001,9.6001,9.6035,9.5869,9.5637,9.5836,9.5438,9.4842,9.4577,9.4213,9.3683,9.3484,9.3517,9.3318,9.3053,9.3086,9.3219,9.2854,9.2389,9.2126,9.2026,9.1859,9.1826,9.1793,9.166,9.1594,9.1529,9.1331,9.1231,9.0999,9.0933,9.0668,9.0204,8.9509,8.9147,8.8879,8.8415,8.8018,8.7952,8.7852,8.7485,8.7319,8.7485,10.0288,10.0433,10.0433,10.0433,10.0433,10.0447,10.0469,10.0577,10.1121,10.1592,10.1931,10.2502,10.3075,10.3204,10.2526,10.1998,10.221,10.1675,10.1364,10.174,10.1499,10.051,9.9833,9.9771,9.9546,9.8124,9.8343,9.8499,9.747,9.6979,9.6346,9.5905,9.5632,9.5253,9.4873,9.4767,9.5094,9.4772,9.4375,9.3608,9.311,9.2954,9.3153,9.3749,9.3914,9.408,9.4378,9.5041,9.5538,9.5803,9.6167,9.6697,9.7095,9.6763,9.6465,9.6432,9.63,9.63,9.6498,9.6532,9.6664,9.6697,9.6366,9.6333,9.6532,9.6664,9.6498,9.63,9.6465,9.6565,9.6664,9.6532,9.6432,9.6266,9.6266,9.6167,9.6001,9.5968,9.5968,9.5571,9.5339,9.5008,9.4544,9.4213,9.4246,9.4213,9.3981,9.3749,9.3815,9.3616,9.3219,9.2888,9.2589,9.2256,9.2124,9.2026,9.1828,9.1596,9.1562,9.1463,9.1463,9.1463,9.1397,9.1264,9.0867,9.0237,8.9873,8.9511,8.921,8.8879,8.8647,8.8449,8.8283,8.815,8.8184,10.0614,10.1266,10.1243,10.1266,10.1243,10.1243,10.1243,10.1302,10.1447,10.2207,10.3235,10.3341,10.3707,10.3593,10.1949,10.1232,10.0839,10.0248,10.0303,10.1157,10.082,10.0335,9.9653,9.9711,9.978,9.8812,9.9214,9.8793,9.8049,9.8066,9.7556,9.6629,9.6612,9.6382,9.4654,9.5216,9.4757,9.4195,9.4002,9.384,9.3715,9.3683,9.3782,9.4113,9.4544,9.514,9.5736,9.6366,9.6929,9.7559,9.7757,9.7956,9.8056,9.8022,9.7956,9.7724,9.7459,9.726,9.7658,9.7691,9.7691,9.7559,9.7293,9.7393,9.7492,9.7658,9.7459,9.7028,9.7426,9.7724,9.7658,9.7824,9.7558,9.7227,9.6962,9.6664,9.6366,9.6333,9.63,9.6101,9.5803,9.5803,9.5571,9.524,9.4941,9.4941,9.4875,9.4643,9.4411,9.4213,9.4047,9.3683,9.3252,9.2888,9.2689,9.2589,9.2258,9.1861,9.1761,9.1726,9.1594,9.1594,9.1594,9.1397,9.1099,9.09,9.0569,9.0237,8.9972,8.9674,8.9346,8.9246,8.9213,8.9111,8.8879,10.1085,10.1447,10.1881,10.2062,10.2062,10.2062,10.2062,10.2171,10.2533,10.3077,10.3683,10.3981,10.3796,10.2944,10.162,10.0886,10.037,9.9958,10.0301,10.1084,10.1017,10.0858,10.0396,10.0204,10.0062,9.9367,9.922,9.9038,9.8535,9.8206,9.7719,9.7305,9.6868,9.6303,9.5101,9.5994,9.6153,9.5895,9.547,9.4953,9.4572,9.4478,9.4809,9.5604,9.5935,9.6465,9.7095,9.7492,9.7823,9.8188,9.8221,9.842,9.8586,9.8553,9.8453,9.9347,9.8751,9.832,9.8221,9.8254,9.8288,9.8221,9.7923,9.7923,9.8155,9.8254,9.8188,9.7757,9.7956,9.8221,9.8288,9.8221,9.8056,9.779,9.7724,9.7525,9.7128,9.6797,9.6664,9.6498,9.6333,9.6333,9.6333,9.6035,9.567,9.5471,9.5471,9.5372,9.5107,9.4842,9.4676,9.4445,9.4014,9.355,9.3418,9.3285,9.2921,9.2556,9.2358,9.2159,9.1726,9.1594,9.1793,9.1726,9.1461,9.1264,9.1099,9.0966,9.0734,9.0403,9.0008,8.9909,8.9809,8.9445,8.9277,10.1809,10.2026,10.2606,10.2882,10.2859,10.2859,10.2882,10.2932,10.3402,10.3801,10.4058,10.4332,10.3536,10.2078,10.1546,10.0947,9.9941,10.0374,10.0739,10.1162,10.1326,10.1059,10.0487,10.0261,9.9918,9.9141,9.9284,9.919,9.8949,9.8651,9.838,9.8049,9.749,9.6739,9.6614,9.6831,9.7048,9.6572,9.6204,9.5751,9.5303,9.5173,9.5902,9.6631,9.7194,9.7525,9.8321,9.8486,9.8486,9.8818,9.885,9.9149,9.938,9.9215,9.9281,9.9877,9.9612,9.9281,9.9016,9.8883,9.8718,9.8718,9.8652,9.8685,9.8221,9.8387,9.8586,9.852,9.8751,9.8784,9.8718,9.8784,9.8685,9.8619,9.8486,9.8354,9.8188,9.7691,9.736,9.7293,9.7128,9.6929,9.6863,9.673,9.6432,9.6101,9.6001,9.6001,9.577,9.5372,9.5306,9.5107,9.4941,9.4478,9.4146,9.3948,9.3583,9.3285,9.3053,9.2821,9.2457,9.2291,9.2391,9.2223,9.1925,9.1629,9.1463,9.1463,9.1494,9.1066,9.0734,9.0502,9.0304,8.9972,8.9939,10.2932,10.3547,10.3584,10.362,10.362,10.362,10.362,10.362,10.3728,10.414,10.4601,10.4597,10.3473,10.1981,10.1527,10.1072,10.0217,9.9406,10.001,10.0289,10.0068,10.0365,10.0406,10.0498,10.02,10.0033,10.009,9.9963,9.9669,9.9686,9.9278,9.8813,9.8279,9.7935,9.7534,9.7289,9.7228,9.688,9.6586,9.6425,9.6133,9.6101,9.6465,9.7028,9.7293,9.7757,9.9149,9.9249,9.938,9.9844,9.9844,9.9877,9.9977,9.991,10.0076,10.0142,10.0209,10.001,9.9977,9.9877,10.0043,10.0109,9.9944,9.9447,9.8751,9.9546,9.9712,9.9314,9.9513,9.9844,9.9977,10.0076,9.9579,9.9347,9.9115,9.8983,9.8751,9.842,9.8155,9.8122,9.7923,9.7558,9.736,9.7194,9.683,9.6465,9.6035,9.6001,9.6001,9.577,9.5836,9.577,9.5803,9.5471,9.4941,9.4643,9.4411,9.408,9.3749,9.3649,9.3451,9.3318,9.2987,9.2854,9.2589,9.2192,9.1958,9.2126,9.2093,9.1759,9.1397,9.1066,9.0999,9.0867,9.0933,10.3728,10.4453,10.4453,10.4453,10.4453,10.4453,10.4453,10.4453,10.4453,10.4505,10.4714,10.4562,10.3621,10.2349,10.1734,10.1139,10.0311,10.0346,10.0578,10.1143,10.1491,10.1992,10.2241,10.2357,10.2928,10.2553,10.2105,10.174,10.1781,10.0899,10.0472,9.9978,9.8992,9.7599,9.7064,9.7595,9.7699,9.777,9.7813,9.795,9.7393,9.7393,9.7691,9.8353,9.8453,9.8917,9.9778,9.9877,10.0076,10.0242,10.0308,10.0308,10.0341,10.0341,10.0374,10.0407,10.0407,10.0639,10.0804,10.0639,10.0308,10.0308,10.0242,10.0076,9.948,10.0076,10.0175,10.0076,10.0109,10.0308,10.0308,10.0275,10.0109,9.9977,9.9811,9.9612,9.938,9.9016,9.8884,9.8851,9.8453,9.8056,9.7823,9.7658,9.7227,9.6797,9.6366,9.6001,9.6001,9.6001,9.6001,9.6001,9.6001,9.6001,9.5505,9.5339,9.5273,9.4875,9.4478,9.4345,9.4213,9.3782,9.3517,9.3384,9.3351,9.3119,9.2954,9.2954,9.2656,9.2026,9.1726,9.1496,9.1561,9.1594,9.1594,10.4018,10.4561,10.4779,10.4887,10.4887,10.4887,10.4887,10.4887,10.4887,10.4831,10.4704,10.462,10.4048,10.299,10.2556,10.2008,10.1256,10.0989,10.1164,10.1499,10.2056,10.2889,10.3276,10.3474,10.34,10.4041,10.342,10.2567,10.2842,10.1844,10.1014,10.0183,9.9275,9.8119,9.774,9.7781,9.8438,9.8573,9.8776,9.8915,9.8188,9.8188,9.8486,9.9083,9.9182,9.9513,10.001,10.0209,10.0242,10.0308,10.0308,10.0308,10.0374,10.0474,10.0606,10.0705,10.087,10.1202,10.1401,10.13,10.097,10.1169,10.0805,10.0838,10.0838,10.0639,10.0308,10.0639,10.0507,10.0341,10.0374,10.0308,10.0308,10.0142,10.0142,10.001,9.9977,9.9712,9.9645,9.9546,9.9082,9.8619,9.8254,9.7923,9.7161,9.6697,9.63,9.6001,9.6001,9.6001,9.6001,9.6001,9.6001,9.6001,9.5968,9.577,9.5604,9.5538,9.5206,9.5041,9.4842,9.4445,9.4179,9.4146,9.408,9.4014,9.3782,9.3484,9.2854,9.2159,9.1894,9.1662,9.1594,9.1594,9.1594,10.3765,10.3801,10.4598,10.4887,10.4887,10.4887,10.4887,10.4887,10.4887,10.4864,10.4841,10.4841,10.4584,10.3915,10.3387,10.2791,10.2255,10.1302,10.1171,10.1791,10.1746,10.1587,10.1991,10.2635,10.3382,10.3178,10.271,10.2613,10.3196,10.1982,10.1056,10.062,10.0107,9.9519,9.9398,9.862,9.8255,9.8255,9.8388,9.8487,9.852,9.8553,9.895,9.9315,9.948,9.9811,10.0142,10.0308,10.0308,10.0308,10.0308,10.0308,10.0341,10.0937,10.1202,10.1269,10.1896,10.2294,10.2426,10.2426,10.236,10.2095,10.1633,10.16,10.183,10.1401,10.0805,10.1267,10.097,10.0606,10.044,10.044,10.0573,10.0639,10.0705,10.0606,10.0573,10.044,10.0341,10.0043,9.9612,9.9215,9.8751,9.8155,9.7194,9.6565,9.6167,9.6035,9.6035,9.6001,9.6001,9.6001,9.6001,9.6001,9.6001,9.6001,9.5935,9.5935,9.5836,9.5604,9.5571,9.5438,9.5206,9.4941,9.4842,9.4776,9.4312,9.3815,9.3418,9.3053,9.2126,9.1761,9.1662,9.1726,9.1894,10.4489,10.4525,10.4815,10.4887,10.4887,10.4887,10.4887,10.4887,10.4887,10.4887,10.4887,10.4887,10.4761,10.4228,10.3359,10.2901,10.266,10.1534,10.1261,10.1866,10.1715,10.2342,10.2597,10.279,10.3362,10.35,10.2895,10.224,10.2597,10.1767,10.1423,10.1073,10.0899,10.0209,9.9218,9.8653,9.895,9.905,9.9348,9.9612,9.9579,9.9546,9.9645,9.9944,9.991,10.0043,10.0275,10.0308,10.0308,10.0341,10.0341,10.0407,10.054,10.1103,10.1501,10.1633,10.2128,10.2759,10.3223,10.3488,10.3422,10.2892,10.236,10.2296,10.236,10.2163,10.1963,10.1963,10.1799,10.1633,10.1797,10.1799,10.1865,10.1898,10.1832,10.1501,10.1368,10.1169,10.097,10.044,9.9977,9.9513,9.9016,9.8585,9.7691,9.7095,9.673,9.6266,9.6134,9.6068,9.6001,9.6001,9.6001,9.6001,9.6001,9.6001,9.6001,9.5968,9.5968,9.5902,9.5968,9.6001,9.5869,9.5471,9.5538,9.5538,9.5074,9.4676,9.4478,9.4014,9.3153,9.2656,9.2722,9.2689,9.2623,10.4489,10.4525,10.4815,10.4887,10.4887,10.4887,10.4887,10.4818,10.4525,10.4501,10.4771,10.4525,10.4216,10.3816,10.3245,10.2404,10.2432,10.0902,10.0823,10.1417,10.1229,10.1391,10.19,10.2654,10.2599,10.2964,10.2777,10.2233,10.2769,10.1844,10.1549,10.1679,10.1781,10.0751,9.9718,9.9481,9.9645,9.9745,9.9977,10.0142,10.0175,10.0209,10.0242,10.0275,10.0275,10.0308,10.0308,10.0308,10.0308,10.0374,10.054,10.0672,10.0937,10.1534,10.2064,10.2362,10.2859,10.3488,10.4018,10.4283,10.4051,10.3521,10.3091,10.3024,10.3024,10.2759,10.2726,10.2693,10.2693,10.2594,10.2526,10.2594,10.2627,10.2627,10.2494,10.2128,10.1964,10.1766,10.1335,10.0805,10.0076,9.9645,9.9215,9.8884,9.8288,9.7824,9.736,9.6896,9.6399,9.62,9.6101,9.6035,9.6035,9.6035,9.6035,9.6001,9.6001,9.6001,9.6001,9.6001,9.6001,9.6001,9.6001,9.6001,9.5869,9.5803,9.5803,9.5604,9.5273,9.4875,9.4279,9.3948,9.3848,9.3616,9.3351,10.3728,10.3873,10.4561,10.4887,10.4887,10.4815,10.4815,10.4759,10.3661,10.3783,10.4725,10.3514,10.2944,10.3057,10.2995,10.2312,10.1301,9.9625,9.9887,10.0122,9.9608,9.9752,10.0052,10.0586,10.1211,10.1608,10.1905,10.238,10.3152,10.2969,10.2556,10.1846,10.1715,10.0852,10.0249,9.9844,10.001,10.0109,10.0209,10.0308,10.0308,10.0308,10.0308,10.0308,10.0308,10.0308,10.0341,10.044,10.0374,10.0573,10.1004,10.1269,10.1832,10.2792,10.3325,10.3788,10.4217,10.4416,10.4548,10.4648,10.4648,10.4217,10.3919,10.4118,10.4018,10.3521,10.3389,10.3356,10.3322,10.2991,10.2757,10.2859,10.2925,10.2892,10.2857,10.2693,10.2494,10.213,10.1631,10.1004,10.0109,9.9546,9.9149,9.8784,9.8983,9.8718,9.832,9.7956,9.736,9.6498,9.6333,9.6068,9.6068,9.6101,9.6101,9.62,9.6068,9.6101,9.6035,9.6001,9.6001,9.6035,9.6001,9.6001,9.6001,9.5968,9.5935,9.5935,9.5902,9.5471,9.5008,9.4842,9.4643,9.4179,9.3914,10.4018,10.4561,10.4815,10.4887,10.4815,10.4272,10.4344,10.464,10.3219,10.2903,10.3599,10.166,10.1161,10.124,10.0188,9.9887,9.9275,9.8552,9.8414,9.8454,9.8787,9.8653,9.902,9.9684,10.0009,10.0696,10.1475,10.2421,10.2885,10.3248,10.246,10.1053,10.1584,10.0919,10.0183,9.9612,9.9944,10.0175,10.0275,10.0275,10.0308,10.0308,10.0308,10.0308,10.0308,10.0341,10.044,10.0838,10.0805,10.0639,10.16,10.2031,10.1534,10.2759,10.3722,10.4316,10.4581,10.4681,10.4681,10.4681,10.4681,10.4681,10.4449,10.4482,10.4482,10.4316,10.4018,10.3853,10.3952,10.3753,10.3654,10.3687,10.3687,10.3687,10.3654,10.3521,10.3223,10.2561,10.1996,10.1037,10.0175,9.9877,9.9414,9.948,9.9645,9.9546,9.9281,9.8883,9.8287,9.7393,9.683,9.6532,9.6532,9.6697,9.6532,9.6532,9.6333,9.6167,9.6266,9.63,9.6266,9.6266,9.6101,9.6068,9.6167,9.6101,9.6001,9.6001,9.6001,9.6001,9.5637,9.5538,9.5372,9.4908,9.471,10.3728,10.4453,10.4779,10.4706,10.4239,10.3096,10.3039,10.3317,10.1768,10.1385,10.1799,10.0086,9.952,9.9929,9.9257,9.8865,9.8825,9.8283,9.8322,9.9315,9.8851,9.921,9.9467,10.0019,10.0802,10.1218,10.1811,10.2898,10.3008,10.3094,10.2524,10.1253,10.165,10.0853,10.0149,9.9844,9.9977,10.0076,10.0109,10.0109,10.0209,10.0308,10.0308,10.0308,10.0308,10.0474,10.0739,10.1302,10.1236,10.1269,10.2461,10.2759,10.2461,10.3422,10.412,10.4614,10.4681,10.4681,10.4681,10.4681,10.4681,10.4681,10.4681,10.4681,10.4681,10.4548,10.4316,10.4118,10.4416,10.4614,10.4648,10.4681,10.4648,10.4648,10.4548,10.4449,10.3786,10.3057,10.213,10.1136,10.0606,10.0374,10.0242,10.0308,10.0275,10.0076,9.9811,9.948,9.8883,9.8088,9.7625,9.7327,9.736,9.7426,9.7227,9.7095,9.7095,9.7062,9.7161,9.7128,9.683,9.6863,9.7028,9.6763,9.6399,9.6399,9.6432,9.6101,9.6001,9.6035,9.6068,9.5869,9.5736,9.5571,9.5538,10.3077,10.3887,10.4397,10.3994,10.3142,10.1472,10.1066,10.1365,9.9762,9.9603,10.0,9.8658,9.8358,9.8945,9.8696,9.8814,9.884,9.8585,9.8979,10.0599,9.9849,9.9733,9.9986,10.1377,10.0854,10.1913,10.2683,10.2631,10.3237,10.3155,10.2588,10.1748,10.1551,10.0886,10.0046,9.991,9.991,9.991,9.9778,9.9679,10.0175,10.0308,10.0308,10.0308,10.0474,10.0705,10.1201,10.16,10.1865,10.2527,10.3157,10.3588,10.3853,10.4118,10.4548,10.4648,10.4681,10.4681,10.4681,10.4681,10.4681,10.4681,10.4681,10.4581,10.4482,10.4648,10.4449,10.4316,10.4548,10.4681,10.4681,10.4681,10.4681,10.4581,10.4416,10.4283,10.3886,10.2958,10.1766,10.0904,10.0507,10.0308,10.0308,10.0308,10.0308,10.0308,10.0209,9.991,9.9546,9.8817,9.8387,9.8088,9.8155,9.8155,9.7989,9.789,9.8056,9.8122,9.8056,9.7923,9.7592,9.779,9.8155,9.7625,9.7095,9.7028,9.6962,9.6631,9.6366,9.6266,9.6233,9.6068,9.5968,9.5902,9.5902,10.3389,10.4492,10.3293,10.1821,10.0331,9.9811,9.8832,9.7712,9.7855,9.8617,9.9239,9.7729,9.7252,9.8357,9.8194,9.8444,9.9364,9.9374,9.9676,10.0176,10.0143,9.9605,9.8992,10.0084,10.0156,10.0063,10.0711,10.2055,10.2224,10.2235,10.1911,10.0851,10.0717,10.0414,9.9813,9.9745,9.9745,9.9778,9.9645,9.9712,10.0209,10.0308,10.0308,10.0507,10.0739,10.1169,10.1799,10.2527,10.2561,10.2826,10.3853,10.4316,10.4449,10.4581,10.4681,10.4681,10.4681,10.4681,10.4681,10.4681,10.4681,10.4681,10.4614,10.4316,10.425,10.4515,10.4614,10.4515,10.4515,10.4614,10.4681,10.4681,10.4681,10.4449,10.4184,10.4018,10.3853,10.2627,10.1368,10.0838,10.0407,10.0308,10.0308,10.0308,10.0308,10.0308,10.0308,10.0209,10.0175,9.9679,9.9049,9.8784,9.8917,9.8884,9.8718,9.8685,9.8851,9.8652,9.8486,9.8387,9.8321,9.8387,9.8486,9.8254,9.7923,9.7757,9.7525,9.7227,9.6995,9.673,9.6432,9.6266,9.6068,9.5968,9.5968,10.3258,10.4097,10.2705,10.096,9.9315,9.8623,9.7751,9.6964,9.7075,9.8039,9.9018,9.7519,9.7121,9.8283,9.8207,9.8837,10.0109,10.019,10.0666,10.0882,10.0296,9.9791,9.9475,9.961,10.052,10.0592,10.0993,10.1722,10.1352,10.1187,10.0885,10.0376,10.0275,10.0109,9.9712,9.9745,9.9712,9.9778,9.9712,9.9944,10.0308,10.0341,10.0573,10.0838,10.1169,10.1666,10.2494,10.3256,10.3422,10.3389,10.4018,10.4051,10.4084,10.4118,10.4383,10.4581,10.4681,10.4681,10.4681,10.4681,10.4681,10.4681,10.4681,10.4416,10.4416,10.4614,10.4349,10.4283,10.4548,10.4681,10.4681,10.4681,10.4681,10.4581,10.3985,10.3554,10.2958,10.1964,10.1103,10.0573,10.0308,10.0308,10.0308,10.0308,10.0308,10.0308,10.0308,10.0308,10.0308,10.0308,9.9745,9.9414,9.948,9.9612,9.9546,9.9546,9.9579,9.9314,9.895,9.9182,9.9281,9.895,9.8718,9.8818,9.8718,9.8387,9.8155,9.7923,9.7393,9.7028,9.673,9.6465,9.63,9.6167,9.6134,10.2317,10.2849,10.1843,10.0437,9.894,9.8028,9.7465,9.7345,9.7515,9.8122,9.8924,9.7931,9.7955,9.8692,9.9244,10.0255,10.079,10.0657,10.1272,10.1445,10.0584,10.0148,10.0267,10.0681,10.0901,10.1165,10.153,10.105,10.0513,10.0547,10.0547,10.0342,10.0308,10.0308,10.0308,10.0308,10.0209,10.0175,10.0175,10.0242,10.0341,10.034,10.0704,10.1102,10.1633,10.2262,10.3024,10.3588,10.3919,10.3919,10.3786,10.3819,10.3853,10.3952,10.4283,10.4584,10.4681,10.4681,10.4681,10.4681,10.4681,10.4681,10.4681,10.4681,10.4648,10.4515,10.425,10.4316,10.4581,10.4648,10.4681,10.4681,10.4681,10.4283,10.3588,10.2826,10.1997,10.1267,10.0838,10.0308,10.0308,10.0308,10.0308,10.0308,10.0308,10.0308,10.0308,10.0308,10.0308,10.0308,10.0076,9.991,9.9944,10.0076,10.0175,10.0109,10.001,9.9977,9.9712,10.0076,10.0142,9.948,9.9315,9.9745,9.9579,9.9182,9.895,9.8718,9.8155,9.7592,9.7327,9.7128,9.6962,9.683,9.6498,9.9174,9.9513,9.8701,9.8009,9.7501,9.8084,9.7887,9.7529,9.9559,10.0119,9.9124,9.9336,9.9537,9.9872,9.9452,10.0081,10.1244,10.1031,10.1375,10.1836,10.0813,10.0419,10.0269,10.0415,10.0133,10.038,10.0719,10.0549,10.0308,10.0308,10.0308,10.0308,10.0308,10.0308,10.0308,10.0308,10.0308,10.0308,10.0308,10.0308,10.054,10.0606,10.0737,10.1401,10.2262,10.2229,10.2428,10.3024,10.3124,10.319,10.3289,10.3389,10.3588,10.3853,10.425,10.4548,10.4681,10.4614,10.4581,10.4515,10.4482,10.4515,10.4515,10.4581,10.4614,10.4681,10.4515,10.4515,10.4681,10.4614,10.4614,10.4548,10.4482,10.3554,10.2726,10.1832,10.0937,10.0739,10.0474,10.0308,10.0308,10.0308,10.0308,10.0308,10.0308,10.0308,10.0308,10.0308,10.0308,10.0308,10.0308,10.0242,10.0242,10.0308,10.0275,10.0275,10.0209,10.0275,10.0275,10.0209,10.001,9.9679,9.9645,9.9645,9.9977,9.9844,9.9645,9.9281,9.9082,9.8552,9.8188,9.7956,9.7691,9.7492,9.7161]}]]